<?xml version="1.0" encoding="UTF-8" standalone="no" ?>
<gpx xmlns="http://www.topografix.com/GPX/1/1" xmlns:xsi="http://www.w3.org/2001/XMLSchema-instance" xsi:schemaLocation="http://www.topografix.com/GPX/1/1 http://www.topografix.com/GPX/1/1/gpx.xsd" version="1.1" creator="VisuGPX - https://www.visugpx.com">
  <metadata>
    <name>Serre de Forillon</name>
    <desc><![CDATA[grp_trc:]]></desc>
  </metadata>
  <trk>
    <name><![CDATA[Serré de Forillon 14.5 km]]></name>
    <cmt><![CDATA[28.03.2024]]></cmt>
    <desc><![CDATA[comment ...]]></desc>
    <trkseg>
      <trkpt lat="44.54476" lon="4.93331">
        <ele>216</ele>
        <time>2024-03-28T07:54:05Z</time>
      </trkpt>
      <trkpt lat="44.54476" lon="4.93331">
        <ele>217</ele>
        <time>2024-03-28T07:54:06Z</time>
      </trkpt>
      <trkpt lat="44.54473" lon="4.93332">
        <ele>214</ele>
        <time>2024-03-28T07:55:02Z</time>
      </trkpt>
      <trkpt lat="44.54474" lon="4.93336">
        <ele>214</ele>
        <time>2024-03-28T07:55:05Z</time>
      </trkpt>
      <trkpt lat="44.54475" lon="4.9334">
        <ele>212</ele>
        <time>2024-03-28T07:55:10Z</time>
      </trkpt>
      <trkpt lat="44.54475" lon="4.93345">
        <ele>211</ele>
        <time>2024-03-28T07:55:13Z</time>
      </trkpt>
      <trkpt lat="44.54472" lon="4.93354">
        <ele>209</ele>
        <time>2024-03-28T07:55:21Z</time>
      </trkpt>
      <trkpt lat="44.54476" lon="4.93362">
        <ele>210</ele>
        <time>2024-03-28T07:55:41Z</time>
      </trkpt>
      <trkpt lat="44.54472" lon="4.93374">
        <ele>209</ele>
        <time>2024-03-28T07:55:50Z</time>
      </trkpt>
      <trkpt lat="44.54472" lon="4.93384">
        <ele>211</ele>
        <time>2024-03-28T07:55:56Z</time>
      </trkpt>
      <trkpt lat="44.54469" lon="4.93402">
        <ele>212</ele>
        <time>2024-03-28T07:56:09Z</time>
      </trkpt>
      <trkpt lat="44.54465" lon="4.93411">
        <ele>211</ele>
        <time>2024-03-28T07:56:15Z</time>
      </trkpt>
      <trkpt lat="44.54464" lon="4.93415">
        <ele>211</ele>
        <time>2024-03-28T07:56:18Z</time>
      </trkpt>
      <trkpt lat="44.54465" lon="4.9342">
        <ele>210</ele>
        <time>2024-03-28T07:56:21Z</time>
      </trkpt>
      <trkpt lat="44.54461" lon="4.93433">
        <ele>208</ele>
        <time>2024-03-28T07:56:30Z</time>
      </trkpt>
      <trkpt lat="44.5446" lon="4.93448">
        <ele>208</ele>
        <time>2024-03-28T07:56:38Z</time>
      </trkpt>
      <trkpt lat="44.54461" lon="4.9346">
        <ele>207</ele>
        <time>2024-03-28T07:56:45Z</time>
      </trkpt>
      <trkpt lat="44.5446" lon="4.93465">
        <ele>207</ele>
        <time>2024-03-28T07:56:48Z</time>
      </trkpt>
      <trkpt lat="44.54459" lon="4.93477">
        <ele>207</ele>
        <time>2024-03-28T07:56:56Z</time>
      </trkpt>
      <trkpt lat="44.54458" lon="4.93482">
        <ele>207</ele>
        <time>2024-03-28T07:57:01Z</time>
      </trkpt>
      <trkpt lat="44.54454" lon="4.93485">
        <ele>207</ele>
        <time>2024-03-28T07:57:06Z</time>
      </trkpt>
      <trkpt lat="44.54452" lon="4.93489">
        <ele>208</ele>
        <time>2024-03-28T07:57:11Z</time>
      </trkpt>
      <trkpt lat="44.54452" lon="4.93495">
        <ele>208</ele>
        <time>2024-03-28T07:57:14Z</time>
      </trkpt>
      <trkpt lat="44.54458" lon="4.93504">
        <ele>211</ele>
        <time>2024-03-28T07:57:21Z</time>
      </trkpt>
      <trkpt lat="44.54459" lon="4.9351">
        <ele>212</ele>
        <time>2024-03-28T07:57:30Z</time>
      </trkpt>
      <trkpt lat="44.54457" lon="4.93517">
        <ele>211</ele>
        <time>2024-03-28T07:57:35Z</time>
      </trkpt>
      <trkpt lat="44.54462" lon="4.93523">
        <ele>210</ele>
        <time>2024-03-28T07:57:43Z</time>
      </trkpt>
      <trkpt lat="44.54465" lon="4.93529">
        <ele>211</ele>
        <time>2024-03-28T07:57:46Z</time>
      </trkpt>
      <trkpt lat="44.54466" lon="4.93537">
        <ele>211</ele>
        <time>2024-03-28T07:57:52Z</time>
      </trkpt>
      <trkpt lat="44.54461" lon="4.93551">
        <ele>212</ele>
        <time>2024-03-28T07:58:04Z</time>
      </trkpt>
      <trkpt lat="44.54465" lon="4.93561">
        <ele>213</ele>
        <time>2024-03-28T07:58:10Z</time>
      </trkpt>
      <trkpt lat="44.54473" lon="4.93577">
        <ele>214</ele>
        <time>2024-03-28T07:58:20Z</time>
      </trkpt>
      <trkpt lat="44.54473" lon="4.93585">
        <ele>213</ele>
        <time>2024-03-28T07:58:27Z</time>
      </trkpt>
      <trkpt lat="44.54469" lon="4.93589">
        <ele>212</ele>
        <time>2024-03-28T07:58:34Z</time>
      </trkpt>
      <trkpt lat="44.54464" lon="4.93594">
        <ele>211</ele>
        <time>2024-03-28T07:58:41Z</time>
      </trkpt>
      <trkpt lat="44.54462" lon="4.93601">
        <ele>211</ele>
        <time>2024-03-28T07:58:44Z</time>
      </trkpt>
      <trkpt lat="44.54463" lon="4.9361">
        <ele>212</ele>
        <time>2024-03-28T07:58:47Z</time>
      </trkpt>
      <trkpt lat="44.54462" lon="4.93618">
        <ele>213</ele>
        <time>2024-03-28T07:58:50Z</time>
      </trkpt>
      <trkpt lat="44.54459" lon="4.93633">
        <ele>213</ele>
        <time>2024-03-28T07:58:59Z</time>
      </trkpt>
      <trkpt lat="44.54457" lon="4.9365">
        <ele>213</ele>
        <time>2024-03-28T07:59:09Z</time>
      </trkpt>
      <trkpt lat="44.54455" lon="4.93658">
        <ele>212</ele>
        <time>2024-03-28T07:59:14Z</time>
      </trkpt>
      <trkpt lat="44.54456" lon="4.93678">
        <ele>212</ele>
        <time>2024-03-28T07:59:23Z</time>
      </trkpt>
      <trkpt lat="44.54458" lon="4.93685">
        <ele>214</ele>
        <time>2024-03-28T07:59:37Z</time>
      </trkpt>
      <trkpt lat="44.54467" lon="4.93688">
        <ele>215</ele>
        <time>2024-03-28T07:59:58Z</time>
      </trkpt>
      <trkpt lat="44.54473" lon="4.93689">
        <ele>214</ele>
        <time>2024-03-28T08:00:23Z</time>
      </trkpt>
      <trkpt lat="44.54478" lon="4.93688">
        <ele>214</ele>
        <time>2024-03-28T08:00:32Z</time>
      </trkpt>
      <trkpt lat="44.54483" lon="4.93688">
        <ele>216</ele>
        <time>2024-03-28T08:00:37Z</time>
      </trkpt>
      <trkpt lat="44.54488" lon="4.93688">
        <ele>216</ele>
        <time>2024-03-28T08:00:47Z</time>
      </trkpt>
      <trkpt lat="44.54494" lon="4.93691">
        <ele>218</ele>
        <time>2024-03-28T08:01:01Z</time>
      </trkpt>
      <trkpt lat="44.545" lon="4.93693">
        <ele>219</ele>
        <time>2024-03-28T08:01:08Z</time>
      </trkpt>
      <trkpt lat="44.54506" lon="4.93695">
        <ele>222</ele>
        <time>2024-03-28T08:01:14Z</time>
      </trkpt>
      <trkpt lat="44.54509" lon="4.93691">
        <ele>222</ele>
        <time>2024-03-28T08:01:21Z</time>
      </trkpt>
      <trkpt lat="44.54514" lon="4.93688">
        <ele>225</ele>
        <time>2024-03-28T08:01:32Z</time>
      </trkpt>
      <trkpt lat="44.54519" lon="4.93687">
        <ele>226</ele>
        <time>2024-03-28T08:01:41Z</time>
      </trkpt>
      <trkpt lat="44.54522" lon="4.9368">
        <ele>228</ele>
        <time>2024-03-28T08:01:50Z</time>
      </trkpt>
      <trkpt lat="44.54524" lon="4.93686">
        <ele>227</ele>
        <time>2024-03-28T08:02:02Z</time>
      </trkpt>
      <trkpt lat="44.54523" lon="4.93692">
        <ele>228</ele>
        <time>2024-03-28T08:02:08Z</time>
      </trkpt>
      <trkpt lat="44.5452" lon="4.93698">
        <ele>232</ele>
        <time>2024-03-28T08:02:18Z</time>
      </trkpt>
      <trkpt lat="44.54523" lon="4.93705">
        <ele>233</ele>
        <time>2024-03-28T08:02:25Z</time>
      </trkpt>
      <trkpt lat="44.54521" lon="4.93711">
        <ele>234</ele>
        <time>2024-03-28T08:02:33Z</time>
      </trkpt>
      <trkpt lat="44.54517" lon="4.93713">
        <ele>235</ele>
        <time>2024-03-28T08:02:43Z</time>
      </trkpt>
      <trkpt lat="44.54519" lon="4.9372">
        <ele>238</ele>
        <time>2024-03-28T08:02:49Z</time>
      </trkpt>
      <trkpt lat="44.54524" lon="4.93721">
        <ele>240</ele>
        <time>2024-03-28T08:03:02Z</time>
      </trkpt>
      <trkpt lat="44.54529" lon="4.93721">
        <ele>244</ele>
        <time>2024-03-28T08:03:08Z</time>
      </trkpt>
      <trkpt lat="44.54536" lon="4.93718">
        <ele>247</ele>
        <time>2024-03-28T08:03:22Z</time>
      </trkpt>
      <trkpt lat="44.54541" lon="4.93717">
        <ele>248</ele>
        <time>2024-03-28T08:03:31Z</time>
      </trkpt>
      <trkpt lat="44.54545" lon="4.93715">
        <ele>249</ele>
        <time>2024-03-28T08:03:41Z</time>
      </trkpt>
      <trkpt lat="44.54551" lon="4.93714">
        <ele>249</ele>
        <time>2024-03-28T08:03:50Z</time>
      </trkpt>
      <trkpt lat="44.54572" lon="4.93721">
        <ele>257</ele>
        <time>2024-03-28T08:04:14Z</time>
      </trkpt>
      <trkpt lat="44.54579" lon="4.93726">
        <ele>257</ele>
        <time>2024-03-28T08:04:29Z</time>
      </trkpt>
      <trkpt lat="44.54583" lon="4.93728">
        <ele>258</ele>
        <time>2024-03-28T08:04:34Z</time>
      </trkpt>
      <trkpt lat="44.54593" lon="4.93735">
        <ele>261</ele>
        <time>2024-03-28T08:04:47Z</time>
      </trkpt>
      <trkpt lat="44.54602" lon="4.93742">
        <ele>261</ele>
        <time>2024-03-28T08:04:59Z</time>
      </trkpt>
      <trkpt lat="44.54605" lon="4.93747">
        <ele>259</ele>
        <time>2024-03-28T08:05:03Z</time>
      </trkpt>
      <trkpt lat="44.54616" lon="4.93751">
        <ele>257</ele>
        <time>2024-03-28T08:05:13Z</time>
      </trkpt>
      <trkpt lat="44.54619" lon="4.93753">
        <ele>258</ele>
        <time>2024-03-28T08:05:16Z</time>
      </trkpt>
      <trkpt lat="44.54636" lon="4.93755">
        <ele>261</ele>
        <time>2024-03-28T08:06:20Z</time>
      </trkpt>
      <trkpt lat="44.54635" lon="4.93752">
        <ele>261</ele>
        <time>2024-03-28T08:06:25Z</time>
      </trkpt>
      <trkpt lat="44.54633" lon="4.93753">
        <ele>262</ele>
        <time>2024-03-28T08:06:56Z</time>
      </trkpt>
      <trkpt lat="44.54632" lon="4.93758">
        <ele>262</ele>
        <time>2024-03-28T08:07:11Z</time>
      </trkpt>
      <trkpt lat="44.54637" lon="4.93759">
        <ele>263</ele>
        <time>2024-03-28T08:07:21Z</time>
      </trkpt>
      <trkpt lat="44.54642" lon="4.93761">
        <ele>267</ele>
        <time>2024-03-28T08:07:25Z</time>
      </trkpt>
      <trkpt lat="44.54652" lon="4.93765">
        <ele>269</ele>
        <time>2024-03-28T08:07:35Z</time>
      </trkpt>
      <trkpt lat="44.54656" lon="4.93767">
        <ele>269</ele>
        <time>2024-03-28T08:07:41Z</time>
      </trkpt>
      <trkpt lat="44.54685" lon="4.93783">
        <ele>271</ele>
        <time>2024-03-28T08:08:11Z</time>
      </trkpt>
      <trkpt lat="44.54715" lon="4.93806">
        <ele>274</ele>
        <time>2024-03-28T08:08:42Z</time>
      </trkpt>
      <trkpt lat="44.54718" lon="4.93807">
        <ele>274</ele>
        <time>2024-03-28T08:08:46Z</time>
      </trkpt>
      <trkpt lat="44.54726" lon="4.9381">
        <ele>275</ele>
        <time>2024-03-28T08:08:54Z</time>
      </trkpt>
      <trkpt lat="44.54742" lon="4.93821">
        <ele>277</ele>
        <time>2024-03-28T08:09:09Z</time>
      </trkpt>
      <trkpt lat="44.54754" lon="4.93834">
        <ele>275</ele>
        <time>2024-03-28T08:09:27Z</time>
      </trkpt>
      <trkpt lat="44.5477" lon="4.93848">
        <ele>273</ele>
        <time>2024-03-28T08:09:45Z</time>
      </trkpt>
      <trkpt lat="44.54772" lon="4.93853">
        <ele>275</ele>
        <time>2024-03-28T08:09:50Z</time>
      </trkpt>
      <trkpt lat="44.54776" lon="4.93858">
        <ele>276</ele>
        <time>2024-03-28T08:09:55Z</time>
      </trkpt>
      <trkpt lat="44.54798" lon="4.9388">
        <ele>281</ele>
        <time>2024-03-28T08:10:22Z</time>
      </trkpt>
      <trkpt lat="44.54804" lon="4.9389">
        <ele>279</ele>
        <time>2024-03-28T08:10:32Z</time>
      </trkpt>
      <trkpt lat="44.54811" lon="4.939">
        <ele>279</ele>
        <time>2024-03-28T08:10:40Z</time>
      </trkpt>
      <trkpt lat="44.54827" lon="4.93913">
        <ele>281</ele>
        <time>2024-03-28T08:10:55Z</time>
      </trkpt>
      <trkpt lat="44.54833" lon="4.93915">
        <ele>280</ele>
        <time>2024-03-28T08:11:00Z</time>
      </trkpt>
      <trkpt lat="44.54839" lon="4.9392">
        <ele>279</ele>
        <time>2024-03-28T08:11:05Z</time>
      </trkpt>
      <trkpt lat="44.54849" lon="4.9393">
        <ele>277</ele>
        <time>2024-03-28T08:11:14Z</time>
      </trkpt>
      <trkpt lat="44.54854" lon="4.93935">
        <ele>276</ele>
        <time>2024-03-28T08:11:20Z</time>
      </trkpt>
      <trkpt lat="44.54863" lon="4.93946">
        <ele>276</ele>
        <time>2024-03-28T08:11:30Z</time>
      </trkpt>
      <trkpt lat="44.54867" lon="4.9395">
        <ele>275</ele>
        <time>2024-03-28T08:11:33Z</time>
      </trkpt>
      <trkpt lat="44.5487" lon="4.93954">
        <ele>274</ele>
        <time>2024-03-28T08:11:38Z</time>
      </trkpt>
      <trkpt lat="44.54874" lon="4.93956">
        <ele>275</ele>
        <time>2024-03-28T08:11:40Z</time>
      </trkpt>
      <trkpt lat="44.54877" lon="4.9396">
        <ele>276</ele>
        <time>2024-03-28T08:11:43Z</time>
      </trkpt>
      <trkpt lat="44.54879" lon="4.93957">
        <ele>274</ele>
        <time>2024-03-28T08:12:31Z</time>
      </trkpt>
      <trkpt lat="44.54881" lon="4.9396">
        <ele>274</ele>
        <time>2024-03-28T08:12:39Z</time>
      </trkpt>
      <trkpt lat="44.54884" lon="4.93962">
        <ele>274</ele>
        <time>2024-03-28T08:12:45Z</time>
      </trkpt>
      <trkpt lat="44.54887" lon="4.93968">
        <ele>276</ele>
        <time>2024-03-28T08:12:50Z</time>
      </trkpt>
      <trkpt lat="44.54891" lon="4.93974">
        <ele>276</ele>
        <time>2024-03-28T08:12:55Z</time>
      </trkpt>
      <trkpt lat="44.54896" lon="4.93976">
        <ele>276</ele>
        <time>2024-03-28T08:13:00Z</time>
      </trkpt>
      <trkpt lat="44.54902" lon="4.93988">
        <ele>276</ele>
        <time>2024-03-28T08:13:10Z</time>
      </trkpt>
      <trkpt lat="44.54921" lon="4.94009">
        <ele>278</ele>
        <time>2024-03-28T08:13:30Z</time>
      </trkpt>
      <trkpt lat="44.54927" lon="4.9401">
        <ele>279</ele>
        <time>2024-03-28T08:13:35Z</time>
      </trkpt>
      <trkpt lat="44.54931" lon="4.94014">
        <ele>280</ele>
        <time>2024-03-28T08:13:40Z</time>
      </trkpt>
      <trkpt lat="44.54934" lon="4.94025">
        <ele>279</ele>
        <time>2024-03-28T08:13:50Z</time>
      </trkpt>
      <trkpt lat="44.54931" lon="4.94042">
        <ele>278</ele>
        <time>2024-03-28T08:14:04Z</time>
      </trkpt>
      <trkpt lat="44.54928" lon="4.94052">
        <ele>280</ele>
        <time>2024-03-28T08:14:12Z</time>
      </trkpt>
      <trkpt lat="44.54928" lon="4.94057">
        <ele>280</ele>
        <time>2024-03-28T08:14:16Z</time>
      </trkpt>
      <trkpt lat="44.54926" lon="4.9406">
        <ele>281</ele>
        <time>2024-03-28T08:14:20Z</time>
      </trkpt>
      <trkpt lat="44.54923" lon="4.9407">
        <ele>281</ele>
        <time>2024-03-28T08:14:27Z</time>
      </trkpt>
      <trkpt lat="44.54917" lon="4.94093">
        <ele>280</ele>
        <time>2024-03-28T08:14:44Z</time>
      </trkpt>
      <trkpt lat="44.54914" lon="4.94096">
        <ele>279</ele>
        <time>2024-03-28T08:14:48Z</time>
      </trkpt>
      <trkpt lat="44.54914" lon="4.94101">
        <ele>278</ele>
        <time>2024-03-28T08:14:52Z</time>
      </trkpt>
      <trkpt lat="44.54912" lon="4.94105">
        <ele>278</ele>
        <time>2024-03-28T08:14:56Z</time>
      </trkpt>
      <trkpt lat="44.54909" lon="4.9411">
        <ele>276</ele>
        <time>2024-03-28T08:15:00Z</time>
      </trkpt>
      <trkpt lat="44.54906" lon="4.94112">
        <ele>277</ele>
        <time>2024-03-28T08:15:03Z</time>
      </trkpt>
      <trkpt lat="44.54897" lon="4.94138">
        <ele>276</ele>
        <time>2024-03-28T08:15:23Z</time>
      </trkpt>
      <trkpt lat="44.54896" lon="4.94152">
        <ele>275</ele>
        <time>2024-03-28T08:15:34Z</time>
      </trkpt>
      <trkpt lat="44.54902" lon="4.94186">
        <ele>269</ele>
        <time>2024-03-28T08:15:59Z</time>
      </trkpt>
      <trkpt lat="44.54903" lon="4.94202">
        <ele>267</ele>
        <time>2024-03-28T08:16:12Z</time>
      </trkpt>
      <trkpt lat="44.54905" lon="4.94214">
        <ele>265</ele>
        <time>2024-03-28T08:16:20Z</time>
      </trkpt>
      <trkpt lat="44.54904" lon="4.94232">
        <ele>262</ele>
        <time>2024-03-28T08:16:32Z</time>
      </trkpt>
      <trkpt lat="44.54907" lon="4.94251">
        <ele>261</ele>
        <time>2024-03-28T08:16:45Z</time>
      </trkpt>
      <trkpt lat="44.54908" lon="4.94256">
        <ele>261</ele>
        <time>2024-03-28T08:16:49Z</time>
      </trkpt>
      <trkpt lat="44.54911" lon="4.94277">
        <ele>259</ele>
        <time>2024-03-28T08:17:02Z</time>
      </trkpt>
      <trkpt lat="44.54912" lon="4.94287">
        <ele>257</ele>
        <time>2024-03-28T08:17:08Z</time>
      </trkpt>
      <trkpt lat="44.54913" lon="4.94332">
        <ele>256</ele>
        <time>2024-03-28T08:17:36Z</time>
      </trkpt>
      <trkpt lat="44.54912" lon="4.94336">
        <ele>256</ele>
        <time>2024-03-28T08:17:40Z</time>
      </trkpt>
      <trkpt lat="44.54912" lon="4.94342">
        <ele>255</ele>
        <time>2024-03-28T08:17:44Z</time>
      </trkpt>
      <trkpt lat="44.54912" lon="4.94347">
        <ele>255</ele>
        <time>2024-03-28T08:17:48Z</time>
      </trkpt>
      <trkpt lat="44.54909" lon="4.94359">
        <ele>255</ele>
        <time>2024-03-28T08:17:57Z</time>
      </trkpt>
      <trkpt lat="44.54909" lon="4.94386">
        <ele>254</ele>
        <time>2024-03-28T08:18:15Z</time>
      </trkpt>
      <trkpt lat="44.54911" lon="4.94398">
        <ele>252</ele>
        <time>2024-03-28T08:18:23Z</time>
      </trkpt>
      <trkpt lat="44.54911" lon="4.94413">
        <ele>251</ele>
        <time>2024-03-28T08:18:33Z</time>
      </trkpt>
      <trkpt lat="44.54916" lon="4.94445">
        <ele>251</ele>
        <time>2024-03-28T08:18:53Z</time>
      </trkpt>
      <trkpt lat="44.54914" lon="4.94451">
        <ele>252</ele>
        <time>2024-03-28T08:18:56Z</time>
      </trkpt>
      <trkpt lat="44.54909" lon="4.94487">
        <ele>256</ele>
        <time>2024-03-28T08:19:19Z</time>
      </trkpt>
      <trkpt lat="44.54907" lon="4.94517">
        <ele>254</ele>
        <time>2024-03-28T08:19:38Z</time>
      </trkpt>
      <trkpt lat="44.54907" lon="4.94521">
        <ele>253</ele>
        <time>2024-03-28T08:19:41Z</time>
      </trkpt>
      <trkpt lat="44.54909" lon="4.94534">
        <ele>254</ele>
        <time>2024-03-28T08:19:48Z</time>
      </trkpt>
      <trkpt lat="44.54909" lon="4.94539">
        <ele>255</ele>
        <time>2024-03-28T08:19:51Z</time>
      </trkpt>
      <trkpt lat="44.54907" lon="4.94543">
        <ele>254</ele>
        <time>2024-03-28T08:19:54Z</time>
      </trkpt>
      <trkpt lat="44.54905" lon="4.94546">
        <ele>254</ele>
        <time>2024-03-28T08:19:57Z</time>
      </trkpt>
      <trkpt lat="44.54904" lon="4.94556">
        <ele>255</ele>
        <time>2024-03-28T08:20:03Z</time>
      </trkpt>
      <trkpt lat="44.54903" lon="4.9456">
        <ele>256</ele>
        <time>2024-03-28T08:20:06Z</time>
      </trkpt>
      <trkpt lat="44.54903" lon="4.94565">
        <ele>257</ele>
        <time>2024-03-28T08:20:20Z</time>
      </trkpt>
      <trkpt lat="44.549" lon="4.94572">
        <ele>256</ele>
        <time>2024-03-28T08:20:40Z</time>
      </trkpt>
      <trkpt lat="44.54895" lon="4.94581">
        <ele>256</ele>
        <time>2024-03-28T08:20:48Z</time>
      </trkpt>
      <trkpt lat="44.54892" lon="4.94582">
        <ele>256</ele>
        <time>2024-03-28T08:20:52Z</time>
      </trkpt>
      <trkpt lat="44.54888" lon="4.94582">
        <ele>256</ele>
        <time>2024-03-28T08:20:56Z</time>
      </trkpt>
      <trkpt lat="44.54884" lon="4.94582">
        <ele>256</ele>
        <time>2024-03-28T08:21:00Z</time>
      </trkpt>
      <trkpt lat="44.54877" lon="4.94581">
        <ele>257</ele>
        <time>2024-03-28T08:21:07Z</time>
      </trkpt>
      <trkpt lat="44.54869" lon="4.94586">
        <ele>258</ele>
        <time>2024-03-28T08:21:15Z</time>
      </trkpt>
      <trkpt lat="44.54854" lon="4.94583">
        <ele>258</ele>
        <time>2024-03-28T08:21:26Z</time>
      </trkpt>
      <trkpt lat="44.54848" lon="4.94584">
        <ele>258</ele>
        <time>2024-03-28T08:21:32Z</time>
      </trkpt>
      <trkpt lat="44.5484" lon="4.94585">
        <ele>259</ele>
        <time>2024-03-28T08:21:39Z</time>
      </trkpt>
      <trkpt lat="44.54836" lon="4.94585">
        <ele>261</ele>
        <time>2024-03-28T08:21:43Z</time>
      </trkpt>
      <trkpt lat="44.54824" lon="4.94584">
        <ele>263</ele>
        <time>2024-03-28T08:21:55Z</time>
      </trkpt>
      <trkpt lat="44.54819" lon="4.94584">
        <ele>264</ele>
        <time>2024-03-28T08:21:59Z</time>
      </trkpt>
      <trkpt lat="44.54815" lon="4.94583">
        <ele>264</ele>
        <time>2024-03-28T08:22:03Z</time>
      </trkpt>
      <trkpt lat="44.54811" lon="4.94584">
        <ele>263</ele>
        <time>2024-03-28T08:22:07Z</time>
      </trkpt>
      <trkpt lat="44.548" lon="4.94582">
        <ele>265</ele>
        <time>2024-03-28T08:22:15Z</time>
      </trkpt>
      <trkpt lat="44.54795" lon="4.9458">
        <ele>266</ele>
        <time>2024-03-28T08:22:20Z</time>
      </trkpt>
      <trkpt lat="44.54782" lon="4.94579">
        <ele>268</ele>
        <time>2024-03-28T08:22:33Z</time>
      </trkpt>
      <trkpt lat="44.54778" lon="4.94581">
        <ele>268</ele>
        <time>2024-03-28T08:22:40Z</time>
      </trkpt>
      <trkpt lat="44.54772" lon="4.94582">
        <ele>268</ele>
        <time>2024-03-28T08:22:44Z</time>
      </trkpt>
      <trkpt lat="44.54767" lon="4.94583">
        <ele>268</ele>
        <time>2024-03-28T08:22:48Z</time>
      </trkpt>
      <trkpt lat="44.54758" lon="4.94582">
        <ele>267</ele>
        <time>2024-03-28T08:22:58Z</time>
      </trkpt>
      <trkpt lat="44.54753" lon="4.94581">
        <ele>266</ele>
        <time>2024-03-28T08:23:03Z</time>
      </trkpt>
      <trkpt lat="44.54742" lon="4.94585">
        <ele>264</ele>
        <time>2024-03-28T08:23:11Z</time>
      </trkpt>
      <trkpt lat="44.54733" lon="4.9459">
        <ele>265</ele>
        <time>2024-03-28T08:23:18Z</time>
      </trkpt>
      <trkpt lat="44.5473" lon="4.94594">
        <ele>264</ele>
        <time>2024-03-28T08:23:22Z</time>
      </trkpt>
      <trkpt lat="44.54726" lon="4.94597">
        <ele>265</ele>
        <time>2024-03-28T08:23:25Z</time>
      </trkpt>
      <trkpt lat="44.54719" lon="4.94605">
        <ele>265</ele>
        <time>2024-03-28T08:23:32Z</time>
      </trkpt>
      <trkpt lat="44.54716" lon="4.94608">
        <ele>267</ele>
        <time>2024-03-28T08:23:35Z</time>
      </trkpt>
      <trkpt lat="44.54709" lon="4.94619">
        <ele>267</ele>
        <time>2024-03-28T08:23:45Z</time>
      </trkpt>
      <trkpt lat="44.54707" lon="4.94624">
        <ele>267</ele>
        <time>2024-03-28T08:23:48Z</time>
      </trkpt>
      <trkpt lat="44.54698" lon="4.94637">
        <ele>269</ele>
        <time>2024-03-28T08:24:00Z</time>
      </trkpt>
      <trkpt lat="44.54696" lon="4.94641">
        <ele>270</ele>
        <time>2024-03-28T08:24:03Z</time>
      </trkpt>
      <trkpt lat="44.54693" lon="4.94646">
        <ele>270</ele>
        <time>2024-03-28T08:24:07Z</time>
      </trkpt>
      <trkpt lat="44.54691" lon="4.94649">
        <ele>269</ele>
        <time>2024-03-28T08:24:10Z</time>
      </trkpt>
      <trkpt lat="44.54689" lon="4.94654">
        <ele>268</ele>
        <time>2024-03-28T08:24:14Z</time>
      </trkpt>
      <trkpt lat="44.54686" lon="4.94659">
        <ele>267</ele>
        <time>2024-03-28T08:24:18Z</time>
      </trkpt>
      <trkpt lat="44.54683" lon="4.94664">
        <ele>267</ele>
        <time>2024-03-28T08:24:21Z</time>
      </trkpt>
      <trkpt lat="44.54681" lon="4.94669">
        <ele>266</ele>
        <time>2024-03-28T08:24:25Z</time>
      </trkpt>
      <trkpt lat="44.5468" lon="4.94674">
        <ele>266</ele>
        <time>2024-03-28T08:24:28Z</time>
      </trkpt>
      <trkpt lat="44.54673" lon="4.94687">
        <ele>266</ele>
        <time>2024-03-28T08:24:37Z</time>
      </trkpt>
      <trkpt lat="44.54671" lon="4.94693">
        <ele>265</ele>
        <time>2024-03-28T08:24:49Z</time>
      </trkpt>
      <trkpt lat="44.5467" lon="4.94701">
        <ele>263</ele>
        <time>2024-03-28T08:24:56Z</time>
      </trkpt>
      <trkpt lat="44.5467" lon="4.94724">
        <ele>264</ele>
        <time>2024-03-28T08:25:11Z</time>
      </trkpt>
      <trkpt lat="44.54651" lon="4.94753">
        <ele>263</ele>
        <time>2024-03-28T08:25:34Z</time>
      </trkpt>
      <trkpt lat="44.54644" lon="4.94761">
        <ele>264</ele>
        <time>2024-03-28T08:25:42Z</time>
      </trkpt>
      <trkpt lat="44.54641" lon="4.94764">
        <ele>264</ele>
        <time>2024-03-28T08:25:45Z</time>
      </trkpt>
      <trkpt lat="44.54635" lon="4.94769">
        <ele>265</ele>
        <time>2024-03-28T08:25:50Z</time>
      </trkpt>
      <trkpt lat="44.54629" lon="4.94775">
        <ele>267</ele>
        <time>2024-03-28T08:25:56Z</time>
      </trkpt>
      <trkpt lat="44.54626" lon="4.94777">
        <ele>267</ele>
        <time>2024-03-28T08:26:00Z</time>
      </trkpt>
      <trkpt lat="44.54623" lon="4.94779">
        <ele>268</ele>
        <time>2024-03-28T08:26:06Z</time>
      </trkpt>
      <trkpt lat="44.54615" lon="4.94784">
        <ele>270</ele>
        <time>2024-03-28T08:26:15Z</time>
      </trkpt>
      <trkpt lat="44.54609" lon="4.94786">
        <ele>271</ele>
        <time>2024-03-28T08:26:20Z</time>
      </trkpt>
      <trkpt lat="44.54603" lon="4.94796">
        <ele>269</ele>
        <time>2024-03-28T08:26:30Z</time>
      </trkpt>
      <trkpt lat="44.54598" lon="4.94796">
        <ele>269</ele>
        <time>2024-03-28T08:26:33Z</time>
      </trkpt>
      <trkpt lat="44.54593" lon="4.94802">
        <ele>270</ele>
        <time>2024-03-28T08:26:41Z</time>
      </trkpt>
      <trkpt lat="44.54565" lon="4.94823">
        <ele>268</ele>
        <time>2024-03-28T08:27:11Z</time>
      </trkpt>
      <trkpt lat="44.54557" lon="4.94831">
        <ele>266</ele>
        <time>2024-03-28T08:27:20Z</time>
      </trkpt>
      <trkpt lat="44.54552" lon="4.94833">
        <ele>265</ele>
        <time>2024-03-28T08:27:25Z</time>
      </trkpt>
      <trkpt lat="44.54548" lon="4.94839">
        <ele>264</ele>
        <time>2024-03-28T08:27:30Z</time>
      </trkpt>
      <trkpt lat="44.54546" lon="4.94844">
        <ele>263</ele>
        <time>2024-03-28T08:27:35Z</time>
      </trkpt>
      <trkpt lat="44.54544" lon="4.9485">
        <ele>263</ele>
        <time>2024-03-28T08:27:40Z</time>
      </trkpt>
      <trkpt lat="44.54542" lon="4.94855">
        <ele>263</ele>
        <time>2024-03-28T08:27:46Z</time>
      </trkpt>
      <trkpt lat="44.54539" lon="4.94862">
        <ele>262</ele>
        <time>2024-03-28T08:27:51Z</time>
      </trkpt>
      <trkpt lat="44.54538" lon="4.94871">
        <ele>261</ele>
        <time>2024-03-28T08:27:55Z</time>
      </trkpt>
      <trkpt lat="44.54537" lon="4.94876">
        <ele>259</ele>
        <time>2024-03-28T08:27:59Z</time>
      </trkpt>
      <trkpt lat="44.54536" lon="4.94883">
        <ele>258</ele>
        <time>2024-03-28T08:28:05Z</time>
      </trkpt>
      <trkpt lat="44.54534" lon="4.94891">
        <ele>257</ele>
        <time>2024-03-28T08:28:11Z</time>
      </trkpt>
      <trkpt lat="44.54532" lon="4.94897">
        <ele>257</ele>
        <time>2024-03-28T08:28:15Z</time>
      </trkpt>
      <trkpt lat="44.54522" lon="4.94909">
        <ele>253</ele>
        <time>2024-03-28T08:28:26Z</time>
      </trkpt>
      <trkpt lat="44.5452" lon="4.94915">
        <ele>253</ele>
        <time>2024-03-28T08:28:30Z</time>
      </trkpt>
      <trkpt lat="44.54517" lon="4.94918">
        <ele>252</ele>
        <time>2024-03-28T08:28:35Z</time>
      </trkpt>
      <trkpt lat="44.54513" lon="4.9492">
        <ele>252</ele>
        <time>2024-03-28T08:28:38Z</time>
      </trkpt>
      <trkpt lat="44.54509" lon="4.94924">
        <ele>254</ele>
        <time>2024-03-28T08:28:45Z</time>
      </trkpt>
      <trkpt lat="44.54502" lon="4.94935">
        <ele>256</ele>
        <time>2024-03-28T08:28:54Z</time>
      </trkpt>
      <trkpt lat="44.54494" lon="4.94951">
        <ele>256</ele>
        <time>2024-03-28T08:29:10Z</time>
      </trkpt>
      <trkpt lat="44.54491" lon="4.94957">
        <ele>255</ele>
        <time>2024-03-28T08:29:15Z</time>
      </trkpt>
      <trkpt lat="44.54487" lon="4.94962">
        <ele>257</ele>
        <time>2024-03-28T08:29:20Z</time>
      </trkpt>
      <trkpt lat="44.54475" lon="4.94977">
        <ele>260</ele>
        <time>2024-03-28T08:29:32Z</time>
      </trkpt>
      <trkpt lat="44.54474" lon="4.94982">
        <ele>260</ele>
        <time>2024-03-28T08:29:35Z</time>
      </trkpt>
      <trkpt lat="44.54473" lon="4.94988">
        <ele>261</ele>
        <time>2024-03-28T08:29:39Z</time>
      </trkpt>
      <trkpt lat="44.54471" lon="4.94992">
        <ele>262</ele>
        <time>2024-03-28T08:29:43Z</time>
      </trkpt>
      <trkpt lat="44.54468" lon="4.94994">
        <ele>263</ele>
        <time>2024-03-28T08:29:46Z</time>
      </trkpt>
      <trkpt lat="44.54467" lon="4.94999">
        <ele>262</ele>
        <time>2024-03-28T08:29:51Z</time>
      </trkpt>
      <trkpt lat="44.54463" lon="4.95002">
        <ele>261</ele>
        <time>2024-03-28T08:29:55Z</time>
      </trkpt>
      <trkpt lat="44.54461" lon="4.95004">
        <ele>261</ele>
        <time>2024-03-28T08:29:59Z</time>
      </trkpt>
      <trkpt lat="44.54458" lon="4.95009">
        <ele>262</ele>
        <time>2024-03-28T08:30:03Z</time>
      </trkpt>
      <trkpt lat="44.54452" lon="4.95022">
        <ele>262</ele>
        <time>2024-03-28T08:30:15Z</time>
      </trkpt>
      <trkpt lat="44.5445" lon="4.95026">
        <ele>265</ele>
        <time>2024-03-28T08:30:22Z</time>
      </trkpt>
      <trkpt lat="44.54448" lon="4.95032">
        <ele>265</ele>
        <time>2024-03-28T08:30:26Z</time>
      </trkpt>
      <trkpt lat="44.54447" lon="4.95037">
        <ele>266</ele>
        <time>2024-03-28T08:30:31Z</time>
      </trkpt>
      <trkpt lat="44.54445" lon="4.95042">
        <ele>266</ele>
        <time>2024-03-28T08:30:37Z</time>
      </trkpt>
      <trkpt lat="44.54442" lon="4.95046">
        <ele>267</ele>
        <time>2024-03-28T08:30:41Z</time>
      </trkpt>
      <trkpt lat="44.54439" lon="4.9505">
        <ele>268</ele>
        <time>2024-03-28T08:30:46Z</time>
      </trkpt>
      <trkpt lat="44.54436" lon="4.95064">
        <ele>271</ele>
        <time>2024-03-28T08:30:58Z</time>
      </trkpt>
      <trkpt lat="44.54438" lon="4.95067">
        <ele>269</ele>
        <time>2024-03-28T08:31:03Z</time>
      </trkpt>
      <trkpt lat="44.54436" lon="4.95077">
        <ele>268</ele>
        <time>2024-03-28T08:31:15Z</time>
      </trkpt>
      <trkpt lat="44.54436" lon="4.95084">
        <ele>267</ele>
        <time>2024-03-28T08:31:19Z</time>
      </trkpt>
      <trkpt lat="44.54434" lon="4.95089">
        <ele>265</ele>
        <time>2024-03-28T08:31:23Z</time>
      </trkpt>
      <trkpt lat="44.54431" lon="4.95091">
        <ele>265</ele>
        <time>2024-03-28T08:31:26Z</time>
      </trkpt>
      <trkpt lat="44.54429" lon="4.95102">
        <ele>266</ele>
        <time>2024-03-28T08:31:35Z</time>
      </trkpt>
      <trkpt lat="44.54422" lon="4.95115">
        <ele>268</ele>
        <time>2024-03-28T08:31:50Z</time>
      </trkpt>
      <trkpt lat="44.54421" lon="4.95119">
        <ele>270</ele>
        <time>2024-03-28T08:31:55Z</time>
      </trkpt>
      <trkpt lat="44.5442" lon="4.95123">
        <ele>271</ele>
        <time>2024-03-28T08:31:58Z</time>
      </trkpt>
      <trkpt lat="44.54417" lon="4.95139">
        <ele>274</ele>
        <time>2024-03-28T08:32:08Z</time>
      </trkpt>
      <trkpt lat="44.54417" lon="4.95144">
        <ele>274</ele>
        <time>2024-03-28T08:32:12Z</time>
      </trkpt>
      <trkpt lat="44.54416" lon="4.95149">
        <ele>272</ele>
        <time>2024-03-28T08:32:16Z</time>
      </trkpt>
      <trkpt lat="44.54416" lon="4.95156">
        <ele>272</ele>
        <time>2024-03-28T08:32:20Z</time>
      </trkpt>
      <trkpt lat="44.54416" lon="4.9516">
        <ele>273</ele>
        <time>2024-03-28T08:32:25Z</time>
      </trkpt>
      <trkpt lat="44.54416" lon="4.9517">
        <ele>273</ele>
        <time>2024-03-28T08:32:30Z</time>
      </trkpt>
      <trkpt lat="44.54417" lon="4.9518">
        <ele>273</ele>
        <time>2024-03-28T08:32:38Z</time>
      </trkpt>
      <trkpt lat="44.54417" lon="4.95188">
        <ele>274</ele>
        <time>2024-03-28T08:32:44Z</time>
      </trkpt>
      <trkpt lat="44.54416" lon="4.95194">
        <ele>274</ele>
        <time>2024-03-28T08:32:48Z</time>
      </trkpt>
      <trkpt lat="44.54415" lon="4.95202">
        <ele>273</ele>
        <time>2024-03-28T08:32:55Z</time>
      </trkpt>
      <trkpt lat="44.54415" lon="4.95207">
        <ele>272</ele>
        <time>2024-03-28T08:32:58Z</time>
      </trkpt>
      <trkpt lat="44.54414" lon="4.95213">
        <ele>269</ele>
        <time>2024-03-28T08:33:03Z</time>
      </trkpt>
      <trkpt lat="44.54405" lon="4.95217">
        <ele>268</ele>
        <time>2024-03-28T08:33:12Z</time>
      </trkpt>
      <trkpt lat="44.544" lon="4.95219">
        <ele>267</ele>
        <time>2024-03-28T08:33:16Z</time>
      </trkpt>
      <trkpt lat="44.54396" lon="4.95225">
        <ele>269</ele>
        <time>2024-03-28T08:33:20Z</time>
      </trkpt>
      <trkpt lat="44.54391" lon="4.95228">
        <ele>269</ele>
        <time>2024-03-28T08:33:25Z</time>
      </trkpt>
      <trkpt lat="44.54371" lon="4.95246">
        <ele>265</ele>
        <time>2024-03-28T08:33:45Z</time>
      </trkpt>
      <trkpt lat="44.54363" lon="4.95252">
        <ele>267</ele>
        <time>2024-03-28T08:33:55Z</time>
      </trkpt>
      <trkpt lat="44.5436" lon="4.95255">
        <ele>271</ele>
        <time>2024-03-28T08:34:01Z</time>
      </trkpt>
      <trkpt lat="44.54355" lon="4.95258">
        <ele>271</ele>
        <time>2024-03-28T08:34:05Z</time>
      </trkpt>
      <trkpt lat="44.54351" lon="4.95261">
        <ele>272</ele>
        <time>2024-03-28T08:34:10Z</time>
      </trkpt>
      <trkpt lat="44.54347" lon="4.95273">
        <ele>273</ele>
        <time>2024-03-28T08:34:20Z</time>
      </trkpt>
      <trkpt lat="44.54347" lon="4.95279">
        <ele>273</ele>
        <time>2024-03-28T08:34:24Z</time>
      </trkpt>
      <trkpt lat="44.54342" lon="4.9529">
        <ele>276</ele>
        <time>2024-03-28T08:34:33Z</time>
      </trkpt>
      <trkpt lat="44.54342" lon="4.95295">
        <ele>276</ele>
        <time>2024-03-28T08:34:36Z</time>
      </trkpt>
      <trkpt lat="44.54338" lon="4.95305">
        <ele>277</ele>
        <time>2024-03-28T08:34:42Z</time>
      </trkpt>
      <trkpt lat="44.54338" lon="4.95309">
        <ele>278</ele>
        <time>2024-03-28T08:34:45Z</time>
      </trkpt>
      <trkpt lat="44.54334" lon="4.9532">
        <ele>278</ele>
        <time>2024-03-28T08:34:55Z</time>
      </trkpt>
      <trkpt lat="44.54331" lon="4.95322">
        <ele>277</ele>
        <time>2024-03-28T08:34:58Z</time>
      </trkpt>
      <trkpt lat="44.54328" lon="4.95333">
        <ele>275</ele>
        <time>2024-03-28T08:35:07Z</time>
      </trkpt>
      <trkpt lat="44.54327" lon="4.95337">
        <ele>276</ele>
        <time>2024-03-28T08:35:10Z</time>
      </trkpt>
      <trkpt lat="44.54328" lon="4.95349">
        <ele>275</ele>
        <time>2024-03-28T08:35:18Z</time>
      </trkpt>
      <trkpt lat="44.54327" lon="4.95353">
        <ele>274</ele>
        <time>2024-03-28T08:35:22Z</time>
      </trkpt>
      <trkpt lat="44.54328" lon="4.9536">
        <ele>274</ele>
        <time>2024-03-28T08:35:28Z</time>
      </trkpt>
      <trkpt lat="44.54328" lon="4.95363">
        <ele>272</ele>
        <time>2024-03-28T08:35:31Z</time>
      </trkpt>
      <trkpt lat="44.54328" lon="4.95373">
        <ele>271</ele>
        <time>2024-03-28T08:35:37Z</time>
      </trkpt>
      <trkpt lat="44.54328" lon="4.95378">
        <ele>270</ele>
        <time>2024-03-28T08:35:41Z</time>
      </trkpt>
      <trkpt lat="44.54329" lon="4.95382">
        <ele>269</ele>
        <time>2024-03-28T08:35:43Z</time>
      </trkpt>
      <trkpt lat="44.5433" lon="4.95386">
        <ele>270</ele>
        <time>2024-03-28T08:35:46Z</time>
      </trkpt>
      <trkpt lat="44.54333" lon="4.95393">
        <ele>269</ele>
        <time>2024-03-28T08:35:51Z</time>
      </trkpt>
      <trkpt lat="44.54333" lon="4.95398">
        <ele>268</ele>
        <time>2024-03-28T08:35:55Z</time>
      </trkpt>
      <trkpt lat="44.54332" lon="4.95401">
        <ele>268</ele>
        <time>2024-03-28T08:35:58Z</time>
      </trkpt>
      <trkpt lat="44.54331" lon="4.95405">
        <ele>268</ele>
        <time>2024-03-28T08:36:01Z</time>
      </trkpt>
      <trkpt lat="44.54333" lon="4.95408">
        <ele>268</ele>
        <time>2024-03-28T08:36:04Z</time>
      </trkpt>
      <trkpt lat="44.54334" lon="4.95412">
        <ele>269</ele>
        <time>2024-03-28T08:36:07Z</time>
      </trkpt>
      <trkpt lat="44.54337" lon="4.95424">
        <ele>268</ele>
        <time>2024-03-28T08:36:16Z</time>
      </trkpt>
      <trkpt lat="44.54336" lon="4.95429">
        <ele>267</ele>
        <time>2024-03-28T08:36:20Z</time>
      </trkpt>
      <trkpt lat="44.54335" lon="4.95431">
        <ele>267</ele>
        <time>2024-03-28T08:36:40Z</time>
      </trkpt>
      <trkpt lat="44.54336" lon="4.95431">
        <ele>265</ele>
        <time>2024-03-28T08:37:46Z</time>
      </trkpt>
      <trkpt lat="44.54341" lon="4.95474">
        <ele>262</ele>
        <time>2024-03-28T08:38:16Z</time>
      </trkpt>
      <trkpt lat="44.54344" lon="4.95496">
        <ele>258</ele>
        <time>2024-03-28T08:38:33Z</time>
      </trkpt>
      <trkpt lat="44.54345" lon="4.955">
        <ele>258</ele>
        <time>2024-03-28T08:38:35Z</time>
      </trkpt>
      <trkpt lat="44.54345" lon="4.95503">
        <ele>257</ele>
        <time>2024-03-28T08:38:37Z</time>
      </trkpt>
      <trkpt lat="44.54346" lon="4.95507">
        <ele>257</ele>
        <time>2024-03-28T08:38:40Z</time>
      </trkpt>
      <trkpt lat="44.54348" lon="4.95515">
        <ele>256</ele>
        <time>2024-03-28T08:38:46Z</time>
      </trkpt>
      <trkpt lat="44.5436" lon="4.95548">
        <ele>253</ele>
        <time>2024-03-28T08:39:11Z</time>
      </trkpt>
      <trkpt lat="44.54364" lon="4.95562">
        <ele>253</ele>
        <time>2024-03-28T08:39:19Z</time>
      </trkpt>
      <trkpt lat="44.54365" lon="4.95564">
        <ele>253</ele>
        <time>2024-03-28T08:39:21Z</time>
      </trkpt>
      <trkpt lat="44.54365" lon="4.95571">
        <ele>253</ele>
        <time>2024-03-28T08:39:26Z</time>
      </trkpt>
      <trkpt lat="44.54365" lon="4.95574">
        <ele>254</ele>
        <time>2024-03-28T08:39:32Z</time>
      </trkpt>
      <trkpt lat="44.54362" lon="4.95587">
        <ele>255</ele>
        <time>2024-03-28T08:39:48Z</time>
      </trkpt>
      <trkpt lat="44.5436" lon="4.95592">
        <ele>253</ele>
        <time>2024-03-28T08:39:51Z</time>
      </trkpt>
      <trkpt lat="44.5436" lon="4.95596">
        <ele>253</ele>
        <time>2024-03-28T08:39:53Z</time>
      </trkpt>
      <trkpt lat="44.54358" lon="4.95603">
        <ele>252</ele>
        <time>2024-03-28T08:39:57Z</time>
      </trkpt>
      <trkpt lat="44.5436" lon="4.95608">
        <ele>250</ele>
        <time>2024-03-28T08:40:00Z</time>
      </trkpt>
      <trkpt lat="44.54361" lon="4.95613">
        <ele>249</ele>
        <time>2024-03-28T08:40:04Z</time>
      </trkpt>
      <trkpt lat="44.54363" lon="4.95621">
        <ele>246</ele>
        <time>2024-03-28T08:40:08Z</time>
      </trkpt>
      <trkpt lat="44.54362" lon="4.95625">
        <ele>245</ele>
        <time>2024-03-28T08:40:12Z</time>
      </trkpt>
      <trkpt lat="44.54363" lon="4.95632">
        <ele>247</ele>
        <time>2024-03-28T08:40:18Z</time>
      </trkpt>
      <trkpt lat="44.5436" lon="4.95642">
        <ele>250</ele>
        <time>2024-03-28T08:40:24Z</time>
      </trkpt>
      <trkpt lat="44.54352" lon="4.95656">
        <ele>252</ele>
        <time>2024-03-28T08:40:36Z</time>
      </trkpt>
      <trkpt lat="44.54351" lon="4.95659">
        <ele>252</ele>
        <time>2024-03-28T08:40:38Z</time>
      </trkpt>
      <trkpt lat="44.54344" lon="4.95677">
        <ele>253</ele>
        <time>2024-03-28T08:40:54Z</time>
      </trkpt>
      <trkpt lat="44.54342" lon="4.95682">
        <ele>253</ele>
        <time>2024-03-28T08:40:57Z</time>
      </trkpt>
      <trkpt lat="44.54343" lon="4.95686">
        <ele>254</ele>
        <time>2024-03-28T08:41:00Z</time>
      </trkpt>
      <trkpt lat="44.5434" lon="4.95694">
        <ele>256</ele>
        <time>2024-03-28T08:41:06Z</time>
      </trkpt>
      <trkpt lat="44.54334" lon="4.95707">
        <ele>255</ele>
        <time>2024-03-28T08:41:16Z</time>
      </trkpt>
      <trkpt lat="44.54333" lon="4.95713">
        <ele>255</ele>
        <time>2024-03-28T08:41:20Z</time>
      </trkpt>
      <trkpt lat="44.54334" lon="4.95717">
        <ele>255</ele>
        <time>2024-03-28T08:41:23Z</time>
      </trkpt>
      <trkpt lat="44.54337" lon="4.95722">
        <ele>257</ele>
        <time>2024-03-28T08:41:27Z</time>
      </trkpt>
      <trkpt lat="44.54341" lon="4.9573">
        <ele>260</ele>
        <time>2024-03-28T08:41:35Z</time>
      </trkpt>
      <trkpt lat="44.54342" lon="4.95733">
        <ele>260</ele>
        <time>2024-03-28T08:41:37Z</time>
      </trkpt>
      <trkpt lat="44.54342" lon="4.95737">
        <ele>259</ele>
        <time>2024-03-28T08:41:40Z</time>
      </trkpt>
      <trkpt lat="44.54345" lon="4.95758">
        <ele>264</ele>
        <time>2024-03-28T08:41:59Z</time>
      </trkpt>
      <trkpt lat="44.5435" lon="4.9578">
        <ele>261</ele>
        <time>2024-03-28T08:42:15Z</time>
      </trkpt>
      <trkpt lat="44.54352" lon="4.95786">
        <ele>260</ele>
        <time>2024-03-28T08:42:19Z</time>
      </trkpt>
      <trkpt lat="44.54354" lon="4.95786">
        <ele>259</ele>
        <time>2024-03-28T08:42:21Z</time>
      </trkpt>
      <trkpt lat="44.54354" lon="4.95789">
        <ele>258</ele>
        <time>2024-03-28T08:42:28Z</time>
      </trkpt>
      <trkpt lat="44.54368" lon="4.95805">
        <ele>257</ele>
        <time>2024-03-28T08:42:44Z</time>
      </trkpt>
      <trkpt lat="44.54397" lon="4.95834">
        <ele>256</ele>
        <time>2024-03-28T08:43:15Z</time>
      </trkpt>
      <trkpt lat="44.5442" lon="4.95856">
        <ele>254</ele>
        <time>2024-03-28T08:43:40Z</time>
      </trkpt>
      <trkpt lat="44.54424" lon="4.95859">
        <ele>254</ele>
        <time>2024-03-28T08:43:44Z</time>
      </trkpt>
      <trkpt lat="44.54434" lon="4.95874">
        <ele>252</ele>
        <time>2024-03-28T08:43:57Z</time>
      </trkpt>
      <trkpt lat="44.54457" lon="4.95915">
        <ele>251</ele>
        <time>2024-03-28T08:44:28Z</time>
      </trkpt>
      <trkpt lat="44.54457" lon="4.95919">
        <ele>251</ele>
        <time>2024-03-28T08:44:30Z</time>
      </trkpt>
      <trkpt lat="44.54456" lon="4.95925">
        <ele>251</ele>
        <time>2024-03-28T08:44:34Z</time>
      </trkpt>
      <trkpt lat="44.54454" lon="4.95928">
        <ele>251</ele>
        <time>2024-03-28T08:44:36Z</time>
      </trkpt>
      <trkpt lat="44.54452" lon="4.9593">
        <ele>252</ele>
        <time>2024-03-28T08:44:38Z</time>
      </trkpt>
      <trkpt lat="44.54448" lon="4.95932">
        <ele>253</ele>
        <time>2024-03-28T08:44:42Z</time>
      </trkpt>
      <trkpt lat="44.54443" lon="4.95933">
        <ele>255</ele>
        <time>2024-03-28T08:44:46Z</time>
      </trkpt>
      <trkpt lat="44.54434" lon="4.95931">
        <ele>259</ele>
        <time>2024-03-28T08:44:52Z</time>
      </trkpt>
      <trkpt lat="44.54432" lon="4.95931">
        <ele>259</ele>
        <time>2024-03-28T08:44:54Z</time>
      </trkpt>
      <trkpt lat="44.54395" lon="4.95927">
        <ele>264</ele>
        <time>2024-03-28T08:45:24Z</time>
      </trkpt>
      <trkpt lat="44.54382" lon="4.95925">
        <ele>265</ele>
        <time>2024-03-28T08:45:35Z</time>
      </trkpt>
      <trkpt lat="44.54379" lon="4.95926">
        <ele>265</ele>
        <time>2024-03-28T08:45:38Z</time>
      </trkpt>
      <trkpt lat="44.54376" lon="4.95925">
        <ele>265</ele>
        <time>2024-03-28T08:45:41Z</time>
      </trkpt>
      <trkpt lat="44.54368" lon="4.95926">
        <ele>264</ele>
        <time>2024-03-28T08:45:48Z</time>
      </trkpt>
      <trkpt lat="44.54365" lon="4.95925">
        <ele>264</ele>
        <time>2024-03-28T08:45:50Z</time>
      </trkpt>
      <trkpt lat="44.54362" lon="4.95925">
        <ele>263</ele>
        <time>2024-03-28T08:45:52Z</time>
      </trkpt>
      <trkpt lat="44.54359" lon="4.95924">
        <ele>263</ele>
        <time>2024-03-28T08:45:55Z</time>
      </trkpt>
      <trkpt lat="44.54357" lon="4.95926">
        <ele>263</ele>
        <time>2024-03-28T08:45:57Z</time>
      </trkpt>
      <trkpt lat="44.54344" lon="4.95926">
        <ele>262</ele>
        <time>2024-03-28T08:46:07Z</time>
      </trkpt>
      <trkpt lat="44.54318" lon="4.95926">
        <ele>261</ele>
        <time>2024-03-28T08:46:28Z</time>
      </trkpt>
      <trkpt lat="44.5431" lon="4.95925">
        <ele>262</ele>
        <time>2024-03-28T08:46:35Z</time>
      </trkpt>
      <trkpt lat="44.5429" lon="4.95921">
        <ele>263</ele>
        <time>2024-03-28T08:46:51Z</time>
      </trkpt>
      <trkpt lat="44.54279" lon="4.95919">
        <ele>265</ele>
        <time>2024-03-28T08:47:01Z</time>
      </trkpt>
      <trkpt lat="44.54249" lon="4.95917">
        <ele>269</ele>
        <time>2024-03-28T08:47:25Z</time>
      </trkpt>
      <trkpt lat="44.54242" lon="4.95918">
        <ele>269</ele>
        <time>2024-03-28T08:47:30Z</time>
      </trkpt>
      <trkpt lat="44.54237" lon="4.95917">
        <ele>269</ele>
        <time>2024-03-28T08:47:35Z</time>
      </trkpt>
      <trkpt lat="44.54234" lon="4.95917">
        <ele>269</ele>
        <time>2024-03-28T08:47:37Z</time>
      </trkpt>
      <trkpt lat="44.54203" lon="4.95913">
        <ele>270</ele>
        <time>2024-03-28T08:48:05Z</time>
      </trkpt>
      <trkpt lat="44.54198" lon="4.95914">
        <ele>270</ele>
        <time>2024-03-28T08:48:09Z</time>
      </trkpt>
      <trkpt lat="44.54193" lon="4.95917">
        <ele>270</ele>
        <time>2024-03-28T08:48:13Z</time>
      </trkpt>
      <trkpt lat="44.54191" lon="4.95919">
        <ele>270</ele>
        <time>2024-03-28T08:48:16Z</time>
      </trkpt>
      <trkpt lat="44.5419" lon="4.95922">
        <ele>270</ele>
        <time>2024-03-28T08:48:18Z</time>
      </trkpt>
      <trkpt lat="44.54188" lon="4.95937">
        <ele>268</ele>
        <time>2024-03-28T08:48:28Z</time>
      </trkpt>
      <trkpt lat="44.54189" lon="4.95947">
        <ele>268</ele>
        <time>2024-03-28T08:48:34Z</time>
      </trkpt>
      <trkpt lat="44.5419" lon="4.95959">
        <ele>268</ele>
        <time>2024-03-28T08:48:41Z</time>
      </trkpt>
      <trkpt lat="44.54188" lon="4.95965">
        <ele>267</ele>
        <time>2024-03-28T08:48:45Z</time>
      </trkpt>
      <trkpt lat="44.54188" lon="4.95968">
        <ele>265</ele>
        <time>2024-03-28T08:48:47Z</time>
      </trkpt>
      <trkpt lat="44.54186" lon="4.95969">
        <ele>265</ele>
        <time>2024-03-28T08:48:49Z</time>
      </trkpt>
      <trkpt lat="44.5418" lon="4.95967">
        <ele>265</ele>
        <time>2024-03-28T08:48:55Z</time>
      </trkpt>
      <trkpt lat="44.5418" lon="4.95965">
        <ele>265</ele>
        <time>2024-03-28T08:49:11Z</time>
      </trkpt>
      <trkpt lat="44.54181" lon="4.95966">
        <ele>265</ele>
        <time>2024-03-28T08:49:39Z</time>
      </trkpt>
      <trkpt lat="44.54179" lon="4.95969">
        <ele>263</ele>
        <time>2024-03-28T08:49:52Z</time>
      </trkpt>
      <trkpt lat="44.54176" lon="4.95971">
        <ele>261</ele>
        <time>2024-03-28T08:49:56Z</time>
      </trkpt>
      <trkpt lat="44.54169" lon="4.95969">
        <ele>260</ele>
        <time>2024-03-28T08:50:02Z</time>
      </trkpt>
      <trkpt lat="44.54165" lon="4.95966">
        <ele>261</ele>
        <time>2024-03-28T08:50:05Z</time>
      </trkpt>
      <trkpt lat="44.54163" lon="4.95966">
        <ele>262</ele>
        <time>2024-03-28T08:50:07Z</time>
      </trkpt>
      <trkpt lat="44.54142" lon="4.95956">
        <ele>265</ele>
        <time>2024-03-28T08:50:29Z</time>
      </trkpt>
      <trkpt lat="44.54139" lon="4.95955">
        <ele>266</ele>
        <time>2024-03-28T08:50:32Z</time>
      </trkpt>
      <trkpt lat="44.54136" lon="4.95954">
        <ele>264</ele>
        <time>2024-03-28T08:50:41Z</time>
      </trkpt>
      <trkpt lat="44.54128" lon="4.95951">
        <ele>263</ele>
        <time>2024-03-28T08:50:50Z</time>
      </trkpt>
      <trkpt lat="44.54125" lon="4.9595">
        <ele>263</ele>
        <time>2024-03-28T08:50:52Z</time>
      </trkpt>
      <trkpt lat="44.54122" lon="4.9595">
        <ele>263</ele>
        <time>2024-03-28T08:50:54Z</time>
      </trkpt>
      <trkpt lat="44.54114" lon="4.9595">
        <ele>261</ele>
        <time>2024-03-28T08:51:02Z</time>
      </trkpt>
      <trkpt lat="44.54106" lon="4.95958">
        <ele>260</ele>
        <time>2024-03-28T08:51:11Z</time>
      </trkpt>
      <trkpt lat="44.54096" lon="4.95977">
        <ele>257</ele>
        <time>2024-03-28T08:51:26Z</time>
      </trkpt>
      <trkpt lat="44.54093" lon="4.95983">
        <ele>256</ele>
        <time>2024-03-28T08:51:30Z</time>
      </trkpt>
      <trkpt lat="44.5409" lon="4.95989">
        <ele>256</ele>
        <time>2024-03-28T08:51:34Z</time>
      </trkpt>
      <trkpt lat="44.5409" lon="4.95993">
        <ele>256</ele>
        <time>2024-03-28T08:51:37Z</time>
      </trkpt>
      <trkpt lat="44.54075" lon="4.96028">
        <ele>253</ele>
        <time>2024-03-28T08:52:05Z</time>
      </trkpt>
      <trkpt lat="44.54074" lon="4.9603">
        <ele>253</ele>
        <time>2024-03-28T08:52:07Z</time>
      </trkpt>
      <trkpt lat="44.54064" lon="4.96053">
        <ele>252</ele>
        <time>2024-03-28T08:52:23Z</time>
      </trkpt>
      <trkpt lat="44.54063" lon="4.96056">
        <ele>253</ele>
        <time>2024-03-28T08:52:25Z</time>
      </trkpt>
      <trkpt lat="44.54057" lon="4.96066">
        <ele>255</ele>
        <time>2024-03-28T08:52:34Z</time>
      </trkpt>
      <trkpt lat="44.54055" lon="4.96068">
        <ele>255</ele>
        <time>2024-03-28T08:52:36Z</time>
      </trkpt>
      <trkpt lat="44.54033" lon="4.96094">
        <ele>253</ele>
        <time>2024-03-28T08:53:01Z</time>
      </trkpt>
      <trkpt lat="44.54025" lon="4.96104">
        <ele>251</ele>
        <time>2024-03-28T08:53:11Z</time>
      </trkpt>
      <trkpt lat="44.54022" lon="4.96105">
        <ele>250</ele>
        <time>2024-03-28T08:53:13Z</time>
      </trkpt>
      <trkpt lat="44.53996" lon="4.96129">
        <ele>251</ele>
        <time>2024-03-28T08:53:43Z</time>
      </trkpt>
      <trkpt lat="44.53994" lon="4.9613">
        <ele>250</ele>
        <time>2024-03-28T08:53:45Z</time>
      </trkpt>
      <trkpt lat="44.5398" lon="4.9614">
        <ele>253</ele>
        <time>2024-03-28T08:54:00Z</time>
      </trkpt>
      <trkpt lat="44.53978" lon="4.96142">
        <ele>252</ele>
        <time>2024-03-28T08:54:02Z</time>
      </trkpt>
      <trkpt lat="44.53975" lon="4.96143">
        <ele>252</ele>
        <time>2024-03-28T08:54:04Z</time>
      </trkpt>
      <trkpt lat="44.53966" lon="4.96151">
        <ele>253</ele>
        <time>2024-03-28T08:54:15Z</time>
      </trkpt>
      <trkpt lat="44.5396" lon="4.96154">
        <ele>252</ele>
        <time>2024-03-28T08:54:20Z</time>
      </trkpt>
      <trkpt lat="44.53952" lon="4.96163">
        <ele>248</ele>
        <time>2024-03-28T08:54:30Z</time>
      </trkpt>
      <trkpt lat="44.53936" lon="4.96173">
        <ele>249</ele>
        <time>2024-03-28T08:54:45Z</time>
      </trkpt>
      <trkpt lat="44.53932" lon="4.96176">
        <ele>249</ele>
        <time>2024-03-28T08:54:50Z</time>
      </trkpt>
      <trkpt lat="44.5393" lon="4.9618">
        <ele>250</ele>
        <time>2024-03-28T08:54:53Z</time>
      </trkpt>
      <trkpt lat="44.53928" lon="4.9618">
        <ele>250</ele>
        <time>2024-03-28T08:54:55Z</time>
      </trkpt>
      <trkpt lat="44.53918" lon="4.96186">
        <ele>249</ele>
        <time>2024-03-28T08:55:05Z</time>
      </trkpt>
      <trkpt lat="44.53917" lon="4.96189">
        <ele>249</ele>
        <time>2024-03-28T08:55:07Z</time>
      </trkpt>
      <trkpt lat="44.53906" lon="4.96194">
        <ele>249</ele>
        <time>2024-03-28T08:55:18Z</time>
      </trkpt>
      <trkpt lat="44.53901" lon="4.96197">
        <ele>248</ele>
        <time>2024-03-28T08:55:22Z</time>
      </trkpt>
      <trkpt lat="44.53871" lon="4.96221">
        <ele>244</ele>
        <time>2024-03-28T08:55:53Z</time>
      </trkpt>
      <trkpt lat="44.53868" lon="4.96222">
        <ele>245</ele>
        <time>2024-03-28T08:55:56Z</time>
      </trkpt>
      <trkpt lat="44.53863" lon="4.9622">
        <ele>246</ele>
        <time>2024-03-28T08:56:00Z</time>
      </trkpt>
      <trkpt lat="44.5386" lon="4.96222">
        <ele>245</ele>
        <time>2024-03-28T08:56:03Z</time>
      </trkpt>
      <trkpt lat="44.53853" lon="4.96219">
        <ele>247</ele>
        <time>2024-03-28T08:56:09Z</time>
      </trkpt>
      <trkpt lat="44.53852" lon="4.96217">
        <ele>247</ele>
        <time>2024-03-28T08:56:21Z</time>
      </trkpt>
      <trkpt lat="44.53853" lon="4.96215">
        <ele>247</ele>
        <time>2024-03-28T08:56:43Z</time>
      </trkpt>
      <trkpt lat="44.53852" lon="4.96209">
        <ele>248</ele>
        <time>2024-03-28T08:56:48Z</time>
      </trkpt>
      <trkpt lat="44.53854" lon="4.96191">
        <ele>247</ele>
        <time>2024-03-28T08:57:00Z</time>
      </trkpt>
      <trkpt lat="44.53855" lon="4.96187">
        <ele>248</ele>
        <time>2024-03-28T08:57:03Z</time>
      </trkpt>
      <trkpt lat="44.53858" lon="4.96185">
        <ele>247</ele>
        <time>2024-03-28T08:57:05Z</time>
      </trkpt>
      <trkpt lat="44.5387" lon="4.96145">
        <ele>245</ele>
        <time>2024-03-28T08:57:35Z</time>
      </trkpt>
      <trkpt lat="44.53873" lon="4.96128">
        <ele>246</ele>
        <time>2024-03-28T08:57:46Z</time>
      </trkpt>
      <trkpt lat="44.53877" lon="4.96105">
        <ele>244</ele>
        <time>2024-03-28T08:58:01Z</time>
      </trkpt>
      <trkpt lat="44.53877" lon="4.961">
        <ele>242</ele>
        <time>2024-03-28T08:58:05Z</time>
      </trkpt>
      <trkpt lat="44.53879" lon="4.96095">
        <ele>242</ele>
        <time>2024-03-28T08:58:08Z</time>
      </trkpt>
      <trkpt lat="44.53881" lon="4.96081">
        <ele>241</ele>
        <time>2024-03-28T08:58:18Z</time>
      </trkpt>
      <trkpt lat="44.53885" lon="4.96071">
        <ele>241</ele>
        <time>2024-03-28T08:58:25Z</time>
      </trkpt>
      <trkpt lat="44.53885" lon="4.96067">
        <ele>240</ele>
        <time>2024-03-28T08:58:28Z</time>
      </trkpt>
      <trkpt lat="44.53887" lon="4.96063">
        <ele>240</ele>
        <time>2024-03-28T08:58:30Z</time>
      </trkpt>
      <trkpt lat="44.53891" lon="4.96053">
        <ele>237</ele>
        <time>2024-03-28T08:58:37Z</time>
      </trkpt>
      <trkpt lat="44.53898" lon="4.96034">
        <ele>237</ele>
        <time>2024-03-28T08:58:51Z</time>
      </trkpt>
      <trkpt lat="44.53897" lon="4.96022">
        <ele>238</ele>
        <time>2024-03-28T08:58:57Z</time>
      </trkpt>
      <trkpt lat="44.53896" lon="4.96019">
        <ele>238</ele>
        <time>2024-03-28T08:58:59Z</time>
      </trkpt>
      <trkpt lat="44.53894" lon="4.96015">
        <ele>237</ele>
        <time>2024-03-28T08:59:01Z</time>
      </trkpt>
      <trkpt lat="44.53887" lon="4.9601">
        <ele>235</ele>
        <time>2024-03-28T08:59:08Z</time>
      </trkpt>
      <trkpt lat="44.53885" lon="4.96008">
        <ele>234</ele>
        <time>2024-03-28T08:59:17Z</time>
      </trkpt>
      <trkpt lat="44.53883" lon="4.96005">
        <ele>234</ele>
        <time>2024-03-28T08:59:20Z</time>
      </trkpt>
      <trkpt lat="44.53877" lon="4.95995">
        <ele>234</ele>
        <time>2024-03-28T08:59:29Z</time>
      </trkpt>
      <trkpt lat="44.53875" lon="4.95994">
        <ele>233</ele>
        <time>2024-03-28T08:59:38Z</time>
      </trkpt>
      <trkpt lat="44.53876" lon="4.95994">
        <ele>231</ele>
        <time>2024-03-28T09:02:22Z</time>
      </trkpt>
      <trkpt lat="44.53878" lon="4.95992">
        <ele>229</ele>
        <time>2024-03-28T09:02:43Z</time>
      </trkpt>
      <trkpt lat="44.53876" lon="4.95991">
        <ele>227</ele>
        <time>2024-03-28T09:02:47Z</time>
      </trkpt>
      <trkpt lat="44.53875" lon="4.95988">
        <ele>227</ele>
        <time>2024-03-28T09:03:02Z</time>
      </trkpt>
      <trkpt lat="44.5387" lon="4.95982">
        <ele>227</ele>
        <time>2024-03-28T09:03:09Z</time>
      </trkpt>
      <trkpt lat="44.53867" lon="4.95978">
        <ele>227</ele>
        <time>2024-03-28T09:03:13Z</time>
      </trkpt>
      <trkpt lat="44.53862" lon="4.9597">
        <ele>227</ele>
        <time>2024-03-28T09:03:19Z</time>
      </trkpt>
      <trkpt lat="44.53852" lon="4.95958">
        <ele>226</ele>
        <time>2024-03-28T09:03:28Z</time>
      </trkpt>
      <trkpt lat="44.53851" lon="4.95955">
        <ele>227</ele>
        <time>2024-03-28T09:03:32Z</time>
      </trkpt>
      <trkpt lat="44.53848" lon="4.95953">
        <ele>228</ele>
        <time>2024-03-28T09:03:36Z</time>
      </trkpt>
      <trkpt lat="44.53829" lon="4.95919">
        <ele>229</ele>
        <time>2024-03-28T09:04:09Z</time>
      </trkpt>
      <trkpt lat="44.53826" lon="4.95916">
        <ele>230</ele>
        <time>2024-03-28T09:04:12Z</time>
      </trkpt>
      <trkpt lat="44.53811" lon="4.95904">
        <ele>230</ele>
        <time>2024-03-28T09:04:26Z</time>
      </trkpt>
      <trkpt lat="44.53804" lon="4.95892">
        <ele>230</ele>
        <time>2024-03-28T09:04:37Z</time>
      </trkpt>
      <trkpt lat="44.53801" lon="4.95888">
        <ele>230</ele>
        <time>2024-03-28T09:04:40Z</time>
      </trkpt>
      <trkpt lat="44.538" lon="4.95884">
        <ele>231</ele>
        <time>2024-03-28T09:04:43Z</time>
      </trkpt>
      <trkpt lat="44.53799" lon="4.95877">
        <ele>230</ele>
        <time>2024-03-28T09:04:48Z</time>
      </trkpt>
      <trkpt lat="44.53801" lon="4.95876">
        <ele>237</ele>
        <time>2024-03-28T09:05:17Z</time>
      </trkpt>
      <trkpt lat="44.538" lon="4.95878">
        <ele>237</ele>
        <time>2024-03-28T09:05:20Z</time>
      </trkpt>
      <trkpt lat="44.53797" lon="4.95879">
        <ele>238</ele>
        <time>2024-03-28T09:05:23Z</time>
      </trkpt>
      <trkpt lat="44.53765" lon="4.95861">
        <ele>239</ele>
        <time>2024-03-28T09:05:50Z</time>
      </trkpt>
      <trkpt lat="44.53756" lon="4.95857">
        <ele>240</ele>
        <time>2024-03-28T09:05:57Z</time>
      </trkpt>
      <trkpt lat="44.5375" lon="4.95852">
        <ele>240</ele>
        <time>2024-03-28T09:06:03Z</time>
      </trkpt>
      <trkpt lat="44.53732" lon="4.95841">
        <ele>240</ele>
        <time>2024-03-28T09:06:20Z</time>
      </trkpt>
      <trkpt lat="44.53698" lon="4.95819">
        <ele>239</ele>
        <time>2024-03-28T09:06:51Z</time>
      </trkpt>
      <trkpt lat="44.53682" lon="4.9581">
        <ele>240</ele>
        <time>2024-03-28T09:07:07Z</time>
      </trkpt>
      <trkpt lat="44.53679" lon="4.95807">
        <ele>239</ele>
        <time>2024-03-28T09:07:10Z</time>
      </trkpt>
      <trkpt lat="44.53661" lon="4.95797">
        <ele>242</ele>
        <time>2024-03-28T09:07:35Z</time>
      </trkpt>
      <trkpt lat="44.53659" lon="4.95795">
        <ele>243</ele>
        <time>2024-03-28T09:07:39Z</time>
      </trkpt>
      <trkpt lat="44.53656" lon="4.95794">
        <ele>243</ele>
        <time>2024-03-28T09:07:44Z</time>
      </trkpt>
      <trkpt lat="44.53653" lon="4.95791">
        <ele>244</ele>
        <time>2024-03-28T09:07:49Z</time>
      </trkpt>
      <trkpt lat="44.53652" lon="4.95786">
        <ele>244</ele>
        <time>2024-03-28T09:08:02Z</time>
      </trkpt>
      <trkpt lat="44.53645" lon="4.95777">
        <ele>244</ele>
        <time>2024-03-28T09:08:13Z</time>
      </trkpt>
      <trkpt lat="44.53642" lon="4.95774">
        <ele>246</ele>
        <time>2024-03-28T09:08:18Z</time>
      </trkpt>
      <trkpt lat="44.53636" lon="4.95772">
        <ele>246</ele>
        <time>2024-03-28T09:08:24Z</time>
      </trkpt>
      <trkpt lat="44.53632" lon="4.95771">
        <ele>247</ele>
        <time>2024-03-28T09:08:29Z</time>
      </trkpt>
      <trkpt lat="44.5362" lon="4.95766">
        <ele>248</ele>
        <time>2024-03-28T09:08:48Z</time>
      </trkpt>
      <trkpt lat="44.53617" lon="4.95762">
        <ele>248</ele>
        <time>2024-03-28T09:08:55Z</time>
      </trkpt>
      <trkpt lat="44.53612" lon="4.9576">
        <ele>249</ele>
        <time>2024-03-28T09:09:00Z</time>
      </trkpt>
      <trkpt lat="44.53608" lon="4.95759">
        <ele>252</ele>
        <time>2024-03-28T09:09:11Z</time>
      </trkpt>
      <trkpt lat="44.53599" lon="4.95755">
        <ele>255</ele>
        <time>2024-03-28T09:09:25Z</time>
      </trkpt>
      <trkpt lat="44.5359" lon="4.95743">
        <ele>255</ele>
        <time>2024-03-28T09:09:40Z</time>
      </trkpt>
      <trkpt lat="44.53586" lon="4.95742">
        <ele>256</ele>
        <time>2024-03-28T09:09:46Z</time>
      </trkpt>
      <trkpt lat="44.53582" lon="4.95738">
        <ele>256</ele>
        <time>2024-03-28T09:09:52Z</time>
      </trkpt>
      <trkpt lat="44.53577" lon="4.9574">
        <ele>258</ele>
        <time>2024-03-28T09:09:58Z</time>
      </trkpt>
      <trkpt lat="44.53572" lon="4.95741">
        <ele>260</ele>
        <time>2024-03-28T09:10:05Z</time>
      </trkpt>
      <trkpt lat="44.53569" lon="4.95743">
        <ele>262</ele>
        <time>2024-03-28T09:10:13Z</time>
      </trkpt>
      <trkpt lat="44.53566" lon="4.95748">
        <ele>264</ele>
        <time>2024-03-28T09:10:20Z</time>
      </trkpt>
      <trkpt lat="44.53562" lon="4.95751">
        <ele>265</ele>
        <time>2024-03-28T09:10:30Z</time>
      </trkpt>
      <trkpt lat="44.53557" lon="4.9575">
        <ele>268</ele>
        <time>2024-03-28T09:10:36Z</time>
      </trkpt>
      <trkpt lat="44.53553" lon="4.95752">
        <ele>269</ele>
        <time>2024-03-28T09:10:41Z</time>
      </trkpt>
      <trkpt lat="44.53548" lon="4.95751">
        <ele>270</ele>
        <time>2024-03-28T09:10:45Z</time>
      </trkpt>
      <trkpt lat="44.53545" lon="4.95754">
        <ele>270</ele>
        <time>2024-03-28T09:10:49Z</time>
      </trkpt>
      <trkpt lat="44.53546" lon="4.95761">
        <ele>270</ele>
        <time>2024-03-28T09:10:54Z</time>
      </trkpt>
      <trkpt lat="44.53544" lon="4.95766">
        <ele>269</ele>
        <time>2024-03-28T09:10:58Z</time>
      </trkpt>
      <trkpt lat="44.53541" lon="4.9577">
        <ele>269</ele>
        <time>2024-03-28T09:11:08Z</time>
      </trkpt>
      <trkpt lat="44.53539" lon="4.95776">
        <ele>271</ele>
        <time>2024-03-28T09:11:15Z</time>
      </trkpt>
      <trkpt lat="44.53537" lon="4.95781">
        <ele>272</ele>
        <time>2024-03-28T09:11:21Z</time>
      </trkpt>
      <trkpt lat="44.53534" lon="4.95785">
        <ele>272</ele>
        <time>2024-03-28T09:11:28Z</time>
      </trkpt>
      <trkpt lat="44.53526" lon="4.95792">
        <ele>274</ele>
        <time>2024-03-28T09:11:42Z</time>
      </trkpt>
      <trkpt lat="44.53523" lon="4.95794">
        <ele>274</ele>
        <time>2024-03-28T09:11:46Z</time>
      </trkpt>
      <trkpt lat="44.53517" lon="4.95798">
        <ele>274</ele>
        <time>2024-03-28T09:11:54Z</time>
      </trkpt>
      <trkpt lat="44.53514" lon="4.95811">
        <ele>277</ele>
        <time>2024-03-28T09:12:08Z</time>
      </trkpt>
      <trkpt lat="44.5351" lon="4.95816">
        <ele>278</ele>
        <time>2024-03-28T09:12:15Z</time>
      </trkpt>
      <trkpt lat="44.53506" lon="4.95815">
        <ele>280</ele>
        <time>2024-03-28T09:12:20Z</time>
      </trkpt>
      <trkpt lat="44.53502" lon="4.95818">
        <ele>281</ele>
        <time>2024-03-28T09:12:25Z</time>
      </trkpt>
      <trkpt lat="44.53499" lon="4.9583">
        <ele>283</ele>
        <time>2024-03-28T09:12:41Z</time>
      </trkpt>
      <trkpt lat="44.5349" lon="4.95842">
        <ele>284</ele>
        <time>2024-03-28T09:12:54Z</time>
      </trkpt>
      <trkpt lat="44.53487" lon="4.95846">
        <ele>285</ele>
        <time>2024-03-28T09:13:01Z</time>
      </trkpt>
      <trkpt lat="44.53486" lon="4.95852">
        <ele>288</ele>
        <time>2024-03-28T09:13:10Z</time>
      </trkpt>
      <trkpt lat="44.53482" lon="4.95855">
        <ele>288</ele>
        <time>2024-03-28T09:13:16Z</time>
      </trkpt>
      <trkpt lat="44.5348" lon="4.95861">
        <ele>288</ele>
        <time>2024-03-28T09:13:21Z</time>
      </trkpt>
      <trkpt lat="44.53478" lon="4.95862">
        <ele>287</ele>
        <time>2024-03-28T09:13:42Z</time>
      </trkpt>
      <trkpt lat="44.53479" lon="4.95856">
        <ele>290</ele>
        <time>2024-03-28T09:13:50Z</time>
      </trkpt>
      <trkpt lat="44.53479" lon="4.95844">
        <ele>295</ele>
        <time>2024-03-28T09:14:00Z</time>
      </trkpt>
      <trkpt lat="44.53476" lon="4.95841">
        <ele>295</ele>
        <time>2024-03-28T09:14:05Z</time>
      </trkpt>
      <trkpt lat="44.53476" lon="4.95834">
        <ele>294</ele>
        <time>2024-03-28T09:14:10Z</time>
      </trkpt>
      <trkpt lat="44.53477" lon="4.95827">
        <ele>295</ele>
        <time>2024-03-28T09:14:15Z</time>
      </trkpt>
      <trkpt lat="44.53472" lon="4.95822">
        <ele>295</ele>
        <time>2024-03-28T09:14:23Z</time>
      </trkpt>
      <trkpt lat="44.53471" lon="4.95816">
        <ele>294</ele>
        <time>2024-03-28T09:14:28Z</time>
      </trkpt>
      <trkpt lat="44.53471" lon="4.95809">
        <ele>295</ele>
        <time>2024-03-28T09:14:35Z</time>
      </trkpt>
      <trkpt lat="44.53469" lon="4.95797">
        <ele>300</ele>
        <time>2024-03-28T09:14:50Z</time>
      </trkpt>
      <trkpt lat="44.53464" lon="4.95775">
        <ele>303</ele>
        <time>2024-03-28T09:15:14Z</time>
      </trkpt>
      <trkpt lat="44.53454" lon="4.95748">
        <ele>306</ele>
        <time>2024-03-28T09:15:42Z</time>
      </trkpt>
      <trkpt lat="44.53452" lon="4.95744">
        <ele>306</ele>
        <time>2024-03-28T09:15:47Z</time>
      </trkpt>
      <trkpt lat="44.5345" lon="4.95739">
        <ele>307</ele>
        <time>2024-03-28T09:15:52Z</time>
      </trkpt>
      <trkpt lat="44.53449" lon="4.95733">
        <ele>307</ele>
        <time>2024-03-28T09:16:00Z</time>
      </trkpt>
      <trkpt lat="44.5345" lon="4.9572">
        <ele>312</ele>
        <time>2024-03-28T09:16:11Z</time>
      </trkpt>
      <trkpt lat="44.53448" lon="4.95715">
        <ele>312</ele>
        <time>2024-03-28T09:16:16Z</time>
      </trkpt>
      <trkpt lat="44.53443" lon="4.95705">
        <ele>312</ele>
        <time>2024-03-28T09:16:26Z</time>
      </trkpt>
      <trkpt lat="44.53442" lon="4.95701">
        <ele>314</ele>
        <time>2024-03-28T09:16:30Z</time>
      </trkpt>
      <trkpt lat="44.5344" lon="4.95696">
        <ele>315</ele>
        <time>2024-03-28T09:16:33Z</time>
      </trkpt>
      <trkpt lat="44.53435" lon="4.95692">
        <ele>314</ele>
        <time>2024-03-28T09:16:38Z</time>
      </trkpt>
      <trkpt lat="44.53433" lon="4.95685">
        <ele>315</ele>
        <time>2024-03-28T09:16:47Z</time>
      </trkpt>
      <trkpt lat="44.53432" lon="4.95671">
        <ele>314</ele>
        <time>2024-03-28T09:17:00Z</time>
      </trkpt>
      <trkpt lat="44.53435" lon="4.95658">
        <ele>315</ele>
        <time>2024-03-28T09:17:11Z</time>
      </trkpt>
      <trkpt lat="44.53433" lon="4.95653">
        <ele>315</ele>
        <time>2024-03-28T09:17:15Z</time>
      </trkpt>
      <trkpt lat="44.53431" lon="4.95647">
        <ele>315</ele>
        <time>2024-03-28T09:17:19Z</time>
      </trkpt>
      <trkpt lat="44.53429" lon="4.95642">
        <ele>315</ele>
        <time>2024-03-28T09:17:24Z</time>
      </trkpt>
      <trkpt lat="44.5343" lon="4.9563">
        <ele>317</ele>
        <time>2024-03-28T09:17:35Z</time>
      </trkpt>
      <trkpt lat="44.5343" lon="4.95624">
        <ele>318</ele>
        <time>2024-03-28T09:17:39Z</time>
      </trkpt>
      <trkpt lat="44.53428" lon="4.95617">
        <ele>319</ele>
        <time>2024-03-28T09:17:45Z</time>
      </trkpt>
      <trkpt lat="44.53428" lon="4.95609">
        <ele>319</ele>
        <time>2024-03-28T09:17:52Z</time>
      </trkpt>
      <trkpt lat="44.53429" lon="4.95603">
        <ele>319</ele>
        <time>2024-03-28T09:17:59Z</time>
      </trkpt>
      <trkpt lat="44.53431" lon="4.95598">
        <ele>321</ele>
        <time>2024-03-28T09:18:03Z</time>
      </trkpt>
      <trkpt lat="44.5343" lon="4.95593">
        <ele>321</ele>
        <time>2024-03-28T09:18:07Z</time>
      </trkpt>
      <trkpt lat="44.53426" lon="4.9559">
        <ele>321</ele>
        <time>2024-03-28T09:18:11Z</time>
      </trkpt>
      <trkpt lat="44.53423" lon="4.95588">
        <ele>321</ele>
        <time>2024-03-28T09:18:15Z</time>
      </trkpt>
      <trkpt lat="44.53421" lon="4.95593">
        <ele>322</ele>
        <time>2024-03-28T09:18:23Z</time>
      </trkpt>
      <trkpt lat="44.53419" lon="4.95598">
        <ele>322</ele>
        <time>2024-03-28T09:18:28Z</time>
      </trkpt>
      <trkpt lat="44.53418" lon="4.95608">
        <ele>324</ele>
        <time>2024-03-28T09:18:40Z</time>
      </trkpt>
      <trkpt lat="44.53418" lon="4.95613">
        <ele>324</ele>
        <time>2024-03-28T09:18:44Z</time>
      </trkpt>
      <trkpt lat="44.53418" lon="4.95618">
        <ele>325</ele>
        <time>2024-03-28T09:18:48Z</time>
      </trkpt>
      <trkpt lat="44.53415" lon="4.95629">
        <ele>326</ele>
        <time>2024-03-28T09:18:57Z</time>
      </trkpt>
      <trkpt lat="44.53413" lon="4.95633">
        <ele>327</ele>
        <time>2024-03-28T09:19:00Z</time>
      </trkpt>
      <trkpt lat="44.53415" lon="4.95639">
        <ele>327</ele>
        <time>2024-03-28T09:19:07Z</time>
      </trkpt>
      <trkpt lat="44.53413" lon="4.95648">
        <ele>328</ele>
        <time>2024-03-28T09:19:14Z</time>
      </trkpt>
      <trkpt lat="44.53412" lon="4.95658">
        <ele>329</ele>
        <time>2024-03-28T09:19:22Z</time>
      </trkpt>
      <trkpt lat="44.53412" lon="4.95663">
        <ele>329</ele>
        <time>2024-03-28T09:19:26Z</time>
      </trkpt>
      <trkpt lat="44.5341" lon="4.95672">
        <ele>329</ele>
        <time>2024-03-28T09:19:31Z</time>
      </trkpt>
      <trkpt lat="44.53404" lon="4.95682">
        <ele>330</ele>
        <time>2024-03-28T09:19:38Z</time>
      </trkpt>
      <trkpt lat="44.53405" lon="4.95688">
        <ele>330</ele>
        <time>2024-03-28T09:19:41Z</time>
      </trkpt>
      <trkpt lat="44.53406" lon="4.95695">
        <ele>332</ele>
        <time>2024-03-28T09:19:46Z</time>
      </trkpt>
      <trkpt lat="44.53404" lon="4.957">
        <ele>333</ele>
        <time>2024-03-28T09:19:49Z</time>
      </trkpt>
      <trkpt lat="44.53404" lon="4.95706">
        <ele>333</ele>
        <time>2024-03-28T09:19:52Z</time>
      </trkpt>
      <trkpt lat="44.53403" lon="4.95711">
        <ele>333</ele>
        <time>2024-03-28T09:19:57Z</time>
      </trkpt>
      <trkpt lat="44.53402" lon="4.95716">
        <ele>333</ele>
        <time>2024-03-28T09:20:00Z</time>
      </trkpt>
      <trkpt lat="44.53402" lon="4.95722">
        <ele>333</ele>
        <time>2024-03-28T09:20:03Z</time>
      </trkpt>
      <trkpt lat="44.53401" lon="4.95728">
        <ele>333</ele>
        <time>2024-03-28T09:20:08Z</time>
      </trkpt>
      <trkpt lat="44.534" lon="4.95733">
        <ele>333</ele>
        <time>2024-03-28T09:20:13Z</time>
      </trkpt>
      <trkpt lat="44.53398" lon="4.95739">
        <ele>332</ele>
        <time>2024-03-28T09:20:17Z</time>
      </trkpt>
      <trkpt lat="44.53399" lon="4.95754">
        <ele>332</ele>
        <time>2024-03-28T09:20:25Z</time>
      </trkpt>
      <trkpt lat="44.53399" lon="4.95761">
        <ele>333</ele>
        <time>2024-03-28T09:20:31Z</time>
      </trkpt>
      <trkpt lat="44.534" lon="4.95768">
        <ele>334</ele>
        <time>2024-03-28T09:20:39Z</time>
      </trkpt>
      <trkpt lat="44.53398" lon="4.95774">
        <ele>336</ele>
        <time>2024-03-28T09:20:50Z</time>
      </trkpt>
      <trkpt lat="44.53397" lon="4.95782">
        <ele>341</ele>
        <time>2024-03-28T09:20:57Z</time>
      </trkpt>
      <trkpt lat="44.53398" lon="4.95789">
        <ele>342</ele>
        <time>2024-03-28T09:21:01Z</time>
      </trkpt>
      <trkpt lat="44.53397" lon="4.95815">
        <ele>341</ele>
        <time>2024-03-28T09:21:18Z</time>
      </trkpt>
      <trkpt lat="44.53396" lon="4.95821">
        <ele>341</ele>
        <time>2024-03-28T09:21:23Z</time>
      </trkpt>
      <trkpt lat="44.53395" lon="4.95827">
        <ele>343</ele>
        <time>2024-03-28T09:21:29Z</time>
      </trkpt>
      <trkpt lat="44.53392" lon="4.95832">
        <ele>343</ele>
        <time>2024-03-28T09:21:38Z</time>
      </trkpt>
      <trkpt lat="44.53391" lon="4.95838">
        <ele>342</ele>
        <time>2024-03-28T09:21:47Z</time>
      </trkpt>
      <trkpt lat="44.5339" lon="4.95846">
        <ele>341</ele>
        <time>2024-03-28T09:21:55Z</time>
      </trkpt>
      <trkpt lat="44.53387" lon="4.95852">
        <ele>343</ele>
        <time>2024-03-28T09:22:04Z</time>
      </trkpt>
      <trkpt lat="44.53384" lon="4.95855">
        <ele>344</ele>
        <time>2024-03-28T09:22:10Z</time>
      </trkpt>
      <trkpt lat="44.53383" lon="4.9586">
        <ele>345</ele>
        <time>2024-03-28T09:22:14Z</time>
      </trkpt>
      <trkpt lat="44.53381" lon="4.95866">
        <ele>346</ele>
        <time>2024-03-28T09:22:20Z</time>
      </trkpt>
      <trkpt lat="44.53381" lon="4.95871">
        <ele>350</ele>
        <time>2024-03-28T09:22:26Z</time>
      </trkpt>
      <trkpt lat="44.53377" lon="4.95876">
        <ele>350</ele>
        <time>2024-03-28T09:22:35Z</time>
      </trkpt>
      <trkpt lat="44.53376" lon="4.95882">
        <ele>349</ele>
        <time>2024-03-28T09:22:40Z</time>
      </trkpt>
      <trkpt lat="44.53375" lon="4.95888">
        <ele>350</ele>
        <time>2024-03-28T09:22:47Z</time>
      </trkpt>
      <trkpt lat="44.53373" lon="4.95894">
        <ele>351</ele>
        <time>2024-03-28T09:22:52Z</time>
      </trkpt>
      <trkpt lat="44.53374" lon="4.95899">
        <ele>351</ele>
        <time>2024-03-28T09:22:58Z</time>
      </trkpt>
      <trkpt lat="44.53377" lon="4.95905">
        <ele>352</ele>
        <time>2024-03-28T09:23:03Z</time>
      </trkpt>
      <trkpt lat="44.5338" lon="4.95912">
        <ele>357</ele>
        <time>2024-03-28T09:23:16Z</time>
      </trkpt>
      <trkpt lat="44.53378" lon="4.95913">
        <ele>358</ele>
        <time>2024-03-28T09:23:32Z</time>
      </trkpt>
      <trkpt lat="44.53378" lon="4.95916">
        <ele>358</ele>
        <time>2024-03-28T09:23:55Z</time>
      </trkpt>
      <trkpt lat="44.53375" lon="4.95917">
        <ele>358</ele>
        <time>2024-03-28T09:25:05Z</time>
      </trkpt>
      <trkpt lat="44.53375" lon="4.95922">
        <ele>358</ele>
        <time>2024-03-28T09:26:12Z</time>
      </trkpt>
      <trkpt lat="44.53374" lon="4.95926">
        <ele>357</ele>
        <time>2024-03-28T09:26:16Z</time>
      </trkpt>
      <trkpt lat="44.53374" lon="4.95932">
        <ele>358</ele>
        <time>2024-03-28T09:26:20Z</time>
      </trkpt>
      <trkpt lat="44.53374" lon="4.95938">
        <ele>357</ele>
        <time>2024-03-28T09:26:27Z</time>
      </trkpt>
      <trkpt lat="44.53373" lon="4.95943">
        <ele>357</ele>
        <time>2024-03-28T09:26:31Z</time>
      </trkpt>
      <trkpt lat="44.5337" lon="4.95951">
        <ele>358</ele>
        <time>2024-03-28T09:26:38Z</time>
      </trkpt>
      <trkpt lat="44.53366" lon="4.95954">
        <ele>357</ele>
        <time>2024-03-28T09:26:42Z</time>
      </trkpt>
      <trkpt lat="44.53363" lon="4.95958">
        <ele>357</ele>
        <time>2024-03-28T09:26:45Z</time>
      </trkpt>
      <trkpt lat="44.53359" lon="4.95964">
        <ele>357</ele>
        <time>2024-03-28T09:26:50Z</time>
      </trkpt>
      <trkpt lat="44.53355" lon="4.95969">
        <ele>357</ele>
        <time>2024-03-28T09:26:55Z</time>
      </trkpt>
      <trkpt lat="44.53346" lon="4.95973">
        <ele>358</ele>
        <time>2024-03-28T09:27:04Z</time>
      </trkpt>
      <trkpt lat="44.53342" lon="4.95972">
        <ele>359</ele>
        <time>2024-03-28T09:27:08Z</time>
      </trkpt>
      <trkpt lat="44.53331" lon="4.95974">
        <ele>358</ele>
        <time>2024-03-28T09:27:18Z</time>
      </trkpt>
      <trkpt lat="44.53318" lon="4.95967">
        <ele>359</ele>
        <time>2024-03-28T09:27:33Z</time>
      </trkpt>
      <trkpt lat="44.53314" lon="4.95965">
        <ele>359</ele>
        <time>2024-03-28T09:27:38Z</time>
      </trkpt>
      <trkpt lat="44.53304" lon="4.95959">
        <ele>360</ele>
        <time>2024-03-28T09:27:49Z</time>
      </trkpt>
      <trkpt lat="44.53299" lon="4.95956">
        <ele>362</ele>
        <time>2024-03-28T09:27:52Z</time>
      </trkpt>
      <trkpt lat="44.53291" lon="4.95952">
        <ele>364</ele>
        <time>2024-03-28T09:28:01Z</time>
      </trkpt>
      <trkpt lat="44.53287" lon="4.95949">
        <ele>364</ele>
        <time>2024-03-28T09:28:05Z</time>
      </trkpt>
      <trkpt lat="44.53283" lon="4.95946">
        <ele>365</ele>
        <time>2024-03-28T09:28:10Z</time>
      </trkpt>
      <trkpt lat="44.53278" lon="4.95943">
        <ele>365</ele>
        <time>2024-03-28T09:28:15Z</time>
      </trkpt>
      <trkpt lat="44.53276" lon="4.95938">
        <ele>365</ele>
        <time>2024-03-28T09:28:21Z</time>
      </trkpt>
      <trkpt lat="44.53272" lon="4.95935">
        <ele>365</ele>
        <time>2024-03-28T09:28:23Z</time>
      </trkpt>
      <trkpt lat="44.53268" lon="4.95932">
        <ele>364</ele>
        <time>2024-03-28T09:28:28Z</time>
      </trkpt>
      <trkpt lat="44.53264" lon="4.9593">
        <ele>366</ele>
        <time>2024-03-28T09:28:32Z</time>
      </trkpt>
      <trkpt lat="44.53261" lon="4.9593">
        <ele>366</ele>
        <time>2024-03-28T09:28:36Z</time>
      </trkpt>
      <trkpt lat="44.53254" lon="4.95924">
        <ele>367</ele>
        <time>2024-03-28T09:28:45Z</time>
      </trkpt>
      <trkpt lat="44.5325" lon="4.95921">
        <ele>369</ele>
        <time>2024-03-28T09:28:49Z</time>
      </trkpt>
      <trkpt lat="44.53238" lon="4.95908">
        <ele>370</ele>
        <time>2024-03-28T09:29:07Z</time>
      </trkpt>
      <trkpt lat="44.53235" lon="4.95905">
        <ele>370</ele>
        <time>2024-03-28T09:29:10Z</time>
      </trkpt>
      <trkpt lat="44.5323" lon="4.95902">
        <ele>369</ele>
        <time>2024-03-28T09:29:15Z</time>
      </trkpt>
      <trkpt lat="44.53225" lon="4.959">
        <ele>370</ele>
        <time>2024-03-28T09:29:22Z</time>
      </trkpt>
      <trkpt lat="44.53209" lon="4.95884">
        <ele>374</ele>
        <time>2024-03-28T09:29:43Z</time>
      </trkpt>
      <trkpt lat="44.53196" lon="4.95872">
        <ele>375</ele>
        <time>2024-03-28T09:29:59Z</time>
      </trkpt>
      <trkpt lat="44.53188" lon="4.95867">
        <ele>377</ele>
        <time>2024-03-28T09:30:10Z</time>
      </trkpt>
      <trkpt lat="44.53187" lon="4.95862">
        <ele>378</ele>
        <time>2024-03-28T09:30:15Z</time>
      </trkpt>
      <trkpt lat="44.53179" lon="4.95855">
        <ele>376</ele>
        <time>2024-03-28T09:30:27Z</time>
      </trkpt>
      <trkpt lat="44.53175" lon="4.95852">
        <ele>377</ele>
        <time>2024-03-28T09:30:34Z</time>
      </trkpt>
      <trkpt lat="44.53172" lon="4.95846">
        <ele>377</ele>
        <time>2024-03-28T09:30:40Z</time>
      </trkpt>
      <trkpt lat="44.53169" lon="4.95843">
        <ele>378</ele>
        <time>2024-03-28T09:30:45Z</time>
      </trkpt>
      <trkpt lat="44.53165" lon="4.95839">
        <ele>379</ele>
        <time>2024-03-28T09:30:50Z</time>
      </trkpt>
      <trkpt lat="44.53161" lon="4.95835">
        <ele>380</ele>
        <time>2024-03-28T09:30:55Z</time>
      </trkpt>
      <trkpt lat="44.53158" lon="4.95831">
        <ele>381</ele>
        <time>2024-03-28T09:31:00Z</time>
      </trkpt>
      <trkpt lat="44.53152" lon="4.95818">
        <ele>385</ele>
        <time>2024-03-28T09:31:15Z</time>
      </trkpt>
      <trkpt lat="44.53149" lon="4.95815">
        <ele>385</ele>
        <time>2024-03-28T09:31:18Z</time>
      </trkpt>
      <trkpt lat="44.53145" lon="4.9581">
        <ele>385</ele>
        <time>2024-03-28T09:31:23Z</time>
      </trkpt>
      <trkpt lat="44.53143" lon="4.95803">
        <ele>383</ele>
        <time>2024-03-28T09:31:30Z</time>
      </trkpt>
      <trkpt lat="44.5314" lon="4.95799">
        <ele>383</ele>
        <time>2024-03-28T09:31:35Z</time>
      </trkpt>
      <trkpt lat="44.53137" lon="4.95794">
        <ele>385</ele>
        <time>2024-03-28T09:31:41Z</time>
      </trkpt>
      <trkpt lat="44.53133" lon="4.95789">
        <ele>385</ele>
        <time>2024-03-28T09:31:48Z</time>
      </trkpt>
      <trkpt lat="44.53131" lon="4.95782">
        <ele>387</ele>
        <time>2024-03-28T09:31:55Z</time>
      </trkpt>
      <trkpt lat="44.53127" lon="4.95778">
        <ele>386</ele>
        <time>2024-03-28T09:32:01Z</time>
      </trkpt>
      <trkpt lat="44.53126" lon="4.95772">
        <ele>385</ele>
        <time>2024-03-28T09:32:06Z</time>
      </trkpt>
      <trkpt lat="44.53125" lon="4.95766">
        <ele>386</ele>
        <time>2024-03-28T09:32:11Z</time>
      </trkpt>
      <trkpt lat="44.53122" lon="4.95762">
        <ele>388</ele>
        <time>2024-03-28T09:32:15Z</time>
      </trkpt>
      <trkpt lat="44.53122" lon="4.95747">
        <ele>389</ele>
        <time>2024-03-28T09:32:28Z</time>
      </trkpt>
      <trkpt lat="44.5311" lon="4.9573">
        <ele>393</ele>
        <time>2024-03-28T09:32:45Z</time>
      </trkpt>
      <trkpt lat="44.5311" lon="4.95725">
        <ele>394</ele>
        <time>2024-03-28T09:32:49Z</time>
      </trkpt>
      <trkpt lat="44.53107" lon="4.9572">
        <ele>396</ele>
        <time>2024-03-28T09:32:55Z</time>
      </trkpt>
      <trkpt lat="44.53105" lon="4.95716">
        <ele>396</ele>
        <time>2024-03-28T09:32:59Z</time>
      </trkpt>
      <trkpt lat="44.53105" lon="4.95705">
        <ele>398</ele>
        <time>2024-03-28T09:33:10Z</time>
      </trkpt>
      <trkpt lat="44.53105" lon="4.957">
        <ele>399</ele>
        <time>2024-03-28T09:33:15Z</time>
      </trkpt>
      <trkpt lat="44.53105" lon="4.95694">
        <ele>399</ele>
        <time>2024-03-28T09:33:18Z</time>
      </trkpt>
      <trkpt lat="44.53105" lon="4.95689">
        <ele>400</ele>
        <time>2024-03-28T09:33:21Z</time>
      </trkpt>
      <trkpt lat="44.53104" lon="4.95684">
        <ele>401</ele>
        <time>2024-03-28T09:33:24Z</time>
      </trkpt>
      <trkpt lat="44.53102" lon="4.9568">
        <ele>402</ele>
        <time>2024-03-28T09:33:29Z</time>
      </trkpt>
      <trkpt lat="44.53104" lon="4.95676">
        <ele>403</ele>
        <time>2024-03-28T09:33:32Z</time>
      </trkpt>
      <trkpt lat="44.53103" lon="4.95671">
        <ele>404</ele>
        <time>2024-03-28T09:33:38Z</time>
      </trkpt>
      <trkpt lat="44.53101" lon="4.95663">
        <ele>405</ele>
        <time>2024-03-28T09:33:45Z</time>
      </trkpt>
      <trkpt lat="44.53098" lon="4.9565">
        <ele>406</ele>
        <time>2024-03-28T09:33:55Z</time>
      </trkpt>
      <trkpt lat="44.53091" lon="4.95633">
        <ele>405</ele>
        <time>2024-03-28T09:34:07Z</time>
      </trkpt>
      <trkpt lat="44.53085" lon="4.95624">
        <ele>408</ele>
        <time>2024-03-28T09:34:16Z</time>
      </trkpt>
      <trkpt lat="44.53078" lon="4.95619">
        <ele>412</ele>
        <time>2024-03-28T09:34:25Z</time>
      </trkpt>
      <trkpt lat="44.5307" lon="4.95609">
        <ele>416</ele>
        <time>2024-03-28T09:34:35Z</time>
      </trkpt>
      <trkpt lat="44.53067" lon="4.95605">
        <ele>417</ele>
        <time>2024-03-28T09:34:40Z</time>
      </trkpt>
      <trkpt lat="44.53064" lon="4.95602">
        <ele>418</ele>
        <time>2024-03-28T09:34:45Z</time>
      </trkpt>
      <trkpt lat="44.53052" lon="4.95595">
        <ele>418</ele>
        <time>2024-03-28T09:34:58Z</time>
      </trkpt>
      <trkpt lat="44.53046" lon="4.95591">
        <ele>418</ele>
        <time>2024-03-28T09:35:05Z</time>
      </trkpt>
      <trkpt lat="44.53034" lon="4.95579">
        <ele>418</ele>
        <time>2024-03-28T09:35:15Z</time>
      </trkpt>
      <trkpt lat="44.53031" lon="4.95574">
        <ele>418</ele>
        <time>2024-03-28T09:35:20Z</time>
      </trkpt>
      <trkpt lat="44.5303" lon="4.9557">
        <ele>417</ele>
        <time>2024-03-28T09:35:23Z</time>
      </trkpt>
      <trkpt lat="44.53029" lon="4.95565">
        <ele>418</ele>
        <time>2024-03-28T09:35:33Z</time>
      </trkpt>
      <trkpt lat="44.53028" lon="4.95558">
        <ele>418</ele>
        <time>2024-03-28T09:35:37Z</time>
      </trkpt>
      <trkpt lat="44.53029" lon="4.9555">
        <ele>418</ele>
        <time>2024-03-28T09:35:43Z</time>
      </trkpt>
      <trkpt lat="44.53029" lon="4.95548">
        <ele>421</ele>
        <time>2024-03-28T09:35:57Z</time>
      </trkpt>
      <trkpt lat="44.53031" lon="4.95548">
        <ele>423</ele>
        <time>2024-03-28T09:36:59Z</time>
      </trkpt>
      <trkpt lat="44.53032" lon="4.95546">
        <ele>422</ele>
        <time>2024-03-28T09:37:14Z</time>
      </trkpt>
      <trkpt lat="44.53031" lon="4.95544">
        <ele>422</ele>
        <time>2024-03-28T09:38:14Z</time>
      </trkpt>
      <trkpt lat="44.53029" lon="4.95542">
        <ele>422</ele>
        <time>2024-03-28T09:38:36Z</time>
      </trkpt>
      <trkpt lat="44.53027" lon="4.95541">
        <ele>421</ele>
        <time>2024-03-28T09:38:41Z</time>
      </trkpt>
      <trkpt lat="44.53026" lon="4.95546">
        <ele>421</ele>
        <time>2024-03-28T09:38:45Z</time>
      </trkpt>
      <trkpt lat="44.53026" lon="4.95551">
        <ele>422</ele>
        <time>2024-03-28T09:38:48Z</time>
      </trkpt>
      <trkpt lat="44.53027" lon="4.95555">
        <ele>422</ele>
        <time>2024-03-28T09:38:51Z</time>
      </trkpt>
      <trkpt lat="44.53027" lon="4.95558">
        <ele>422</ele>
        <time>2024-03-28T09:39:08Z</time>
      </trkpt>
      <trkpt lat="44.53029" lon="4.95556">
        <ele>422</ele>
        <time>2024-03-28T09:39:31Z</time>
      </trkpt>
      <trkpt lat="44.53034" lon="4.95549">
        <ele>421</ele>
        <time>2024-03-28T09:39:38Z</time>
      </trkpt>
      <trkpt lat="44.5304" lon="4.95542">
        <ele>422</ele>
        <time>2024-03-28T09:39:45Z</time>
      </trkpt>
      <trkpt lat="44.53041" lon="4.95539">
        <ele>423</ele>
        <time>2024-03-28T09:39:48Z</time>
      </trkpt>
      <trkpt lat="44.53041" lon="4.95533">
        <ele>423</ele>
        <time>2024-03-28T09:39:51Z</time>
      </trkpt>
      <trkpt lat="44.53039" lon="4.95524">
        <ele>422</ele>
        <time>2024-03-28T09:39:57Z</time>
      </trkpt>
      <trkpt lat="44.53042" lon="4.95523">
        <ele>421</ele>
        <time>2024-03-28T09:40:17Z</time>
      </trkpt>
      <trkpt lat="44.53043" lon="4.95518">
        <ele>421</ele>
        <time>2024-03-28T09:40:25Z</time>
      </trkpt>
      <trkpt lat="44.53045" lon="4.95515">
        <ele>419</ele>
        <time>2024-03-28T09:40:32Z</time>
      </trkpt>
      <trkpt lat="44.53044" lon="4.95509">
        <ele>419</ele>
        <time>2024-03-28T09:41:05Z</time>
      </trkpt>
      <trkpt lat="44.53045" lon="4.95502">
        <ele>417</ele>
        <time>2024-03-28T09:41:10Z</time>
      </trkpt>
      <trkpt lat="44.53047" lon="4.95499">
        <ele>415</ele>
        <time>2024-03-28T09:41:23Z</time>
      </trkpt>
      <trkpt lat="44.53045" lon="4.95496">
        <ele>415</ele>
        <time>2024-03-28T09:41:41Z</time>
      </trkpt>
      <trkpt lat="44.53046" lon="4.95495">
        <ele>414</ele>
        <time>2024-03-28T09:42:36Z</time>
      </trkpt>
      <trkpt lat="44.53048" lon="4.9549">
        <ele>414</ele>
        <time>2024-03-28T09:42:40Z</time>
      </trkpt>
      <trkpt lat="44.53051" lon="4.95481">
        <ele>417</ele>
        <time>2024-03-28T09:42:46Z</time>
      </trkpt>
      <trkpt lat="44.53052" lon="4.95477">
        <ele>418</ele>
        <time>2024-03-28T09:42:51Z</time>
      </trkpt>
      <trkpt lat="44.53054" lon="4.95473">
        <ele>420</ele>
        <time>2024-03-28T09:42:55Z</time>
      </trkpt>
      <trkpt lat="44.53056" lon="4.9547">
        <ele>420</ele>
        <time>2024-03-28T09:43:07Z</time>
      </trkpt>
      <trkpt lat="44.53058" lon="4.95466">
        <ele>419</ele>
        <time>2024-03-28T09:43:14Z</time>
      </trkpt>
      <trkpt lat="44.53058" lon="4.95461">
        <ele>419</ele>
        <time>2024-03-28T09:43:18Z</time>
      </trkpt>
      <trkpt lat="44.53059" lon="4.95454">
        <ele>419</ele>
        <time>2024-03-28T09:43:25Z</time>
      </trkpt>
      <trkpt lat="44.5306" lon="4.95449">
        <ele>422</ele>
        <time>2024-03-28T09:43:30Z</time>
      </trkpt>
      <trkpt lat="44.53064" lon="4.95444">
        <ele>422</ele>
        <time>2024-03-28T09:43:35Z</time>
      </trkpt>
      <trkpt lat="44.53065" lon="4.95438">
        <ele>422</ele>
        <time>2024-03-28T09:43:40Z</time>
      </trkpt>
      <trkpt lat="44.53067" lon="4.95429">
        <ele>423</ele>
        <time>2024-03-28T09:43:45Z</time>
      </trkpt>
      <trkpt lat="44.53068" lon="4.95424">
        <ele>423</ele>
        <time>2024-03-28T09:43:48Z</time>
      </trkpt>
      <trkpt lat="44.53072" lon="4.95419">
        <ele>421</ele>
        <time>2024-03-28T09:43:53Z</time>
      </trkpt>
      <trkpt lat="44.53072" lon="4.95413">
        <ele>420</ele>
        <time>2024-03-28T09:43:57Z</time>
      </trkpt>
      <trkpt lat="44.53074" lon="4.95407">
        <ele>421</ele>
        <time>2024-03-28T09:44:01Z</time>
      </trkpt>
      <trkpt lat="44.53079" lon="4.95395">
        <ele>422</ele>
        <time>2024-03-28T09:44:10Z</time>
      </trkpt>
      <trkpt lat="44.53084" lon="4.95389">
        <ele>422</ele>
        <time>2024-03-28T09:44:15Z</time>
      </trkpt>
      <trkpt lat="44.53085" lon="4.95383">
        <ele>422</ele>
        <time>2024-03-28T09:44:19Z</time>
      </trkpt>
      <trkpt lat="44.53086" lon="4.95379">
        <ele>423</ele>
        <time>2024-03-28T09:44:22Z</time>
      </trkpt>
      <trkpt lat="44.53091" lon="4.95371">
        <ele>425</ele>
        <time>2024-03-28T09:44:30Z</time>
      </trkpt>
      <trkpt lat="44.53097" lon="4.95362">
        <ele>426</ele>
        <time>2024-03-28T09:44:38Z</time>
      </trkpt>
      <trkpt lat="44.53101" lon="4.95358">
        <ele>427</ele>
        <time>2024-03-28T09:44:42Z</time>
      </trkpt>
      <trkpt lat="44.53104" lon="4.95351">
        <ele>426</ele>
        <time>2024-03-28T09:44:47Z</time>
      </trkpt>
      <trkpt lat="44.53106" lon="4.95345">
        <ele>426</ele>
        <time>2024-03-28T09:44:51Z</time>
      </trkpt>
      <trkpt lat="44.53109" lon="4.95341">
        <ele>424</ele>
        <time>2024-03-28T09:44:56Z</time>
      </trkpt>
      <trkpt lat="44.53112" lon="4.9534">
        <ele>424</ele>
        <time>2024-03-28T09:45:07Z</time>
      </trkpt>
      <trkpt lat="44.53124" lon="4.95343">
        <ele>433</ele>
        <time>2024-03-28T09:45:28Z</time>
      </trkpt>
      <trkpt lat="44.53132" lon="4.95339">
        <ele>433</ele>
        <time>2024-03-28T09:45:40Z</time>
      </trkpt>
      <trkpt lat="44.53136" lon="4.95336">
        <ele>433</ele>
        <time>2024-03-28T09:45:44Z</time>
      </trkpt>
      <trkpt lat="44.53138" lon="4.95332">
        <ele>433</ele>
        <time>2024-03-28T09:45:48Z</time>
      </trkpt>
      <trkpt lat="44.53141" lon="4.9533">
        <ele>433</ele>
        <time>2024-03-28T09:45:55Z</time>
      </trkpt>
      <trkpt lat="44.53146" lon="4.95322">
        <ele>435</ele>
        <time>2024-03-28T09:46:07Z</time>
      </trkpt>
      <trkpt lat="44.53149" lon="4.95318">
        <ele>436</ele>
        <time>2024-03-28T09:46:13Z</time>
      </trkpt>
      <trkpt lat="44.53152" lon="4.95306">
        <ele>438</ele>
        <time>2024-03-28T09:46:27Z</time>
      </trkpt>
      <trkpt lat="44.53152" lon="4.95302">
        <ele>439</ele>
        <time>2024-03-28T09:46:32Z</time>
      </trkpt>
      <trkpt lat="44.53158" lon="4.9529">
        <ele>443</ele>
        <time>2024-03-28T09:46:52Z</time>
      </trkpt>
      <trkpt lat="44.53159" lon="4.95287">
        <ele>443</ele>
        <time>2024-03-28T09:46:55Z</time>
      </trkpt>
      <trkpt lat="44.53162" lon="4.95283">
        <ele>444</ele>
        <time>2024-03-28T09:47:03Z</time>
      </trkpt>
      <trkpt lat="44.53164" lon="4.9528">
        <ele>445</ele>
        <time>2024-03-28T09:47:08Z</time>
      </trkpt>
      <trkpt lat="44.53165" lon="4.95276">
        <ele>446</ele>
        <time>2024-03-28T09:47:14Z</time>
      </trkpt>
      <trkpt lat="44.53166" lon="4.95271">
        <ele>447</ele>
        <time>2024-03-28T09:47:19Z</time>
      </trkpt>
      <trkpt lat="44.53166" lon="4.95267">
        <ele>449</ele>
        <time>2024-03-28T09:47:26Z</time>
      </trkpt>
      <trkpt lat="44.53169" lon="4.95268">
        <ele>450</ele>
        <time>2024-03-28T09:47:34Z</time>
      </trkpt>
      <trkpt lat="44.53168" lon="4.95265">
        <ele>452</ele>
        <time>2024-03-28T09:48:10Z</time>
      </trkpt>
      <trkpt lat="44.53167" lon="4.95261">
        <ele>452</ele>
        <time>2024-03-28T09:48:25Z</time>
      </trkpt>
      <trkpt lat="44.53164" lon="4.95259">
        <ele>451</ele>
        <time>2024-03-28T09:49:27Z</time>
      </trkpt>
      <trkpt lat="44.53142" lon="4.95239">
        <ele>448</ele>
        <time>2024-03-28T09:49:57Z</time>
      </trkpt>
      <trkpt lat="44.53137" lon="4.95236">
        <ele>449</ele>
        <time>2024-03-28T09:50:05Z</time>
      </trkpt>
      <trkpt lat="44.53133" lon="4.95232">
        <ele>448</ele>
        <time>2024-03-28T09:50:09Z</time>
      </trkpt>
      <trkpt lat="44.53132" lon="4.95228">
        <ele>447</ele>
        <time>2024-03-28T09:50:13Z</time>
      </trkpt>
      <trkpt lat="44.53128" lon="4.95226">
        <ele>447</ele>
        <time>2024-03-28T09:50:18Z</time>
      </trkpt>
      <trkpt lat="44.53122" lon="4.9522">
        <ele>446</ele>
        <time>2024-03-28T09:50:27Z</time>
      </trkpt>
      <trkpt lat="44.53119" lon="4.95218">
        <ele>445</ele>
        <time>2024-03-28T09:50:30Z</time>
      </trkpt>
      <trkpt lat="44.5311" lon="4.95214">
        <ele>445</ele>
        <time>2024-03-28T09:50:36Z</time>
      </trkpt>
      <trkpt lat="44.53106" lon="4.95211">
        <ele>445</ele>
        <time>2024-03-28T09:50:40Z</time>
      </trkpt>
      <trkpt lat="44.53096" lon="4.95202">
        <ele>443</ele>
        <time>2024-03-28T09:50:53Z</time>
      </trkpt>
      <trkpt lat="44.53089" lon="4.95198">
        <ele>443</ele>
        <time>2024-03-28T09:50:59Z</time>
      </trkpt>
      <trkpt lat="44.53083" lon="4.95191">
        <ele>443</ele>
        <time>2024-03-28T09:51:06Z</time>
      </trkpt>
      <trkpt lat="44.53073" lon="4.95184">
        <ele>443</ele>
        <time>2024-03-28T09:51:18Z</time>
      </trkpt>
      <trkpt lat="44.53063" lon="4.95176">
        <ele>444</ele>
        <time>2024-03-28T09:51:30Z</time>
      </trkpt>
      <trkpt lat="44.5306" lon="4.95174">
        <ele>445</ele>
        <time>2024-03-28T09:51:33Z</time>
      </trkpt>
      <trkpt lat="44.53057" lon="4.95171">
        <ele>445</ele>
        <time>2024-03-28T09:51:37Z</time>
      </trkpt>
      <trkpt lat="44.53054" lon="4.95169">
        <ele>445</ele>
        <time>2024-03-28T09:51:40Z</time>
      </trkpt>
      <trkpt lat="44.53047" lon="4.95163">
        <ele>446</ele>
        <time>2024-03-28T09:51:48Z</time>
      </trkpt>
      <trkpt lat="44.53045" lon="4.95159">
        <ele>445</ele>
        <time>2024-03-28T09:51:51Z</time>
      </trkpt>
      <trkpt lat="44.53034" lon="4.95153">
        <ele>445</ele>
        <time>2024-03-28T09:52:00Z</time>
      </trkpt>
      <trkpt lat="44.53023" lon="4.95143">
        <ele>447</ele>
        <time>2024-03-28T09:52:12Z</time>
      </trkpt>
      <trkpt lat="44.53021" lon="4.9514">
        <ele>449</ele>
        <time>2024-03-28T09:52:16Z</time>
      </trkpt>
      <trkpt lat="44.53017" lon="4.95138">
        <ele>448</ele>
        <time>2024-03-28T09:52:20Z</time>
      </trkpt>
      <trkpt lat="44.53005" lon="4.95125">
        <ele>451</ele>
        <time>2024-03-28T09:52:35Z</time>
      </trkpt>
      <trkpt lat="44.53002" lon="4.95122">
        <ele>451</ele>
        <time>2024-03-28T09:52:40Z</time>
      </trkpt>
      <trkpt lat="44.52982" lon="4.95104">
        <ele>450</ele>
        <time>2024-03-28T09:53:07Z</time>
      </trkpt>
      <trkpt lat="44.52979" lon="4.95092">
        <ele>451</ele>
        <time>2024-03-28T09:53:23Z</time>
      </trkpt>
      <trkpt lat="44.52976" lon="4.95087">
        <ele>452</ele>
        <time>2024-03-28T09:53:28Z</time>
      </trkpt>
      <trkpt lat="44.52976" lon="4.95077">
        <ele>453</ele>
        <time>2024-03-28T09:53:40Z</time>
      </trkpt>
      <trkpt lat="44.52978" lon="4.95073">
        <ele>454</ele>
        <time>2024-03-28T09:53:45Z</time>
      </trkpt>
      <trkpt lat="44.52979" lon="4.95068">
        <ele>457</ele>
        <time>2024-03-28T09:53:53Z</time>
      </trkpt>
      <trkpt lat="44.52984" lon="4.95059">
        <ele>459</ele>
        <time>2024-03-28T09:54:01Z</time>
      </trkpt>
      <trkpt lat="44.52983" lon="4.95042">
        <ele>461</ele>
        <time>2024-03-28T09:54:30Z</time>
      </trkpt>
      <trkpt lat="44.52978" lon="4.95028">
        <ele>459</ele>
        <time>2024-03-28T09:54:45Z</time>
      </trkpt>
      <trkpt lat="44.52976" lon="4.95023">
        <ele>458</ele>
        <time>2024-03-28T09:54:49Z</time>
      </trkpt>
      <trkpt lat="44.52975" lon="4.95018">
        <ele>459</ele>
        <time>2024-03-28T09:54:52Z</time>
      </trkpt>
      <trkpt lat="44.52974" lon="4.95014">
        <ele>459</ele>
        <time>2024-03-28T09:54:56Z</time>
      </trkpt>
      <trkpt lat="44.52973" lon="4.95009">
        <ele>460</ele>
        <time>2024-03-28T09:55:00Z</time>
      </trkpt>
      <trkpt lat="44.52973" lon="4.95006">
        <ele>458</ele>
        <time>2024-03-28T09:55:15Z</time>
      </trkpt>
      <trkpt lat="44.52971" lon="4.95003">
        <ele>460</ele>
        <time>2024-03-28T09:55:32Z</time>
      </trkpt>
      <trkpt lat="44.5297" lon="4.94998">
        <ele>460</ele>
        <time>2024-03-28T09:55:36Z</time>
      </trkpt>
      <trkpt lat="44.52969" lon="4.94993">
        <ele>461</ele>
        <time>2024-03-28T09:55:40Z</time>
      </trkpt>
      <trkpt lat="44.52968" lon="4.94988">
        <ele>461</ele>
        <time>2024-03-28T09:55:43Z</time>
      </trkpt>
      <trkpt lat="44.52969" lon="4.94976">
        <ele>462</ele>
        <time>2024-03-28T09:55:51Z</time>
      </trkpt>
      <trkpt lat="44.52968" lon="4.94972">
        <ele>462</ele>
        <time>2024-03-28T09:55:54Z</time>
      </trkpt>
      <trkpt lat="44.52968" lon="4.94967">
        <ele>462</ele>
        <time>2024-03-28T09:55:57Z</time>
      </trkpt>
      <trkpt lat="44.52969" lon="4.94962">
        <ele>462</ele>
        <time>2024-03-28T09:56:01Z</time>
      </trkpt>
      <trkpt lat="44.52973" lon="4.94957">
        <ele>461</ele>
        <time>2024-03-28T09:56:05Z</time>
      </trkpt>
      <trkpt lat="44.52974" lon="4.94952">
        <ele>460</ele>
        <time>2024-03-28T09:56:08Z</time>
      </trkpt>
      <trkpt lat="44.52978" lon="4.94943">
        <ele>459</ele>
        <time>2024-03-28T09:56:16Z</time>
      </trkpt>
      <trkpt lat="44.52982" lon="4.94931">
        <ele>459</ele>
        <time>2024-03-28T09:56:23Z</time>
      </trkpt>
      <trkpt lat="44.52983" lon="4.94926">
        <ele>460</ele>
        <time>2024-03-28T09:56:26Z</time>
      </trkpt>
      <trkpt lat="44.52983" lon="4.94918">
        <ele>461</ele>
        <time>2024-03-28T09:56:30Z</time>
      </trkpt>
      <trkpt lat="44.52985" lon="4.94912">
        <ele>460</ele>
        <time>2024-03-28T09:56:34Z</time>
      </trkpt>
      <trkpt lat="44.52983" lon="4.94907">
        <ele>460</ele>
        <time>2024-03-28T09:56:37Z</time>
      </trkpt>
      <trkpt lat="44.5298" lon="4.94897">
        <ele>459</ele>
        <time>2024-03-28T09:56:45Z</time>
      </trkpt>
      <trkpt lat="44.52976" lon="4.94891">
        <ele>457</ele>
        <time>2024-03-28T09:56:50Z</time>
      </trkpt>
      <trkpt lat="44.52973" lon="4.94882">
        <ele>456</ele>
        <time>2024-03-28T09:56:56Z</time>
      </trkpt>
      <trkpt lat="44.52969" lon="4.94875">
        <ele>457</ele>
        <time>2024-03-28T09:57:01Z</time>
      </trkpt>
      <trkpt lat="44.52967" lon="4.94871">
        <ele>458</ele>
        <time>2024-03-28T09:57:04Z</time>
      </trkpt>
      <trkpt lat="44.52961" lon="4.94865">
        <ele>460</ele>
        <time>2024-03-28T09:57:09Z</time>
      </trkpt>
      <trkpt lat="44.52957" lon="4.94864">
        <ele>459</ele>
        <time>2024-03-28T09:57:12Z</time>
      </trkpt>
      <trkpt lat="44.52954" lon="4.94862">
        <ele>458</ele>
        <time>2024-03-28T09:57:15Z</time>
      </trkpt>
      <trkpt lat="44.52944" lon="4.94853">
        <ele>459</ele>
        <time>2024-03-28T09:57:25Z</time>
      </trkpt>
      <trkpt lat="44.52941" lon="4.94853">
        <ele>459</ele>
        <time>2024-03-28T09:57:28Z</time>
      </trkpt>
      <trkpt lat="44.52938" lon="4.94849">
        <ele>461</ele>
        <time>2024-03-28T09:57:32Z</time>
      </trkpt>
      <trkpt lat="44.52934" lon="4.94847">
        <ele>461</ele>
        <time>2024-03-28T09:57:35Z</time>
      </trkpt>
      <trkpt lat="44.52929" lon="4.94843">
        <ele>461</ele>
        <time>2024-03-28T09:57:39Z</time>
      </trkpt>
      <trkpt lat="44.52925" lon="4.9484">
        <ele>462</ele>
        <time>2024-03-28T09:57:43Z</time>
      </trkpt>
      <trkpt lat="44.52921" lon="4.94841">
        <ele>461</ele>
        <time>2024-03-28T09:57:48Z</time>
      </trkpt>
      <trkpt lat="44.52917" lon="4.94837">
        <ele>461</ele>
        <time>2024-03-28T09:57:52Z</time>
      </trkpt>
      <trkpt lat="44.52909" lon="4.94829">
        <ele>462</ele>
        <time>2024-03-28T09:57:58Z</time>
      </trkpt>
      <trkpt lat="44.52906" lon="4.94826">
        <ele>464</ele>
        <time>2024-03-28T09:58:02Z</time>
      </trkpt>
      <trkpt lat="44.52904" lon="4.94822">
        <ele>464</ele>
        <time>2024-03-28T09:58:06Z</time>
      </trkpt>
      <trkpt lat="44.52903" lon="4.94817">
        <ele>463</ele>
        <time>2024-03-28T09:58:11Z</time>
      </trkpt>
      <trkpt lat="44.52902" lon="4.94812">
        <ele>462</ele>
        <time>2024-03-28T09:58:15Z</time>
      </trkpt>
      <trkpt lat="44.52899" lon="4.94808">
        <ele>462</ele>
        <time>2024-03-28T09:58:18Z</time>
      </trkpt>
      <trkpt lat="44.52899" lon="4.94803">
        <ele>461</ele>
        <time>2024-03-28T09:58:21Z</time>
      </trkpt>
      <trkpt lat="44.529" lon="4.94799">
        <ele>461</ele>
        <time>2024-03-28T09:58:24Z</time>
      </trkpt>
      <trkpt lat="44.52898" lon="4.94779">
        <ele>459</ele>
        <time>2024-03-28T09:58:36Z</time>
      </trkpt>
      <trkpt lat="44.52898" lon="4.9477">
        <ele>459</ele>
        <time>2024-03-28T09:58:42Z</time>
      </trkpt>
      <trkpt lat="44.52897" lon="4.94761">
        <ele>458</ele>
        <time>2024-03-28T09:58:48Z</time>
      </trkpt>
      <trkpt lat="44.52895" lon="4.94741">
        <ele>459</ele>
        <time>2024-03-28T09:59:02Z</time>
      </trkpt>
      <trkpt lat="44.52894" lon="4.94735">
        <ele>458</ele>
        <time>2024-03-28T09:59:05Z</time>
      </trkpt>
      <trkpt lat="44.52891" lon="4.94723">
        <ele>457</ele>
        <time>2024-03-28T09:59:12Z</time>
      </trkpt>
      <trkpt lat="44.5289" lon="4.94712">
        <ele>457</ele>
        <time>2024-03-28T09:59:18Z</time>
      </trkpt>
      <trkpt lat="44.52889" lon="4.94707">
        <ele>457</ele>
        <time>2024-03-28T09:59:21Z</time>
      </trkpt>
      <trkpt lat="44.52884" lon="4.9469">
        <ele>458</ele>
        <time>2024-03-28T09:59:32Z</time>
      </trkpt>
      <trkpt lat="44.52883" lon="4.94684">
        <ele>459</ele>
        <time>2024-03-28T09:59:35Z</time>
      </trkpt>
      <trkpt lat="44.52882" lon="4.94678">
        <ele>459</ele>
        <time>2024-03-28T09:59:39Z</time>
      </trkpt>
      <trkpt lat="44.52884" lon="4.94672">
        <ele>461</ele>
        <time>2024-03-28T09:59:43Z</time>
      </trkpt>
      <trkpt lat="44.52882" lon="4.94667">
        <ele>461</ele>
        <time>2024-03-28T09:59:46Z</time>
      </trkpt>
      <trkpt lat="44.52883" lon="4.94661">
        <ele>460</ele>
        <time>2024-03-28T09:59:50Z</time>
      </trkpt>
      <trkpt lat="44.5288" lon="4.94654">
        <ele>460</ele>
        <time>2024-03-28T09:59:54Z</time>
      </trkpt>
      <trkpt lat="44.52881" lon="4.94649">
        <ele>460</ele>
        <time>2024-03-28T09:59:57Z</time>
      </trkpt>
      <trkpt lat="44.52875" lon="4.94636">
        <ele>462</ele>
        <time>2024-03-28T10:00:05Z</time>
      </trkpt>
      <trkpt lat="44.5287" lon="4.94624">
        <ele>464</ele>
        <time>2024-03-28T10:00:13Z</time>
      </trkpt>
      <trkpt lat="44.5287" lon="4.9462">
        <ele>465</ele>
        <time>2024-03-28T10:00:22Z</time>
      </trkpt>
      <trkpt lat="44.52871" lon="4.94613">
        <ele>465</ele>
        <time>2024-03-28T10:00:28Z</time>
      </trkpt>
      <trkpt lat="44.52874" lon="4.9461">
        <ele>465</ele>
        <time>2024-03-28T10:00:55Z</time>
      </trkpt>
      <trkpt lat="44.52878" lon="4.94606">
        <ele>462</ele>
        <time>2024-03-28T10:01:00Z</time>
      </trkpt>
      <trkpt lat="44.52898" lon="4.94589">
        <ele>459</ele>
        <time>2024-03-28T10:01:20Z</time>
      </trkpt>
      <trkpt lat="44.52905" lon="4.94579">
        <ele>458</ele>
        <time>2024-03-28T10:01:30Z</time>
      </trkpt>
      <trkpt lat="44.52909" lon="4.9457">
        <ele>459</ele>
        <time>2024-03-28T10:01:38Z</time>
      </trkpt>
      <trkpt lat="44.52909" lon="4.94565">
        <ele>460</ele>
        <time>2024-03-28T10:01:41Z</time>
      </trkpt>
      <trkpt lat="44.52909" lon="4.9456">
        <ele>460</ele>
        <time>2024-03-28T10:01:47Z</time>
      </trkpt>
      <trkpt lat="44.52909" lon="4.94555">
        <ele>460</ele>
        <time>2024-03-28T10:01:51Z</time>
      </trkpt>
      <trkpt lat="44.52913" lon="4.9455">
        <ele>460</ele>
        <time>2024-03-28T10:01:57Z</time>
      </trkpt>
      <trkpt lat="44.52913" lon="4.94543">
        <ele>460</ele>
        <time>2024-03-28T10:02:05Z</time>
      </trkpt>
      <trkpt lat="44.52912" lon="4.94535">
        <ele>460</ele>
        <time>2024-03-28T10:02:10Z</time>
      </trkpt>
      <trkpt lat="44.52909" lon="4.94531">
        <ele>460</ele>
        <time>2024-03-28T10:02:14Z</time>
      </trkpt>
      <trkpt lat="44.52906" lon="4.94527">
        <ele>462</ele>
        <time>2024-03-28T10:02:17Z</time>
      </trkpt>
      <trkpt lat="44.52907" lon="4.94521">
        <ele>463</ele>
        <time>2024-03-28T10:02:22Z</time>
      </trkpt>
      <trkpt lat="44.52906" lon="4.94516">
        <ele>464</ele>
        <time>2024-03-28T10:02:25Z</time>
      </trkpt>
      <trkpt lat="44.52905" lon="4.94511">
        <ele>464</ele>
        <time>2024-03-28T10:02:30Z</time>
      </trkpt>
      <trkpt lat="44.52904" lon="4.94503">
        <ele>465</ele>
        <time>2024-03-28T10:02:35Z</time>
      </trkpt>
      <trkpt lat="44.52904" lon="4.94488">
        <ele>467</ele>
        <time>2024-03-28T10:02:45Z</time>
      </trkpt>
      <trkpt lat="44.52903" lon="4.94482">
        <ele>468</ele>
        <time>2024-03-28T10:02:50Z</time>
      </trkpt>
      <trkpt lat="44.52899" lon="4.94478">
        <ele>469</ele>
        <time>2024-03-28T10:02:56Z</time>
      </trkpt>
      <trkpt lat="44.52891" lon="4.94448">
        <ele>471</ele>
        <time>2024-03-28T10:03:22Z</time>
      </trkpt>
      <trkpt lat="44.52889" lon="4.94442">
        <ele>471</ele>
        <time>2024-03-28T10:03:27Z</time>
      </trkpt>
      <trkpt lat="44.52887" lon="4.94437">
        <ele>471</ele>
        <time>2024-03-28T10:03:30Z</time>
      </trkpt>
      <trkpt lat="44.52884" lon="4.94431">
        <ele>470</ele>
        <time>2024-03-28T10:03:35Z</time>
      </trkpt>
      <trkpt lat="44.52884" lon="4.94426">
        <ele>470</ele>
        <time>2024-03-28T10:03:41Z</time>
      </trkpt>
      <trkpt lat="44.52891" lon="4.9442">
        <ele>474</ele>
        <time>2024-03-28T10:04:13Z</time>
      </trkpt>
      <trkpt lat="44.52899" lon="4.94417">
        <ele>476</ele>
        <time>2024-03-28T10:04:30Z</time>
      </trkpt>
      <trkpt lat="44.52902" lon="4.94412">
        <ele>476</ele>
        <time>2024-03-28T10:04:36Z</time>
      </trkpt>
      <trkpt lat="44.52906" lon="4.9441">
        <ele>478</ele>
        <time>2024-03-28T10:04:41Z</time>
      </trkpt>
      <trkpt lat="44.52907" lon="4.94405">
        <ele>480</ele>
        <time>2024-03-28T10:04:51Z</time>
      </trkpt>
      <trkpt lat="44.52909" lon="4.94404">
        <ele>481</ele>
        <time>2024-03-28T10:05:28Z</time>
      </trkpt>
      <trkpt lat="44.52908" lon="4.94406">
        <ele>482</ele>
        <time>2024-03-28T10:12:52Z</time>
      </trkpt>
      <trkpt lat="44.52907" lon="4.94411">
        <ele>482</ele>
        <time>2024-03-28T10:13:09Z</time>
      </trkpt>
      <trkpt lat="44.52904" lon="4.94414">
        <ele>480</ele>
        <time>2024-03-28T10:13:16Z</time>
      </trkpt>
      <trkpt lat="44.52899" lon="4.94412">
        <ele>480</ele>
        <time>2024-03-28T10:13:21Z</time>
      </trkpt>
      <trkpt lat="44.52895" lon="4.94411">
        <ele>480</ele>
        <time>2024-03-28T10:13:26Z</time>
      </trkpt>
      <trkpt lat="44.52891" lon="4.94412">
        <ele>479</ele>
        <time>2024-03-28T10:13:30Z</time>
      </trkpt>
      <trkpt lat="44.52887" lon="4.94413">
        <ele>479</ele>
        <time>2024-03-28T10:13:39Z</time>
      </trkpt>
      <trkpt lat="44.52886" lon="4.94416">
        <ele>479</ele>
        <time>2024-03-28T10:13:43Z</time>
      </trkpt>
      <trkpt lat="44.52886" lon="4.94422">
        <ele>478</ele>
        <time>2024-03-28T10:13:50Z</time>
      </trkpt>
      <trkpt lat="44.52887" lon="4.94426">
        <ele>474</ele>
        <time>2024-03-28T10:13:54Z</time>
      </trkpt>
      <trkpt lat="44.52889" lon="4.94429">
        <ele>473</ele>
        <time>2024-03-28T10:13:59Z</time>
      </trkpt>
      <trkpt lat="44.52889" lon="4.94439">
        <ele>473</ele>
        <time>2024-03-28T10:14:07Z</time>
      </trkpt>
      <trkpt lat="44.5289" lon="4.94443">
        <ele>471</ele>
        <time>2024-03-28T10:14:13Z</time>
      </trkpt>
      <trkpt lat="44.52893" lon="4.94449">
        <ele>471</ele>
        <time>2024-03-28T10:14:19Z</time>
      </trkpt>
      <trkpt lat="44.52896" lon="4.94459">
        <ele>469</ele>
        <time>2024-03-28T10:14:30Z</time>
      </trkpt>
      <trkpt lat="44.52897" lon="4.94464">
        <ele>468</ele>
        <time>2024-03-28T10:14:35Z</time>
      </trkpt>
      <trkpt lat="44.52897" lon="4.9447">
        <ele>467</ele>
        <time>2024-03-28T10:14:39Z</time>
      </trkpt>
      <trkpt lat="44.52898" lon="4.94474">
        <ele>467</ele>
        <time>2024-03-28T10:14:43Z</time>
      </trkpt>
      <trkpt lat="44.52901" lon="4.94484">
        <ele>467</ele>
        <time>2024-03-28T10:14:52Z</time>
      </trkpt>
      <trkpt lat="44.52901" lon="4.94489">
        <ele>468</ele>
        <time>2024-03-28T10:14:58Z</time>
      </trkpt>
      <trkpt lat="44.52904" lon="4.94493">
        <ele>468</ele>
        <time>2024-03-28T10:15:04Z</time>
      </trkpt>
      <trkpt lat="44.52905" lon="4.94499">
        <ele>468</ele>
        <time>2024-03-28T10:15:16Z</time>
      </trkpt>
      <trkpt lat="44.52907" lon="4.94505">
        <ele>468</ele>
        <time>2024-03-28T10:15:23Z</time>
      </trkpt>
      <trkpt lat="44.52907" lon="4.94512">
        <ele>468</ele>
        <time>2024-03-28T10:15:42Z</time>
      </trkpt>
      <trkpt lat="44.52908" lon="4.9452">
        <ele>467</ele>
        <time>2024-03-28T10:15:46Z</time>
      </trkpt>
      <trkpt lat="44.52909" lon="4.94528">
        <ele>465</ele>
        <time>2024-03-28T10:15:52Z</time>
      </trkpt>
      <trkpt lat="44.52911" lon="4.94535">
        <ele>466</ele>
        <time>2024-03-28T10:15:58Z</time>
      </trkpt>
      <trkpt lat="44.52912" lon="4.9454">
        <ele>466</ele>
        <time>2024-03-28T10:16:02Z</time>
      </trkpt>
      <trkpt lat="44.52913" lon="4.94547">
        <ele>467</ele>
        <time>2024-03-28T10:16:09Z</time>
      </trkpt>
      <trkpt lat="44.5291" lon="4.94551">
        <ele>468</ele>
        <time>2024-03-28T10:16:17Z</time>
      </trkpt>
      <trkpt lat="44.52909" lon="4.94556">
        <ele>467</ele>
        <time>2024-03-28T10:16:20Z</time>
      </trkpt>
      <trkpt lat="44.5291" lon="4.94561">
        <ele>467</ele>
        <time>2024-03-28T10:16:24Z</time>
      </trkpt>
      <trkpt lat="44.52909" lon="4.94567">
        <ele>465</ele>
        <time>2024-03-28T10:16:32Z</time>
      </trkpt>
      <trkpt lat="44.52909" lon="4.94572">
        <ele>464</ele>
        <time>2024-03-28T10:16:35Z</time>
      </trkpt>
      <trkpt lat="44.52908" lon="4.94576">
        <ele>462</ele>
        <time>2024-03-28T10:16:40Z</time>
      </trkpt>
      <trkpt lat="44.52905" lon="4.94578">
        <ele>462</ele>
        <time>2024-03-28T10:16:45Z</time>
      </trkpt>
      <trkpt lat="44.52902" lon="4.94584">
        <ele>461</ele>
        <time>2024-03-28T10:16:49Z</time>
      </trkpt>
      <trkpt lat="44.52894" lon="4.94589">
        <ele>459</ele>
        <time>2024-03-28T10:17:01Z</time>
      </trkpt>
      <trkpt lat="44.52888" lon="4.94592">
        <ele>459</ele>
        <time>2024-03-28T10:17:07Z</time>
      </trkpt>
      <trkpt lat="44.52879" lon="4.94602">
        <ele>459</ele>
        <time>2024-03-28T10:17:16Z</time>
      </trkpt>
      <trkpt lat="44.5287" lon="4.94607">
        <ele>460</ele>
        <time>2024-03-28T10:17:24Z</time>
      </trkpt>
      <trkpt lat="44.52866" lon="4.94608">
        <ele>461</ele>
        <time>2024-03-28T10:17:29Z</time>
      </trkpt>
      <trkpt lat="44.52859" lon="4.94606">
        <ele>462</ele>
        <time>2024-03-28T10:17:36Z</time>
      </trkpt>
      <trkpt lat="44.52855" lon="4.94606">
        <ele>462</ele>
        <time>2024-03-28T10:17:40Z</time>
      </trkpt>
      <trkpt lat="44.52851" lon="4.94603">
        <ele>462</ele>
        <time>2024-03-28T10:17:44Z</time>
      </trkpt>
      <trkpt lat="44.52844" lon="4.94599">
        <ele>463</ele>
        <time>2024-03-28T10:17:52Z</time>
      </trkpt>
      <trkpt lat="44.5284" lon="4.94597">
        <ele>462</ele>
        <time>2024-03-28T10:17:56Z</time>
      </trkpt>
      <trkpt lat="44.52836" lon="4.94597">
        <ele>463</ele>
        <time>2024-03-28T10:18:00Z</time>
      </trkpt>
      <trkpt lat="44.52832" lon="4.94595">
        <ele>463</ele>
        <time>2024-03-28T10:18:03Z</time>
      </trkpt>
      <trkpt lat="44.52828" lon="4.94595">
        <ele>464</ele>
        <time>2024-03-28T10:18:06Z</time>
      </trkpt>
      <trkpt lat="44.52814" lon="4.94597">
        <ele>465</ele>
        <time>2024-03-28T10:18:19Z</time>
      </trkpt>
      <trkpt lat="44.52811" lon="4.94596">
        <ele>465</ele>
        <time>2024-03-28T10:18:22Z</time>
      </trkpt>
      <trkpt lat="44.52786" lon="4.94601">
        <ele>463</ele>
        <time>2024-03-28T10:18:44Z</time>
      </trkpt>
      <trkpt lat="44.52783" lon="4.94603">
        <ele>462</ele>
        <time>2024-03-28T10:18:47Z</time>
      </trkpt>
      <trkpt lat="44.52781" lon="4.94607">
        <ele>461</ele>
        <time>2024-03-28T10:18:50Z</time>
      </trkpt>
      <trkpt lat="44.52766" lon="4.9462">
        <ele>459</ele>
        <time>2024-03-28T10:19:04Z</time>
      </trkpt>
      <trkpt lat="44.5276" lon="4.94627">
        <ele>459</ele>
        <time>2024-03-28T10:19:11Z</time>
      </trkpt>
      <trkpt lat="44.52755" lon="4.94628">
        <ele>458</ele>
        <time>2024-03-28T10:19:14Z</time>
      </trkpt>
      <trkpt lat="44.52751" lon="4.9463">
        <ele>459</ele>
        <time>2024-03-28T10:19:17Z</time>
      </trkpt>
      <trkpt lat="44.52749" lon="4.94634">
        <ele>457</ele>
        <time>2024-03-28T10:19:20Z</time>
      </trkpt>
      <trkpt lat="44.52745" lon="4.94637">
        <ele>456</ele>
        <time>2024-03-28T10:19:23Z</time>
      </trkpt>
      <trkpt lat="44.52742" lon="4.94638">
        <ele>455</ele>
        <time>2024-03-28T10:19:26Z</time>
      </trkpt>
      <trkpt lat="44.52739" lon="4.94639">
        <ele>456</ele>
        <time>2024-03-28T10:19:30Z</time>
      </trkpt>
      <trkpt lat="44.52732" lon="4.94639">
        <ele>457</ele>
        <time>2024-03-28T10:19:35Z</time>
      </trkpt>
      <trkpt lat="44.52727" lon="4.94639">
        <ele>459</ele>
        <time>2024-03-28T10:19:38Z</time>
      </trkpt>
      <trkpt lat="44.527" lon="4.9464">
        <ele>461</ele>
        <time>2024-03-28T10:19:58Z</time>
      </trkpt>
      <trkpt lat="44.52697" lon="4.94641">
        <ele>461</ele>
        <time>2024-03-28T10:20:02Z</time>
      </trkpt>
      <trkpt lat="44.52692" lon="4.94643">
        <ele>460</ele>
        <time>2024-03-28T10:20:07Z</time>
      </trkpt>
      <trkpt lat="44.52688" lon="4.94642">
        <ele>459</ele>
        <time>2024-03-28T10:20:10Z</time>
      </trkpt>
      <trkpt lat="44.52679" lon="4.9464">
        <ele>459</ele>
        <time>2024-03-28T10:20:17Z</time>
      </trkpt>
      <trkpt lat="44.52675" lon="4.94639">
        <ele>458</ele>
        <time>2024-03-28T10:20:21Z</time>
      </trkpt>
      <trkpt lat="44.5267" lon="4.94637">
        <ele>458</ele>
        <time>2024-03-28T10:20:25Z</time>
      </trkpt>
      <trkpt lat="44.52647" lon="4.94647">
        <ele>456</ele>
        <time>2024-03-28T10:20:46Z</time>
      </trkpt>
      <trkpt lat="44.52643" lon="4.94647">
        <ele>456</ele>
        <time>2024-03-28T10:20:49Z</time>
      </trkpt>
      <trkpt lat="44.52634" lon="4.9465">
        <ele>456</ele>
        <time>2024-03-28T10:20:56Z</time>
      </trkpt>
      <trkpt lat="44.52621" lon="4.94652">
        <ele>454</ele>
        <time>2024-03-28T10:21:08Z</time>
      </trkpt>
      <trkpt lat="44.52618" lon="4.94654">
        <ele>453</ele>
        <time>2024-03-28T10:21:12Z</time>
      </trkpt>
      <trkpt lat="44.52613" lon="4.94653">
        <ele>452</ele>
        <time>2024-03-28T10:21:16Z</time>
      </trkpt>
      <trkpt lat="44.5259" lon="4.94648">
        <ele>453</ele>
        <time>2024-03-28T10:21:33Z</time>
      </trkpt>
      <trkpt lat="44.52587" lon="4.94648">
        <ele>452</ele>
        <time>2024-03-28T10:21:37Z</time>
      </trkpt>
      <trkpt lat="44.52579" lon="4.94646">
        <ele>454</ele>
        <time>2024-03-28T10:21:43Z</time>
      </trkpt>
      <trkpt lat="44.52572" lon="4.94646">
        <ele>452</ele>
        <time>2024-03-28T10:21:50Z</time>
      </trkpt>
      <trkpt lat="44.52569" lon="4.94644">
        <ele>452</ele>
        <time>2024-03-28T10:21:54Z</time>
      </trkpt>
      <trkpt lat="44.52565" lon="4.94643">
        <ele>452</ele>
        <time>2024-03-28T10:22:03Z</time>
      </trkpt>
      <trkpt lat="44.52561" lon="4.94641">
        <ele>453</ele>
        <time>2024-03-28T10:22:08Z</time>
      </trkpt>
      <trkpt lat="44.52559" lon="4.94644">
        <ele>450</ele>
        <time>2024-03-28T10:22:36Z</time>
      </trkpt>
      <trkpt lat="44.52557" lon="4.94648">
        <ele>448</ele>
        <time>2024-03-28T10:22:39Z</time>
      </trkpt>
      <trkpt lat="44.52554" lon="4.94652">
        <ele>447</ele>
        <time>2024-03-28T10:22:44Z</time>
      </trkpt>
      <trkpt lat="44.5254" lon="4.94656">
        <ele>447</ele>
        <time>2024-03-28T10:22:55Z</time>
      </trkpt>
      <trkpt lat="44.52536" lon="4.94654">
        <ele>446</ele>
        <time>2024-03-28T10:23:00Z</time>
      </trkpt>
      <trkpt lat="44.52529" lon="4.94657">
        <ele>444</ele>
        <time>2024-03-28T10:23:06Z</time>
      </trkpt>
      <trkpt lat="44.52524" lon="4.94655">
        <ele>444</ele>
        <time>2024-03-28T10:23:10Z</time>
      </trkpt>
      <trkpt lat="44.52519" lon="4.94655">
        <ele>445</ele>
        <time>2024-03-28T10:23:13Z</time>
      </trkpt>
      <trkpt lat="44.52511" lon="4.94655">
        <ele>445</ele>
        <time>2024-03-28T10:23:20Z</time>
      </trkpt>
      <trkpt lat="44.52507" lon="4.94653">
        <ele>444</ele>
        <time>2024-03-28T10:23:23Z</time>
      </trkpt>
      <trkpt lat="44.52504" lon="4.94654">
        <ele>445</ele>
        <time>2024-03-28T10:23:25Z</time>
      </trkpt>
      <trkpt lat="44.52499" lon="4.94655">
        <ele>446</ele>
        <time>2024-03-28T10:23:28Z</time>
      </trkpt>
      <trkpt lat="44.52495" lon="4.94653">
        <ele>446</ele>
        <time>2024-03-28T10:23:33Z</time>
      </trkpt>
      <trkpt lat="44.52492" lon="4.94654">
        <ele>445</ele>
        <time>2024-03-28T10:23:37Z</time>
      </trkpt>
      <trkpt lat="44.52488" lon="4.94652">
        <ele>445</ele>
        <time>2024-03-28T10:23:40Z</time>
      </trkpt>
      <trkpt lat="44.52485" lon="4.94651">
        <ele>444</ele>
        <time>2024-03-28T10:23:42Z</time>
      </trkpt>
      <trkpt lat="44.52481" lon="4.94651">
        <ele>444</ele>
        <time>2024-03-28T10:23:45Z</time>
      </trkpt>
      <trkpt lat="44.52476" lon="4.94651">
        <ele>445</ele>
        <time>2024-03-28T10:23:50Z</time>
      </trkpt>
      <trkpt lat="44.52472" lon="4.94651">
        <ele>444</ele>
        <time>2024-03-28T10:23:53Z</time>
      </trkpt>
      <trkpt lat="44.5246" lon="4.94649">
        <ele>444</ele>
        <time>2024-03-28T10:24:01Z</time>
      </trkpt>
      <trkpt lat="44.52455" lon="4.94647">
        <ele>444</ele>
        <time>2024-03-28T10:24:05Z</time>
      </trkpt>
      <trkpt lat="44.52442" lon="4.94645">
        <ele>443</ele>
        <time>2024-03-28T10:24:20Z</time>
      </trkpt>
      <trkpt lat="44.52437" lon="4.94643">
        <ele>441</ele>
        <time>2024-03-28T10:24:23Z</time>
      </trkpt>
      <trkpt lat="44.52433" lon="4.94646">
        <ele>440</ele>
        <time>2024-03-28T10:24:26Z</time>
      </trkpt>
      <trkpt lat="44.52429" lon="4.94646">
        <ele>440</ele>
        <time>2024-03-28T10:24:29Z</time>
      </trkpt>
      <trkpt lat="44.52422" lon="4.94646">
        <ele>437</ele>
        <time>2024-03-28T10:24:43Z</time>
      </trkpt>
      <trkpt lat="44.52418" lon="4.94647">
        <ele>435</ele>
        <time>2024-03-28T10:24:47Z</time>
      </trkpt>
      <trkpt lat="44.52407" lon="4.94649">
        <ele>435</ele>
        <time>2024-03-28T10:24:56Z</time>
      </trkpt>
      <trkpt lat="44.52398" lon="4.94652">
        <ele>436</ele>
        <time>2024-03-28T10:25:04Z</time>
      </trkpt>
      <trkpt lat="44.52394" lon="4.94655">
        <ele>436</ele>
        <time>2024-03-28T10:25:09Z</time>
      </trkpt>
      <trkpt lat="44.52389" lon="4.94659">
        <ele>437</ele>
        <time>2024-03-28T10:25:14Z</time>
      </trkpt>
      <trkpt lat="44.52385" lon="4.94663">
        <ele>437</ele>
        <time>2024-03-28T10:25:20Z</time>
      </trkpt>
      <trkpt lat="44.52378" lon="4.94665">
        <ele>437</ele>
        <time>2024-03-28T10:25:24Z</time>
      </trkpt>
      <trkpt lat="44.52374" lon="4.94667">
        <ele>436</ele>
        <time>2024-03-28T10:25:29Z</time>
      </trkpt>
      <trkpt lat="44.5237" lon="4.94671">
        <ele>435</ele>
        <time>2024-03-28T10:25:33Z</time>
      </trkpt>
      <trkpt lat="44.52365" lon="4.94674">
        <ele>434</ele>
        <time>2024-03-28T10:25:36Z</time>
      </trkpt>
      <trkpt lat="44.5236" lon="4.94679">
        <ele>435</ele>
        <time>2024-03-28T10:25:40Z</time>
      </trkpt>
      <trkpt lat="44.52357" lon="4.94685">
        <ele>435</ele>
        <time>2024-03-28T10:25:43Z</time>
      </trkpt>
      <trkpt lat="44.52354" lon="4.94692">
        <ele>435</ele>
        <time>2024-03-28T10:25:47Z</time>
      </trkpt>
      <trkpt lat="44.52349" lon="4.94705">
        <ele>434</ele>
        <time>2024-03-28T10:25:55Z</time>
      </trkpt>
      <trkpt lat="44.52347" lon="4.9471">
        <ele>434</ele>
        <time>2024-03-28T10:25:58Z</time>
      </trkpt>
      <trkpt lat="44.52347" lon="4.94716">
        <ele>432</ele>
        <time>2024-03-28T10:26:01Z</time>
      </trkpt>
      <trkpt lat="44.52347" lon="4.9472">
        <ele>432</ele>
        <time>2024-03-28T10:26:04Z</time>
      </trkpt>
      <trkpt lat="44.52345" lon="4.94724">
        <ele>432</ele>
        <time>2024-03-28T10:26:08Z</time>
      </trkpt>
      <trkpt lat="44.52336" lon="4.94735">
        <ele>432</ele>
        <time>2024-03-28T10:26:17Z</time>
      </trkpt>
      <trkpt lat="44.52334" lon="4.9474">
        <ele>432</ele>
        <time>2024-03-28T10:26:20Z</time>
      </trkpt>
      <trkpt lat="44.52319" lon="4.94754">
        <ele>428</ele>
        <time>2024-03-28T10:26:36Z</time>
      </trkpt>
      <trkpt lat="44.52312" lon="4.94756">
        <ele>428</ele>
        <time>2024-03-28T10:26:43Z</time>
      </trkpt>
      <trkpt lat="44.52309" lon="4.94754">
        <ele>428</ele>
        <time>2024-03-28T10:26:46Z</time>
      </trkpt>
      <trkpt lat="44.52299" lon="4.9476">
        <ele>427</ele>
        <time>2024-03-28T10:26:53Z</time>
      </trkpt>
      <trkpt lat="44.52286" lon="4.94763">
        <ele>426</ele>
        <time>2024-03-28T10:27:04Z</time>
      </trkpt>
      <trkpt lat="44.52282" lon="4.94765">
        <ele>426</ele>
        <time>2024-03-28T10:27:08Z</time>
      </trkpt>
      <trkpt lat="44.5228" lon="4.94766">
        <ele>425</ele>
        <time>2024-03-28T10:27:11Z</time>
      </trkpt>
      <trkpt lat="44.52263" lon="4.94769">
        <ele>427</ele>
        <time>2024-03-28T10:27:25Z</time>
      </trkpt>
      <trkpt lat="44.52259" lon="4.94768">
        <ele>427</ele>
        <time>2024-03-28T10:27:28Z</time>
      </trkpt>
      <trkpt lat="44.52252" lon="4.94772">
        <ele>427</ele>
        <time>2024-03-28T10:27:34Z</time>
      </trkpt>
      <trkpt lat="44.52248" lon="4.94774">
        <ele>427</ele>
        <time>2024-03-28T10:27:38Z</time>
      </trkpt>
      <trkpt lat="44.52242" lon="4.94776">
        <ele>425</ele>
        <time>2024-03-28T10:27:44Z</time>
      </trkpt>
      <trkpt lat="44.52228" lon="4.9478">
        <ele>425</ele>
        <time>2024-03-28T10:27:56Z</time>
      </trkpt>
      <trkpt lat="44.52218" lon="4.94786">
        <ele>425</ele>
        <time>2024-03-28T10:28:10Z</time>
      </trkpt>
      <trkpt lat="44.52213" lon="4.94787">
        <ele>424</ele>
        <time>2024-03-28T10:28:16Z</time>
      </trkpt>
      <trkpt lat="44.5221" lon="4.94792">
        <ele>424</ele>
        <time>2024-03-28T10:28:21Z</time>
      </trkpt>
      <trkpt lat="44.52197" lon="4.94795">
        <ele>426</ele>
        <time>2024-03-28T10:28:40Z</time>
      </trkpt>
      <trkpt lat="44.52192" lon="4.94796">
        <ele>426</ele>
        <time>2024-03-28T10:28:45Z</time>
      </trkpt>
      <trkpt lat="44.52188" lon="4.948">
        <ele>426</ele>
        <time>2024-03-28T10:28:50Z</time>
      </trkpt>
      <trkpt lat="44.52178" lon="4.94803">
        <ele>428</ele>
        <time>2024-03-28T10:29:00Z</time>
      </trkpt>
      <trkpt lat="44.52175" lon="4.94805">
        <ele>428</ele>
        <time>2024-03-28T10:29:05Z</time>
      </trkpt>
      <trkpt lat="44.5217" lon="4.94807">
        <ele>429</ele>
        <time>2024-03-28T10:29:08Z</time>
      </trkpt>
      <trkpt lat="44.52167" lon="4.94812">
        <ele>428</ele>
        <time>2024-03-28T10:29:11Z</time>
      </trkpt>
      <trkpt lat="44.52162" lon="4.94813">
        <ele>428</ele>
        <time>2024-03-28T10:29:16Z</time>
      </trkpt>
      <trkpt lat="44.5216" lon="4.94817">
        <ele>429</ele>
        <time>2024-03-28T10:29:20Z</time>
      </trkpt>
      <trkpt lat="44.52154" lon="4.94817">
        <ele>430</ele>
        <time>2024-03-28T10:29:25Z</time>
      </trkpt>
      <trkpt lat="44.52145" lon="4.94814">
        <ele>430</ele>
        <time>2024-03-28T10:29:35Z</time>
      </trkpt>
      <trkpt lat="44.52141" lon="4.94818">
        <ele>431</ele>
        <time>2024-03-28T10:29:39Z</time>
      </trkpt>
      <trkpt lat="44.52137" lon="4.94818">
        <ele>432</ele>
        <time>2024-03-28T10:29:45Z</time>
      </trkpt>
      <trkpt lat="44.52128" lon="4.9482">
        <ele>432</ele>
        <time>2024-03-28T10:29:51Z</time>
      </trkpt>
      <trkpt lat="44.52125" lon="4.94825">
        <ele>430</ele>
        <time>2024-03-28T10:29:56Z</time>
      </trkpt>
      <trkpt lat="44.52121" lon="4.94826">
        <ele>431</ele>
        <time>2024-03-28T10:30:02Z</time>
      </trkpt>
      <trkpt lat="44.52117" lon="4.94827">
        <ele>432</ele>
        <time>2024-03-28T10:30:05Z</time>
      </trkpt>
      <trkpt lat="44.52112" lon="4.94829">
        <ele>432</ele>
        <time>2024-03-28T10:30:10Z</time>
      </trkpt>
      <trkpt lat="44.52103" lon="4.94828">
        <ele>433</ele>
        <time>2024-03-28T10:30:16Z</time>
      </trkpt>
      <trkpt lat="44.52098" lon="4.94829">
        <ele>431</ele>
        <time>2024-03-28T10:30:20Z</time>
      </trkpt>
      <trkpt lat="44.52093" lon="4.94828">
        <ele>432</ele>
        <time>2024-03-28T10:30:24Z</time>
      </trkpt>
      <trkpt lat="44.52089" lon="4.9483">
        <ele>433</ele>
        <time>2024-03-28T10:30:29Z</time>
      </trkpt>
      <trkpt lat="44.52084" lon="4.9483">
        <ele>432</ele>
        <time>2024-03-28T10:30:32Z</time>
      </trkpt>
      <trkpt lat="44.52081" lon="4.94832">
        <ele>432</ele>
        <time>2024-03-28T10:30:35Z</time>
      </trkpt>
      <trkpt lat="44.52078" lon="4.94836">
        <ele>431</ele>
        <time>2024-03-28T10:30:40Z</time>
      </trkpt>
      <trkpt lat="44.52074" lon="4.94836">
        <ele>431</ele>
        <time>2024-03-28T10:30:43Z</time>
      </trkpt>
      <trkpt lat="44.52069" lon="4.94837">
        <ele>430</ele>
        <time>2024-03-28T10:30:48Z</time>
      </trkpt>
      <trkpt lat="44.52065" lon="4.94838">
        <ele>431</ele>
        <time>2024-03-28T10:30:53Z</time>
      </trkpt>
      <trkpt lat="44.52056" lon="4.94844">
        <ele>433</ele>
        <time>2024-03-28T10:31:03Z</time>
      </trkpt>
      <trkpt lat="44.52052" lon="4.94847">
        <ele>435</ele>
        <time>2024-03-28T10:31:10Z</time>
      </trkpt>
      <trkpt lat="44.52043" lon="4.94844">
        <ele>436</ele>
        <time>2024-03-28T10:31:19Z</time>
      </trkpt>
      <trkpt lat="44.52039" lon="4.94847">
        <ele>436</ele>
        <time>2024-03-28T10:31:23Z</time>
      </trkpt>
      <trkpt lat="44.5203" lon="4.94849">
        <ele>437</ele>
        <time>2024-03-28T10:31:38Z</time>
      </trkpt>
      <trkpt lat="44.52021" lon="4.94851">
        <ele>437</ele>
        <time>2024-03-28T10:31:48Z</time>
      </trkpt>
      <trkpt lat="44.52018" lon="4.94853">
        <ele>437</ele>
        <time>2024-03-28T10:31:53Z</time>
      </trkpt>
      <trkpt lat="44.52008" lon="4.94856">
        <ele>439</ele>
        <time>2024-03-28T10:32:03Z</time>
      </trkpt>
      <trkpt lat="44.52003" lon="4.9486">
        <ele>438</ele>
        <time>2024-03-28T10:32:10Z</time>
      </trkpt>
      <trkpt lat="44.51989" lon="4.94854">
        <ele>440</ele>
        <time>2024-03-28T10:32:25Z</time>
      </trkpt>
      <trkpt lat="44.51986" lon="4.94855">
        <ele>442</ele>
        <time>2024-03-28T10:32:31Z</time>
      </trkpt>
      <trkpt lat="44.5198" lon="4.94854">
        <ele>444</ele>
        <time>2024-03-28T10:32:44Z</time>
      </trkpt>
      <trkpt lat="44.51976" lon="4.94852">
        <ele>443</ele>
        <time>2024-03-28T10:32:50Z</time>
      </trkpt>
      <trkpt lat="44.51972" lon="4.94853">
        <ele>442</ele>
        <time>2024-03-28T10:32:54Z</time>
      </trkpt>
      <trkpt lat="44.51969" lon="4.94857">
        <ele>440</ele>
        <time>2024-03-28T10:32:58Z</time>
      </trkpt>
      <trkpt lat="44.51963" lon="4.94862">
        <ele>439</ele>
        <time>2024-03-28T10:33:05Z</time>
      </trkpt>
      <trkpt lat="44.51959" lon="4.94869">
        <ele>437</ele>
        <time>2024-03-28T10:33:12Z</time>
      </trkpt>
      <trkpt lat="44.51957" lon="4.94872">
        <ele>437</ele>
        <time>2024-03-28T10:33:20Z</time>
      </trkpt>
      <trkpt lat="44.51953" lon="4.94874">
        <ele>436</ele>
        <time>2024-03-28T10:33:24Z</time>
      </trkpt>
      <trkpt lat="44.51949" lon="4.94876">
        <ele>435</ele>
        <time>2024-03-28T10:33:34Z</time>
      </trkpt>
      <trkpt lat="44.51945" lon="4.94879">
        <ele>434</ele>
        <time>2024-03-28T10:33:39Z</time>
      </trkpt>
      <trkpt lat="44.5194" lon="4.94885">
        <ele>434</ele>
        <time>2024-03-28T10:33:47Z</time>
      </trkpt>
      <trkpt lat="44.51936" lon="4.94885">
        <ele>433</ele>
        <time>2024-03-28T10:33:51Z</time>
      </trkpt>
      <trkpt lat="44.5193" lon="4.94891">
        <ele>432</ele>
        <time>2024-03-28T10:34:02Z</time>
      </trkpt>
      <trkpt lat="44.51927" lon="4.94896">
        <ele>430</ele>
        <time>2024-03-28T10:34:08Z</time>
      </trkpt>
      <trkpt lat="44.51923" lon="4.949">
        <ele>429</ele>
        <time>2024-03-28T10:34:13Z</time>
      </trkpt>
      <trkpt lat="44.51919" lon="4.9491">
        <ele>427</ele>
        <time>2024-03-28T10:34:19Z</time>
      </trkpt>
      <trkpt lat="44.51916" lon="4.94912">
        <ele>428</ele>
        <time>2024-03-28T10:34:28Z</time>
      </trkpt>
      <trkpt lat="44.51913" lon="4.94916">
        <ele>428</ele>
        <time>2024-03-28T10:34:31Z</time>
      </trkpt>
      <trkpt lat="44.51907" lon="4.9493">
        <ele>427</ele>
        <time>2024-03-28T10:34:39Z</time>
      </trkpt>
      <trkpt lat="44.51903" lon="4.94933">
        <ele>428</ele>
        <time>2024-03-28T10:34:44Z</time>
      </trkpt>
      <trkpt lat="44.51901" lon="4.94938">
        <ele>428</ele>
        <time>2024-03-28T10:34:47Z</time>
      </trkpt>
      <trkpt lat="44.519" lon="4.94942">
        <ele>427</ele>
        <time>2024-03-28T10:34:50Z</time>
      </trkpt>
      <trkpt lat="44.51897" lon="4.94947">
        <ele>428</ele>
        <time>2024-03-28T10:34:54Z</time>
      </trkpt>
      <trkpt lat="44.51889" lon="4.94954">
        <ele>429</ele>
        <time>2024-03-28T10:35:01Z</time>
      </trkpt>
      <trkpt lat="44.51885" lon="4.94957">
        <ele>428</ele>
        <time>2024-03-28T10:35:04Z</time>
      </trkpt>
      <trkpt lat="44.51879" lon="4.94962">
        <ele>428</ele>
        <time>2024-03-28T10:35:11Z</time>
      </trkpt>
      <trkpt lat="44.51876" lon="4.94968">
        <ele>428</ele>
        <time>2024-03-28T10:35:15Z</time>
      </trkpt>
      <trkpt lat="44.51872" lon="4.94972">
        <ele>428</ele>
        <time>2024-03-28T10:35:18Z</time>
      </trkpt>
      <trkpt lat="44.51868" lon="4.94974">
        <ele>428</ele>
        <time>2024-03-28T10:35:21Z</time>
      </trkpt>
      <trkpt lat="44.51863" lon="4.94975">
        <ele>428</ele>
        <time>2024-03-28T10:35:27Z</time>
      </trkpt>
      <trkpt lat="44.51855" lon="4.94981">
        <ele>430</ele>
        <time>2024-03-28T10:35:35Z</time>
      </trkpt>
      <trkpt lat="44.51852" lon="4.94985">
        <ele>431</ele>
        <time>2024-03-28T10:35:40Z</time>
      </trkpt>
      <trkpt lat="44.51847" lon="4.94986">
        <ele>432</ele>
        <time>2024-03-28T10:35:44Z</time>
      </trkpt>
      <trkpt lat="44.51844" lon="4.94992">
        <ele>432</ele>
        <time>2024-03-28T10:35:47Z</time>
      </trkpt>
      <trkpt lat="44.51842" lon="4.94998">
        <ele>432</ele>
        <time>2024-03-28T10:35:53Z</time>
      </trkpt>
      <trkpt lat="44.51836" lon="4.95001">
        <ele>432</ele>
        <time>2024-03-28T10:35:59Z</time>
      </trkpt>
      <trkpt lat="44.51829" lon="4.95006">
        <ele>434</ele>
        <time>2024-03-28T10:36:08Z</time>
      </trkpt>
      <trkpt lat="44.51826" lon="4.95013">
        <ele>433</ele>
        <time>2024-03-28T10:36:13Z</time>
      </trkpt>
      <trkpt lat="44.51826" lon="4.95018">
        <ele>433</ele>
        <time>2024-03-28T10:36:16Z</time>
      </trkpt>
      <trkpt lat="44.51823" lon="4.95023">
        <ele>433</ele>
        <time>2024-03-28T10:36:23Z</time>
      </trkpt>
      <trkpt lat="44.51821" lon="4.95027">
        <ele>432</ele>
        <time>2024-03-28T10:36:30Z</time>
      </trkpt>
      <trkpt lat="44.5182" lon="4.95029">
        <ele>434</ele>
        <time>2024-03-28T10:36:43Z</time>
      </trkpt>
      <trkpt lat="44.51818" lon="4.95029">
        <ele>435</ele>
        <time>2024-03-28T10:36:53Z</time>
      </trkpt>
      <trkpt lat="44.51817" lon="4.9503">
        <ele>433</ele>
        <time>2024-03-28T10:37:13Z</time>
      </trkpt>
      <trkpt lat="44.51816" lon="4.9503">
        <ele>434</ele>
        <time>2024-03-28T10:38:03Z</time>
      </trkpt>
      <trkpt lat="44.51814" lon="4.95027">
        <ele>435</ele>
        <time>2024-03-28T10:39:27Z</time>
      </trkpt>
      <trkpt lat="44.51811" lon="4.95025">
        <ele>435</ele>
        <time>2024-03-28T10:39:30Z</time>
      </trkpt>
      <trkpt lat="44.51808" lon="4.95025">
        <ele>435</ele>
        <time>2024-03-28T10:39:33Z</time>
      </trkpt>
      <trkpt lat="44.51801" lon="4.95031">
        <ele>435</ele>
        <time>2024-03-28T10:39:42Z</time>
      </trkpt>
      <trkpt lat="44.51799" lon="4.95034">
        <ele>436</ele>
        <time>2024-03-28T10:39:47Z</time>
      </trkpt>
      <trkpt lat="44.51796" lon="4.95035">
        <ele>436</ele>
        <time>2024-03-28T10:39:56Z</time>
      </trkpt>
      <trkpt lat="44.51793" lon="4.95035">
        <ele>436</ele>
        <time>2024-03-28T10:40:00Z</time>
      </trkpt>
      <trkpt lat="44.5179" lon="4.95036">
        <ele>436</ele>
        <time>2024-03-28T10:40:04Z</time>
      </trkpt>
      <trkpt lat="44.51787" lon="4.95036">
        <ele>437</ele>
        <time>2024-03-28T10:40:07Z</time>
      </trkpt>
      <trkpt lat="44.51754" lon="4.95039">
        <ele>433</ele>
        <time>2024-03-28T10:40:38Z</time>
      </trkpt>
      <trkpt lat="44.5175" lon="4.95038">
        <ele>432</ele>
        <time>2024-03-28T10:40:42Z</time>
      </trkpt>
      <trkpt lat="44.51745" lon="4.95038">
        <ele>432</ele>
        <time>2024-03-28T10:40:46Z</time>
      </trkpt>
      <trkpt lat="44.51741" lon="4.95037">
        <ele>432</ele>
        <time>2024-03-28T10:40:50Z</time>
      </trkpt>
      <trkpt lat="44.51737" lon="4.95037">
        <ele>432</ele>
        <time>2024-03-28T10:40:54Z</time>
      </trkpt>
      <trkpt lat="44.5173" lon="4.95039">
        <ele>433</ele>
        <time>2024-03-28T10:41:01Z</time>
      </trkpt>
      <trkpt lat="44.51722" lon="4.95037">
        <ele>434</ele>
        <time>2024-03-28T10:41:09Z</time>
      </trkpt>
      <trkpt lat="44.51718" lon="4.95038">
        <ele>435</ele>
        <time>2024-03-28T10:41:12Z</time>
      </trkpt>
      <trkpt lat="44.51714" lon="4.95039">
        <ele>434</ele>
        <time>2024-03-28T10:41:16Z</time>
      </trkpt>
      <trkpt lat="44.5171" lon="4.95037">
        <ele>435</ele>
        <time>2024-03-28T10:41:20Z</time>
      </trkpt>
      <trkpt lat="44.51705" lon="4.95035">
        <ele>435</ele>
        <time>2024-03-28T10:41:25Z</time>
      </trkpt>
      <trkpt lat="44.51696" lon="4.95033">
        <ele>435</ele>
        <time>2024-03-28T10:41:33Z</time>
      </trkpt>
      <trkpt lat="44.5169" lon="4.95034">
        <ele>434</ele>
        <time>2024-03-28T10:41:38Z</time>
      </trkpt>
      <trkpt lat="44.51683" lon="4.95039">
        <ele>433</ele>
        <time>2024-03-28T10:41:47Z</time>
      </trkpt>
      <trkpt lat="44.51676" lon="4.95036">
        <ele>433</ele>
        <time>2024-03-28T10:41:54Z</time>
      </trkpt>
      <trkpt lat="44.51673" lon="4.95035">
        <ele>432</ele>
        <time>2024-03-28T10:41:57Z</time>
      </trkpt>
      <trkpt lat="44.51669" lon="4.95033">
        <ele>432</ele>
        <time>2024-03-28T10:42:01Z</time>
      </trkpt>
      <trkpt lat="44.51665" lon="4.95033">
        <ele>432</ele>
        <time>2024-03-28T10:42:05Z</time>
      </trkpt>
      <trkpt lat="44.51661" lon="4.95033">
        <ele>431</ele>
        <time>2024-03-28T10:42:10Z</time>
      </trkpt>
      <trkpt lat="44.51658" lon="4.95032">
        <ele>431</ele>
        <time>2024-03-28T10:42:13Z</time>
      </trkpt>
      <trkpt lat="44.51655" lon="4.95028">
        <ele>432</ele>
        <time>2024-03-28T10:42:27Z</time>
      </trkpt>
      <trkpt lat="44.51655" lon="4.95036">
        <ele>431</ele>
        <time>2024-03-28T10:42:33Z</time>
      </trkpt>
      <trkpt lat="44.51651" lon="4.95035">
        <ele>430</ele>
        <time>2024-03-28T10:42:38Z</time>
      </trkpt>
      <trkpt lat="44.51647" lon="4.95034">
        <ele>426</ele>
        <time>2024-03-28T10:42:47Z</time>
      </trkpt>
      <trkpt lat="44.51643" lon="4.95034">
        <ele>426</ele>
        <time>2024-03-28T10:42:50Z</time>
      </trkpt>
      <trkpt lat="44.5164" lon="4.95036">
        <ele>425</ele>
        <time>2024-03-28T10:42:55Z</time>
      </trkpt>
      <trkpt lat="44.51637" lon="4.95031">
        <ele>425</ele>
        <time>2024-03-28T10:43:04Z</time>
      </trkpt>
      <trkpt lat="44.51635" lon="4.95027">
        <ele>423</ele>
        <time>2024-03-28T10:43:13Z</time>
      </trkpt>
      <trkpt lat="44.51633" lon="4.95023">
        <ele>422</ele>
        <time>2024-03-28T10:43:17Z</time>
      </trkpt>
      <trkpt lat="44.51632" lon="4.95023">
        <ele>419</ele>
        <time>2024-03-28T10:43:30Z</time>
      </trkpt>
      <trkpt lat="44.51629" lon="4.95024">
        <ele>418</ele>
        <time>2024-03-28T10:44:55Z</time>
      </trkpt>
      <trkpt lat="44.51629" lon="4.95018">
        <ele>417</ele>
        <time>2024-03-28T10:46:01Z</time>
      </trkpt>
      <trkpt lat="44.5163" lon="4.95011">
        <ele>419</ele>
        <time>2024-03-28T10:53:46Z</time>
      </trkpt>
      <trkpt lat="44.51627" lon="4.95014">
        <ele>420</ele>
        <time>2024-03-28T10:54:56Z</time>
      </trkpt>
      <trkpt lat="44.51629" lon="4.95019">
        <ele>420</ele>
        <time>2024-03-28T10:56:44Z</time>
      </trkpt>
      <trkpt lat="44.5163" lon="4.95024">
        <ele>422</ele>
        <time>2024-03-28T11:00:40Z</time>
      </trkpt>
      <trkpt lat="44.51629" lon="4.9502">
        <ele>418</ele>
        <time>2024-03-28T11:09:43Z</time>
      </trkpt>
      <trkpt lat="44.51627" lon="4.9502">
        <ele>419</ele>
        <time>2024-03-28T11:14:12Z</time>
      </trkpt>
      <trkpt lat="44.51627" lon="4.9502">
        <ele>419</ele>
        <time>2024-03-28T11:14:13Z</time>
      </trkpt>
      <trkpt lat="44.51626" lon="4.95016">
        <ele>419</ele>
        <time>2024-03-28T11:14:54Z</time>
      </trkpt>
      <trkpt lat="44.51624" lon="4.95012">
        <ele>416</ele>
        <time>2024-03-28T11:15:02Z</time>
      </trkpt>
      <trkpt lat="44.51622" lon="4.95007">
        <ele>415</ele>
        <time>2024-03-28T11:15:08Z</time>
      </trkpt>
      <trkpt lat="44.51621" lon="4.95002">
        <ele>415</ele>
        <time>2024-03-28T11:15:16Z</time>
      </trkpt>
      <trkpt lat="44.51619" lon="4.94997">
        <ele>414</ele>
        <time>2024-03-28T11:15:20Z</time>
      </trkpt>
      <trkpt lat="44.51616" lon="4.94992">
        <ele>414</ele>
        <time>2024-03-28T11:15:26Z</time>
      </trkpt>
      <trkpt lat="44.51614" lon="4.94987">
        <ele>414</ele>
        <time>2024-03-28T11:15:31Z</time>
      </trkpt>
      <trkpt lat="44.51612" lon="4.94982">
        <ele>413</ele>
        <time>2024-03-28T11:15:36Z</time>
      </trkpt>
      <trkpt lat="44.51606" lon="4.94973">
        <ele>413</ele>
        <time>2024-03-28T11:15:45Z</time>
      </trkpt>
      <trkpt lat="44.51602" lon="4.94969">
        <ele>413</ele>
        <time>2024-03-28T11:15:48Z</time>
      </trkpt>
      <trkpt lat="44.51598" lon="4.94961">
        <ele>412</ele>
        <time>2024-03-28T11:15:55Z</time>
      </trkpt>
      <trkpt lat="44.51593" lon="4.94954">
        <ele>412</ele>
        <time>2024-03-28T11:16:09Z</time>
      </trkpt>
      <trkpt lat="44.5159" lon="4.94943">
        <ele>411</ele>
        <time>2024-03-28T11:16:15Z</time>
      </trkpt>
      <trkpt lat="44.51588" lon="4.94937">
        <ele>410</ele>
        <time>2024-03-28T11:16:20Z</time>
      </trkpt>
      <trkpt lat="44.51583" lon="4.94924">
        <ele>406</ele>
        <time>2024-03-28T11:16:36Z</time>
      </trkpt>
      <trkpt lat="44.51583" lon="4.94918">
        <ele>406</ele>
        <time>2024-03-28T11:16:42Z</time>
      </trkpt>
      <trkpt lat="44.51581" lon="4.94915">
        <ele>406</ele>
        <time>2024-03-28T11:16:45Z</time>
      </trkpt>
      <trkpt lat="44.51573" lon="4.94911">
        <ele>405</ele>
        <time>2024-03-28T11:16:53Z</time>
      </trkpt>
      <trkpt lat="44.51564" lon="4.9491">
        <ele>405</ele>
        <time>2024-03-28T11:17:00Z</time>
      </trkpt>
      <trkpt lat="44.51559" lon="4.94909">
        <ele>403</ele>
        <time>2024-03-28T11:17:04Z</time>
      </trkpt>
      <trkpt lat="44.51556" lon="4.94907">
        <ele>402</ele>
        <time>2024-03-28T11:17:07Z</time>
      </trkpt>
      <trkpt lat="44.51554" lon="4.94907">
        <ele>401</ele>
        <time>2024-03-28T11:17:17Z</time>
      </trkpt>
      <trkpt lat="44.51548" lon="4.94902">
        <ele>402</ele>
        <time>2024-03-28T11:17:23Z</time>
      </trkpt>
      <trkpt lat="44.51547" lon="4.94899">
        <ele>401</ele>
        <time>2024-03-28T11:17:25Z</time>
      </trkpt>
      <trkpt lat="44.51545" lon="4.94896">
        <ele>400</ele>
        <time>2024-03-28T11:17:28Z</time>
      </trkpt>
      <trkpt lat="44.51542" lon="4.9488">
        <ele>399</ele>
        <time>2024-03-28T11:17:38Z</time>
      </trkpt>
      <trkpt lat="44.51541" lon="4.94877">
        <ele>399</ele>
        <time>2024-03-28T11:17:41Z</time>
      </trkpt>
      <trkpt lat="44.51541" lon="4.94873">
        <ele>399</ele>
        <time>2024-03-28T11:17:44Z</time>
      </trkpt>
      <trkpt lat="44.51541" lon="4.94869">
        <ele>399</ele>
        <time>2024-03-28T11:17:47Z</time>
      </trkpt>
      <trkpt lat="44.51543" lon="4.94867">
        <ele>400</ele>
        <time>2024-03-28T11:17:51Z</time>
      </trkpt>
      <trkpt lat="44.51545" lon="4.94866">
        <ele>400</ele>
        <time>2024-03-28T11:17:54Z</time>
      </trkpt>
      <trkpt lat="44.51548" lon="4.94867">
        <ele>399</ele>
        <time>2024-03-28T11:17:57Z</time>
      </trkpt>
      <trkpt lat="44.51561" lon="4.94872">
        <ele>401</ele>
        <time>2024-03-28T11:18:12Z</time>
      </trkpt>
      <trkpt lat="44.51571" lon="4.94874">
        <ele>400</ele>
        <time>2024-03-28T11:18:22Z</time>
      </trkpt>
      <trkpt lat="44.51583" lon="4.94873">
        <ele>397</ele>
        <time>2024-03-28T11:18:38Z</time>
      </trkpt>
      <trkpt lat="44.51596" lon="4.94862">
        <ele>394</ele>
        <time>2024-03-28T11:18:57Z</time>
      </trkpt>
      <trkpt lat="44.516" lon="4.94859">
        <ele>393</ele>
        <time>2024-03-28T11:19:01Z</time>
      </trkpt>
      <trkpt lat="44.51606" lon="4.94853">
        <ele>391</ele>
        <time>2024-03-28T11:19:11Z</time>
      </trkpt>
      <trkpt lat="44.5161" lon="4.94848">
        <ele>389</ele>
        <time>2024-03-28T11:19:19Z</time>
      </trkpt>
      <trkpt lat="44.51616" lon="4.94838">
        <ele>390</ele>
        <time>2024-03-28T11:19:30Z</time>
      </trkpt>
      <trkpt lat="44.51618" lon="4.94834">
        <ele>390</ele>
        <time>2024-03-28T11:19:36Z</time>
      </trkpt>
      <trkpt lat="44.51619" lon="4.94831">
        <ele>390</ele>
        <time>2024-03-28T11:19:39Z</time>
      </trkpt>
      <trkpt lat="44.51621" lon="4.94828">
        <ele>390</ele>
        <time>2024-03-28T11:19:44Z</time>
      </trkpt>
      <trkpt lat="44.51624" lon="4.94825">
        <ele>389</ele>
        <time>2024-03-28T11:19:51Z</time>
      </trkpt>
      <trkpt lat="44.51628" lon="4.94818">
        <ele>390</ele>
        <time>2024-03-28T11:20:03Z</time>
      </trkpt>
      <trkpt lat="44.5163" lon="4.94814">
        <ele>391</ele>
        <time>2024-03-28T11:20:08Z</time>
      </trkpt>
      <trkpt lat="44.51635" lon="4.94807">
        <ele>389</ele>
        <time>2024-03-28T11:20:19Z</time>
      </trkpt>
      <trkpt lat="44.51638" lon="4.94803">
        <ele>386</ele>
        <time>2024-03-28T11:20:25Z</time>
      </trkpt>
      <trkpt lat="44.51639" lon="4.94799">
        <ele>386</ele>
        <time>2024-03-28T11:20:31Z</time>
      </trkpt>
      <trkpt lat="44.51644" lon="4.94791">
        <ele>383</ele>
        <time>2024-03-28T11:20:40Z</time>
      </trkpt>
      <trkpt lat="44.51649" lon="4.94781">
        <ele>382</ele>
        <time>2024-03-28T11:20:48Z</time>
      </trkpt>
      <trkpt lat="44.51653" lon="4.94777">
        <ele>381</ele>
        <time>2024-03-28T11:20:53Z</time>
      </trkpt>
      <trkpt lat="44.51657" lon="4.94773">
        <ele>379</ele>
        <time>2024-03-28T11:21:00Z</time>
      </trkpt>
      <trkpt lat="44.51658" lon="4.94769">
        <ele>378</ele>
        <time>2024-03-28T11:21:05Z</time>
      </trkpt>
      <trkpt lat="44.51664" lon="4.94759">
        <ele>378</ele>
        <time>2024-03-28T11:21:15Z</time>
      </trkpt>
      <trkpt lat="44.51666" lon="4.94754">
        <ele>377</ele>
        <time>2024-03-28T11:21:20Z</time>
      </trkpt>
      <trkpt lat="44.51668" lon="4.9475">
        <ele>377</ele>
        <time>2024-03-28T11:21:25Z</time>
      </trkpt>
      <trkpt lat="44.51671" lon="4.94746">
        <ele>377</ele>
        <time>2024-03-28T11:21:30Z</time>
      </trkpt>
      <trkpt lat="44.51674" lon="4.94742">
        <ele>377</ele>
        <time>2024-03-28T11:21:35Z</time>
      </trkpt>
      <trkpt lat="44.51676" lon="4.94737">
        <ele>377</ele>
        <time>2024-03-28T11:21:40Z</time>
      </trkpt>
      <trkpt lat="44.51679" lon="4.94732">
        <ele>376</ele>
        <time>2024-03-28T11:21:44Z</time>
      </trkpt>
      <trkpt lat="44.51681" lon="4.94728">
        <ele>376</ele>
        <time>2024-03-28T11:21:48Z</time>
      </trkpt>
      <trkpt lat="44.51686" lon="4.94724">
        <ele>375</ele>
        <time>2024-03-28T11:21:55Z</time>
      </trkpt>
      <trkpt lat="44.51689" lon="4.94717">
        <ele>374</ele>
        <time>2024-03-28T11:22:00Z</time>
      </trkpt>
      <trkpt lat="44.51692" lon="4.94712">
        <ele>374</ele>
        <time>2024-03-28T11:22:06Z</time>
      </trkpt>
      <trkpt lat="44.51695" lon="4.94708">
        <ele>374</ele>
        <time>2024-03-28T11:22:11Z</time>
      </trkpt>
      <trkpt lat="44.51698" lon="4.94705">
        <ele>373</ele>
        <time>2024-03-28T11:22:16Z</time>
      </trkpt>
      <trkpt lat="44.51704" lon="4.94698">
        <ele>372</ele>
        <time>2024-03-28T11:22:25Z</time>
      </trkpt>
      <trkpt lat="44.51706" lon="4.94686">
        <ele>372</ele>
        <time>2024-03-28T11:22:34Z</time>
      </trkpt>
      <trkpt lat="44.51708" lon="4.94676">
        <ele>371</ele>
        <time>2024-03-28T11:22:40Z</time>
      </trkpt>
      <trkpt lat="44.51711" lon="4.94673">
        <ele>370</ele>
        <time>2024-03-28T11:22:43Z</time>
      </trkpt>
      <trkpt lat="44.51711" lon="4.94667">
        <ele>368</ele>
        <time>2024-03-28T11:22:47Z</time>
      </trkpt>
      <trkpt lat="44.51713" lon="4.94662">
        <ele>368</ele>
        <time>2024-03-28T11:22:53Z</time>
      </trkpt>
      <trkpt lat="44.51713" lon="4.94656">
        <ele>368</ele>
        <time>2024-03-28T11:22:58Z</time>
      </trkpt>
      <trkpt lat="44.51713" lon="4.9465">
        <ele>366</ele>
        <time>2024-03-28T11:23:02Z</time>
      </trkpt>
      <trkpt lat="44.51716" lon="4.94645">
        <ele>366</ele>
        <time>2024-03-28T11:23:06Z</time>
      </trkpt>
      <trkpt lat="44.51716" lon="4.94639">
        <ele>365</ele>
        <time>2024-03-28T11:23:11Z</time>
      </trkpt>
      <trkpt lat="44.51714" lon="4.94625">
        <ele>365</ele>
        <time>2024-03-28T11:23:20Z</time>
      </trkpt>
      <trkpt lat="44.51716" lon="4.9462">
        <ele>365</ele>
        <time>2024-03-28T11:23:23Z</time>
      </trkpt>
      <trkpt lat="44.51714" lon="4.94609">
        <ele>364</ele>
        <time>2024-03-28T11:23:34Z</time>
      </trkpt>
      <trkpt lat="44.51713" lon="4.94597">
        <ele>363</ele>
        <time>2024-03-28T11:23:44Z</time>
      </trkpt>
      <trkpt lat="44.51713" lon="4.94592">
        <ele>362</ele>
        <time>2024-03-28T11:23:48Z</time>
      </trkpt>
      <trkpt lat="44.51714" lon="4.94586">
        <ele>362</ele>
        <time>2024-03-28T11:23:54Z</time>
      </trkpt>
      <trkpt lat="44.51712" lon="4.94582">
        <ele>362</ele>
        <time>2024-03-28T11:24:17Z</time>
      </trkpt>
      <trkpt lat="44.51712" lon="4.94577">
        <ele>360</ele>
        <time>2024-03-28T11:24:20Z</time>
      </trkpt>
      <trkpt lat="44.51713" lon="4.94565">
        <ele>359</ele>
        <time>2024-03-28T11:24:34Z</time>
      </trkpt>
      <trkpt lat="44.51713" lon="4.94559">
        <ele>358</ele>
        <time>2024-03-28T11:24:38Z</time>
      </trkpt>
      <trkpt lat="44.51715" lon="4.94553">
        <ele>357</ele>
        <time>2024-03-28T11:24:45Z</time>
      </trkpt>
      <trkpt lat="44.51717" lon="4.94549">
        <ele>356</ele>
        <time>2024-03-28T11:24:51Z</time>
      </trkpt>
      <trkpt lat="44.51718" lon="4.94545">
        <ele>355</ele>
        <time>2024-03-28T11:24:57Z</time>
      </trkpt>
      <trkpt lat="44.51719" lon="4.9454">
        <ele>355</ele>
        <time>2024-03-28T11:25:02Z</time>
      </trkpt>
      <trkpt lat="44.51722" lon="4.94536">
        <ele>355</ele>
        <time>2024-03-28T11:25:07Z</time>
      </trkpt>
      <trkpt lat="44.51725" lon="4.94515">
        <ele>351</ele>
        <time>2024-03-28T11:25:29Z</time>
      </trkpt>
      <trkpt lat="44.51728" lon="4.94512">
        <ele>348</ele>
        <time>2024-03-28T11:25:40Z</time>
      </trkpt>
      <trkpt lat="44.51729" lon="4.94507">
        <ele>347</ele>
        <time>2024-03-28T11:25:48Z</time>
      </trkpt>
      <trkpt lat="44.51731" lon="4.94503">
        <ele>345</ele>
        <time>2024-03-28T11:25:53Z</time>
      </trkpt>
      <trkpt lat="44.51733" lon="4.94498">
        <ele>345</ele>
        <time>2024-03-28T11:25:58Z</time>
      </trkpt>
      <trkpt lat="44.51736" lon="4.94497">
        <ele>345</ele>
        <time>2024-03-28T11:26:25Z</time>
      </trkpt>
      <trkpt lat="44.51739" lon="4.94499">
        <ele>344</ele>
        <time>2024-03-28T11:26:30Z</time>
      </trkpt>
      <trkpt lat="44.51743" lon="4.945">
        <ele>344</ele>
        <time>2024-03-28T11:26:36Z</time>
      </trkpt>
      <trkpt lat="44.51748" lon="4.94493">
        <ele>343</ele>
        <time>2024-03-28T11:26:44Z</time>
      </trkpt>
      <trkpt lat="44.51752" lon="4.9449">
        <ele>344</ele>
        <time>2024-03-28T11:26:50Z</time>
      </trkpt>
      <trkpt lat="44.51758" lon="4.94484">
        <ele>347</ele>
        <time>2024-03-28T11:26:57Z</time>
      </trkpt>
      <trkpt lat="44.51761" lon="4.94479">
        <ele>347</ele>
        <time>2024-03-28T11:27:02Z</time>
      </trkpt>
      <trkpt lat="44.51763" lon="4.94476">
        <ele>346</ele>
        <time>2024-03-28T11:27:05Z</time>
      </trkpt>
      <trkpt lat="44.51771" lon="4.94472">
        <ele>343</ele>
        <time>2024-03-28T11:27:12Z</time>
      </trkpt>
      <trkpt lat="44.51775" lon="4.94471">
        <ele>343</ele>
        <time>2024-03-28T11:27:15Z</time>
      </trkpt>
      <trkpt lat="44.51778" lon="4.94471">
        <ele>342</ele>
        <time>2024-03-28T11:27:18Z</time>
      </trkpt>
      <trkpt lat="44.51781" lon="4.94469">
        <ele>341</ele>
        <time>2024-03-28T11:27:21Z</time>
      </trkpt>
      <trkpt lat="44.51786" lon="4.94466">
        <ele>340</ele>
        <time>2024-03-28T11:27:25Z</time>
      </trkpt>
      <trkpt lat="44.51789" lon="4.94462">
        <ele>341</ele>
        <time>2024-03-28T11:27:29Z</time>
      </trkpt>
      <trkpt lat="44.51793" lon="4.94461">
        <ele>341</ele>
        <time>2024-03-28T11:27:32Z</time>
      </trkpt>
      <trkpt lat="44.51796" lon="4.94459">
        <ele>341</ele>
        <time>2024-03-28T11:27:36Z</time>
      </trkpt>
      <trkpt lat="44.51801" lon="4.94458">
        <ele>342</ele>
        <time>2024-03-28T11:27:40Z</time>
      </trkpt>
      <trkpt lat="44.5181" lon="4.94456">
        <ele>342</ele>
        <time>2024-03-28T11:27:48Z</time>
      </trkpt>
      <trkpt lat="44.51813" lon="4.94452">
        <ele>341</ele>
        <time>2024-03-28T11:27:51Z</time>
      </trkpt>
      <trkpt lat="44.51816" lon="4.9445">
        <ele>341</ele>
        <time>2024-03-28T11:27:54Z</time>
      </trkpt>
      <trkpt lat="44.51826" lon="4.9445">
        <ele>341</ele>
        <time>2024-03-28T11:28:03Z</time>
      </trkpt>
      <trkpt lat="44.51832" lon="4.94444">
        <ele>341</ele>
        <time>2024-03-28T11:28:10Z</time>
      </trkpt>
      <trkpt lat="44.51836" lon="4.94444">
        <ele>341</ele>
        <time>2024-03-28T11:28:15Z</time>
      </trkpt>
      <trkpt lat="44.5184" lon="4.94442">
        <ele>341</ele>
        <time>2024-03-28T11:28:19Z</time>
      </trkpt>
      <trkpt lat="44.5185" lon="4.94449">
        <ele>342</ele>
        <time>2024-03-28T11:28:30Z</time>
      </trkpt>
      <trkpt lat="44.51854" lon="4.94456">
        <ele>342</ele>
        <time>2024-03-28T11:28:35Z</time>
      </trkpt>
      <trkpt lat="44.51857" lon="4.9446">
        <ele>342</ele>
        <time>2024-03-28T11:28:40Z</time>
      </trkpt>
      <trkpt lat="44.51866" lon="4.94473">
        <ele>340</ele>
        <time>2024-03-28T11:28:55Z</time>
      </trkpt>
      <trkpt lat="44.51867" lon="4.94483">
        <ele>338</ele>
        <time>2024-03-28T11:29:01Z</time>
      </trkpt>
      <trkpt lat="44.51869" lon="4.94489">
        <ele>338</ele>
        <time>2024-03-28T11:29:05Z</time>
      </trkpt>
      <trkpt lat="44.51874" lon="4.94498">
        <ele>339</ele>
        <time>2024-03-28T11:29:11Z</time>
      </trkpt>
      <trkpt lat="44.51881" lon="4.94505">
        <ele>340</ele>
        <time>2024-03-28T11:29:17Z</time>
      </trkpt>
      <trkpt lat="44.51885" lon="4.94514">
        <ele>339</ele>
        <time>2024-03-28T11:29:24Z</time>
      </trkpt>
      <trkpt lat="44.51888" lon="4.94516">
        <ele>339</ele>
        <time>2024-03-28T11:29:27Z</time>
      </trkpt>
      <trkpt lat="44.51891" lon="4.94513">
        <ele>338</ele>
        <time>2024-03-28T11:29:30Z</time>
      </trkpt>
      <trkpt lat="44.51892" lon="4.94507">
        <ele>338</ele>
        <time>2024-03-28T11:29:34Z</time>
      </trkpt>
      <trkpt lat="44.51888" lon="4.945">
        <ele>335</ele>
        <time>2024-03-28T11:29:41Z</time>
      </trkpt>
      <trkpt lat="44.51886" lon="4.94491">
        <ele>335</ele>
        <time>2024-03-28T11:29:47Z</time>
      </trkpt>
      <trkpt lat="44.51885" lon="4.94481">
        <ele>333</ele>
        <time>2024-03-28T11:29:56Z</time>
      </trkpt>
      <trkpt lat="44.51885" lon="4.94477">
        <ele>332</ele>
        <time>2024-03-28T11:30:00Z</time>
      </trkpt>
      <trkpt lat="44.51885" lon="4.9447">
        <ele>332</ele>
        <time>2024-03-28T11:30:05Z</time>
      </trkpt>
      <trkpt lat="44.51883" lon="4.94465">
        <ele>332</ele>
        <time>2024-03-28T11:30:10Z</time>
      </trkpt>
      <trkpt lat="44.51882" lon="4.94461">
        <ele>332</ele>
        <time>2024-03-28T11:30:14Z</time>
      </trkpt>
      <trkpt lat="44.5188" lon="4.94456">
        <ele>332</ele>
        <time>2024-03-28T11:30:17Z</time>
      </trkpt>
      <trkpt lat="44.51875" lon="4.94434">
        <ele>331</ele>
        <time>2024-03-28T11:30:35Z</time>
      </trkpt>
      <trkpt lat="44.51872" lon="4.94428">
        <ele>331</ele>
        <time>2024-03-28T11:30:40Z</time>
      </trkpt>
      <trkpt lat="44.51868" lon="4.94413">
        <ele>329</ele>
        <time>2024-03-28T11:30:52Z</time>
      </trkpt>
      <trkpt lat="44.51869" lon="4.94408">
        <ele>329</ele>
        <time>2024-03-28T11:30:56Z</time>
      </trkpt>
      <trkpt lat="44.51871" lon="4.94402">
        <ele>329</ele>
        <time>2024-03-28T11:30:59Z</time>
      </trkpt>
      <trkpt lat="44.5187" lon="4.94398">
        <ele>329</ele>
        <time>2024-03-28T11:31:02Z</time>
      </trkpt>
      <trkpt lat="44.51871" lon="4.94393">
        <ele>329</ele>
        <time>2024-03-28T11:31:05Z</time>
      </trkpt>
      <trkpt lat="44.51873" lon="4.94389">
        <ele>329</ele>
        <time>2024-03-28T11:31:07Z</time>
      </trkpt>
      <trkpt lat="44.51876" lon="4.94386">
        <ele>329</ele>
        <time>2024-03-28T11:31:12Z</time>
      </trkpt>
      <trkpt lat="44.5188" lon="4.94384">
        <ele>330</ele>
        <time>2024-03-28T11:31:19Z</time>
      </trkpt>
      <trkpt lat="44.51883" lon="4.94382">
        <ele>329</ele>
        <time>2024-03-28T11:31:22Z</time>
      </trkpt>
      <trkpt lat="44.51883" lon="4.94377">
        <ele>328</ele>
        <time>2024-03-28T11:31:25Z</time>
      </trkpt>
      <trkpt lat="44.51888" lon="4.94368">
        <ele>326</ele>
        <time>2024-03-28T11:31:31Z</time>
      </trkpt>
      <trkpt lat="44.51886" lon="4.94363">
        <ele>325</ele>
        <time>2024-03-28T11:31:36Z</time>
      </trkpt>
      <trkpt lat="44.51888" lon="4.94361">
        <ele>323</ele>
        <time>2024-03-28T11:31:55Z</time>
      </trkpt>
      <trkpt lat="44.51891" lon="4.94359">
        <ele>322</ele>
        <time>2024-03-28T11:31:59Z</time>
      </trkpt>
      <trkpt lat="44.5189" lon="4.94354">
        <ele>322</ele>
        <time>2024-03-28T11:32:04Z</time>
      </trkpt>
      <trkpt lat="44.51891" lon="4.94351">
        <ele>321</ele>
        <time>2024-03-28T11:32:11Z</time>
      </trkpt>
      <trkpt lat="44.51893" lon="4.94347">
        <ele>320</ele>
        <time>2024-03-28T11:32:15Z</time>
      </trkpt>
      <trkpt lat="44.51899" lon="4.94342">
        <ele>322</ele>
        <time>2024-03-28T11:32:22Z</time>
      </trkpt>
      <trkpt lat="44.51903" lon="4.94341">
        <ele>322</ele>
        <time>2024-03-28T11:32:25Z</time>
      </trkpt>
      <trkpt lat="44.51907" lon="4.94339">
        <ele>323</ele>
        <time>2024-03-28T11:32:30Z</time>
      </trkpt>
      <trkpt lat="44.51911" lon="4.94331">
        <ele>324</ele>
        <time>2024-03-28T11:32:39Z</time>
      </trkpt>
      <trkpt lat="44.51916" lon="4.94328">
        <ele>325</ele>
        <time>2024-03-28T11:32:43Z</time>
      </trkpt>
      <trkpt lat="44.51922" lon="4.94319">
        <ele>326</ele>
        <time>2024-03-28T11:32:51Z</time>
      </trkpt>
      <trkpt lat="44.51924" lon="4.94315">
        <ele>326</ele>
        <time>2024-03-28T11:32:54Z</time>
      </trkpt>
      <trkpt lat="44.51927" lon="4.94309">
        <ele>326</ele>
        <time>2024-03-28T11:32:58Z</time>
      </trkpt>
      <trkpt lat="44.51929" lon="4.94306">
        <ele>327</ele>
        <time>2024-03-28T11:33:03Z</time>
      </trkpt>
      <trkpt lat="44.51937" lon="4.94293">
        <ele>328</ele>
        <time>2024-03-28T11:33:11Z</time>
      </trkpt>
      <trkpt lat="44.51941" lon="4.94282">
        <ele>329</ele>
        <time>2024-03-28T11:33:19Z</time>
      </trkpt>
      <trkpt lat="44.51944" lon="4.94273">
        <ele>330</ele>
        <time>2024-03-28T11:33:26Z</time>
      </trkpt>
      <trkpt lat="44.51945" lon="4.94269">
        <ele>331</ele>
        <time>2024-03-28T11:33:31Z</time>
      </trkpt>
      <trkpt lat="44.51946" lon="4.94264">
        <ele>332</ele>
        <time>2024-03-28T11:33:35Z</time>
      </trkpt>
      <trkpt lat="44.5195" lon="4.94257">
        <ele>332</ele>
        <time>2024-03-28T11:33:41Z</time>
      </trkpt>
      <trkpt lat="44.51953" lon="4.94252">
        <ele>333</ele>
        <time>2024-03-28T11:33:45Z</time>
      </trkpt>
      <trkpt lat="44.51959" lon="4.94242">
        <ele>332</ele>
        <time>2024-03-28T11:33:52Z</time>
      </trkpt>
      <trkpt lat="44.51964" lon="4.94235">
        <ele>331</ele>
        <time>2024-03-28T11:33:59Z</time>
      </trkpt>
      <trkpt lat="44.51968" lon="4.94226">
        <ele>332</ele>
        <time>2024-03-28T11:34:06Z</time>
      </trkpt>
      <trkpt lat="44.51971" lon="4.94223">
        <ele>334</ele>
        <time>2024-03-28T11:34:10Z</time>
      </trkpt>
      <trkpt lat="44.51986" lon="4.94222">
        <ele>335</ele>
        <time>2024-03-28T11:34:22Z</time>
      </trkpt>
      <trkpt lat="44.51989" lon="4.94221">
        <ele>335</ele>
        <time>2024-03-28T11:34:25Z</time>
      </trkpt>
      <trkpt lat="44.51992" lon="4.94222">
        <ele>336</ele>
        <time>2024-03-28T11:34:29Z</time>
      </trkpt>
      <trkpt lat="44.51999" lon="4.94219">
        <ele>337</ele>
        <time>2024-03-28T11:34:37Z</time>
      </trkpt>
      <trkpt lat="44.52001" lon="4.94218">
        <ele>338</ele>
        <time>2024-03-28T11:34:40Z</time>
      </trkpt>
      <trkpt lat="44.52021" lon="4.9422">
        <ele>338</ele>
        <time>2024-03-28T11:35:00Z</time>
      </trkpt>
      <trkpt lat="44.52026" lon="4.94225">
        <ele>341</ele>
        <time>2024-03-28T11:35:06Z</time>
      </trkpt>
      <trkpt lat="44.52032" lon="4.94222">
        <ele>341</ele>
        <time>2024-03-28T11:35:15Z</time>
      </trkpt>
      <trkpt lat="44.52035" lon="4.94223">
        <ele>340</ele>
        <time>2024-03-28T11:35:18Z</time>
      </trkpt>
      <trkpt lat="44.52045" lon="4.94223">
        <ele>340</ele>
        <time>2024-03-28T11:35:30Z</time>
      </trkpt>
      <trkpt lat="44.52049" lon="4.94224">
        <ele>340</ele>
        <time>2024-03-28T11:35:34Z</time>
      </trkpt>
      <trkpt lat="44.52055" lon="4.94226">
        <ele>341</ele>
        <time>2024-03-28T11:35:41Z</time>
      </trkpt>
      <trkpt lat="44.52065" lon="4.94228">
        <ele>342</ele>
        <time>2024-03-28T11:35:53Z</time>
      </trkpt>
      <trkpt lat="44.52066" lon="4.94221">
        <ele>343</ele>
        <time>2024-03-28T11:36:51Z</time>
      </trkpt>
      <trkpt lat="44.52067" lon="4.94217">
        <ele>344</ele>
        <time>2024-03-28T11:37:05Z</time>
      </trkpt>
      <trkpt lat="44.52073" lon="4.94222">
        <ele>345</ele>
        <time>2024-03-28T11:37:33Z</time>
      </trkpt>
      <trkpt lat="44.52077" lon="4.94223">
        <ele>344</ele>
        <time>2024-03-28T11:37:36Z</time>
      </trkpt>
      <trkpt lat="44.52084" lon="4.9423">
        <ele>344</ele>
        <time>2024-03-28T11:37:43Z</time>
      </trkpt>
      <trkpt lat="44.52089" lon="4.94231">
        <ele>344</ele>
        <time>2024-03-28T11:37:48Z</time>
      </trkpt>
      <trkpt lat="44.52093" lon="4.94234">
        <ele>343</ele>
        <time>2024-03-28T11:37:53Z</time>
      </trkpt>
      <trkpt lat="44.52097" lon="4.94236">
        <ele>343</ele>
        <time>2024-03-28T11:37:57Z</time>
      </trkpt>
      <trkpt lat="44.521" lon="4.94235">
        <ele>343</ele>
        <time>2024-03-28T11:38:01Z</time>
      </trkpt>
      <trkpt lat="44.52128" lon="4.94243">
        <ele>343</ele>
        <time>2024-03-28T11:38:29Z</time>
      </trkpt>
      <trkpt lat="44.52131" lon="4.94243">
        <ele>343</ele>
        <time>2024-03-28T11:38:33Z</time>
      </trkpt>
      <trkpt lat="44.52135" lon="4.94241">
        <ele>344</ele>
        <time>2024-03-28T11:38:37Z</time>
      </trkpt>
      <trkpt lat="44.52137" lon="4.9424">
        <ele>344</ele>
        <time>2024-03-28T11:38:39Z</time>
      </trkpt>
      <trkpt lat="44.52139" lon="4.94236">
        <ele>344</ele>
        <time>2024-03-28T11:38:41Z</time>
      </trkpt>
      <trkpt lat="44.52139" lon="4.94231">
        <ele>344</ele>
        <time>2024-03-28T11:38:44Z</time>
      </trkpt>
      <trkpt lat="44.52139" lon="4.94227">
        <ele>344</ele>
        <time>2024-03-28T11:38:46Z</time>
      </trkpt>
      <trkpt lat="44.52134" lon="4.9422">
        <ele>344</ele>
        <time>2024-03-28T11:38:50Z</time>
      </trkpt>
      <trkpt lat="44.52133" lon="4.94215">
        <ele>344</ele>
        <time>2024-03-28T11:38:53Z</time>
      </trkpt>
      <trkpt lat="44.52128" lon="4.94209">
        <ele>345</ele>
        <time>2024-03-28T11:38:57Z</time>
      </trkpt>
      <trkpt lat="44.52127" lon="4.94205">
        <ele>345</ele>
        <time>2024-03-28T11:39:01Z</time>
      </trkpt>
      <trkpt lat="44.52124" lon="4.94202">
        <ele>344</ele>
        <time>2024-03-28T11:39:06Z</time>
      </trkpt>
      <trkpt lat="44.52121" lon="4.94199">
        <ele>344</ele>
        <time>2024-03-28T11:39:10Z</time>
      </trkpt>
      <trkpt lat="44.52113" lon="4.94187">
        <ele>343</ele>
        <time>2024-03-28T11:39:19Z</time>
      </trkpt>
      <trkpt lat="44.5211" lon="4.94184">
        <ele>342</ele>
        <time>2024-03-28T11:39:21Z</time>
      </trkpt>
      <trkpt lat="44.52109" lon="4.94178">
        <ele>342</ele>
        <time>2024-03-28T11:39:24Z</time>
      </trkpt>
      <trkpt lat="44.52106" lon="4.94175">
        <ele>343</ele>
        <time>2024-03-28T11:39:28Z</time>
      </trkpt>
      <trkpt lat="44.52105" lon="4.94169">
        <ele>343</ele>
        <time>2024-03-28T11:39:31Z</time>
      </trkpt>
      <trkpt lat="44.52098" lon="4.94159">
        <ele>344</ele>
        <time>2024-03-28T11:39:39Z</time>
      </trkpt>
      <trkpt lat="44.52096" lon="4.94156">
        <ele>344</ele>
        <time>2024-03-28T11:39:43Z</time>
      </trkpt>
      <trkpt lat="44.52089" lon="4.94153">
        <ele>346</ele>
        <time>2024-03-28T11:39:51Z</time>
      </trkpt>
      <trkpt lat="44.52083" lon="4.94148">
        <ele>348</ele>
        <time>2024-03-28T11:39:58Z</time>
      </trkpt>
      <trkpt lat="44.52078" lon="4.9414">
        <ele>348</ele>
        <time>2024-03-28T11:40:04Z</time>
      </trkpt>
      <trkpt lat="44.52074" lon="4.94136">
        <ele>348</ele>
        <time>2024-03-28T11:40:08Z</time>
      </trkpt>
      <trkpt lat="44.52069" lon="4.94129">
        <ele>347</ele>
        <time>2024-03-28T11:40:13Z</time>
      </trkpt>
      <trkpt lat="44.52067" lon="4.94126">
        <ele>348</ele>
        <time>2024-03-28T11:40:16Z</time>
      </trkpt>
      <trkpt lat="44.52064" lon="4.94125">
        <ele>348</ele>
        <time>2024-03-28T11:40:20Z</time>
      </trkpt>
      <trkpt lat="44.52061" lon="4.94124">
        <ele>349</ele>
        <time>2024-03-28T11:40:22Z</time>
      </trkpt>
      <trkpt lat="44.52059" lon="4.94121">
        <ele>348</ele>
        <time>2024-03-28T11:40:25Z</time>
      </trkpt>
      <trkpt lat="44.52057" lon="4.94118">
        <ele>348</ele>
        <time>2024-03-28T11:40:27Z</time>
      </trkpt>
      <trkpt lat="44.5205" lon="4.94112">
        <ele>349</ele>
        <time>2024-03-28T11:40:36Z</time>
      </trkpt>
      <trkpt lat="44.52046" lon="4.94108">
        <ele>349</ele>
        <time>2024-03-28T11:40:40Z</time>
      </trkpt>
      <trkpt lat="44.5204" lon="4.94104">
        <ele>351</ele>
        <time>2024-03-28T11:40:46Z</time>
      </trkpt>
      <trkpt lat="44.52035" lon="4.94103">
        <ele>351</ele>
        <time>2024-03-28T11:40:50Z</time>
      </trkpt>
      <trkpt lat="44.52032" lon="4.94101">
        <ele>352</ele>
        <time>2024-03-28T11:40:54Z</time>
      </trkpt>
      <trkpt lat="44.52029" lon="4.94098">
        <ele>352</ele>
        <time>2024-03-28T11:40:57Z</time>
      </trkpt>
      <trkpt lat="44.52026" lon="4.94097">
        <ele>353</ele>
        <time>2024-03-28T11:41:00Z</time>
      </trkpt>
      <trkpt lat="44.52024" lon="4.94092">
        <ele>353</ele>
        <time>2024-03-28T11:41:03Z</time>
      </trkpt>
      <trkpt lat="44.52021" lon="4.9409">
        <ele>353</ele>
        <time>2024-03-28T11:41:06Z</time>
      </trkpt>
      <trkpt lat="44.51993" lon="4.94061">
        <ele>355</ele>
        <time>2024-03-28T11:41:37Z</time>
      </trkpt>
      <trkpt lat="44.51991" lon="4.94056">
        <ele>355</ele>
        <time>2024-03-28T11:41:41Z</time>
      </trkpt>
      <trkpt lat="44.51989" lon="4.94052">
        <ele>355</ele>
        <time>2024-03-28T11:41:45Z</time>
      </trkpt>
      <trkpt lat="44.51987" lon="4.94045">
        <ele>354</ele>
        <time>2024-03-28T11:41:49Z</time>
      </trkpt>
      <trkpt lat="44.51984" lon="4.9404">
        <ele>355</ele>
        <time>2024-03-28T11:41:54Z</time>
      </trkpt>
      <trkpt lat="44.51984" lon="4.94034">
        <ele>354</ele>
        <time>2024-03-28T11:41:57Z</time>
      </trkpt>
      <trkpt lat="44.51982" lon="4.94017">
        <ele>353</ele>
        <time>2024-03-28T11:42:10Z</time>
      </trkpt>
      <trkpt lat="44.51982" lon="4.94008">
        <ele>353</ele>
        <time>2024-03-28T11:42:15Z</time>
      </trkpt>
      <trkpt lat="44.51981" lon="4.94002">
        <ele>354</ele>
        <time>2024-03-28T11:42:20Z</time>
      </trkpt>
      <trkpt lat="44.51979" lon="4.93997">
        <ele>355</ele>
        <time>2024-03-28T11:42:24Z</time>
      </trkpt>
      <trkpt lat="44.51976" lon="4.93988">
        <ele>356</ele>
        <time>2024-03-28T11:42:29Z</time>
      </trkpt>
      <trkpt lat="44.51976" lon="4.93984">
        <ele>356</ele>
        <time>2024-03-28T11:42:32Z</time>
      </trkpt>
      <trkpt lat="44.51977" lon="4.93979">
        <ele>357</ele>
        <time>2024-03-28T11:42:35Z</time>
      </trkpt>
      <trkpt lat="44.5198" lon="4.93979">
        <ele>358</ele>
        <time>2024-03-28T11:42:42Z</time>
      </trkpt>
      <trkpt lat="44.51982" lon="4.93983">
        <ele>360</ele>
        <time>2024-03-28T11:42:45Z</time>
      </trkpt>
      <trkpt lat="44.51985" lon="4.94006">
        <ele>366</ele>
        <time>2024-03-28T11:43:02Z</time>
      </trkpt>
      <trkpt lat="44.51988" lon="4.94012">
        <ele>367</ele>
        <time>2024-03-28T11:43:06Z</time>
      </trkpt>
      <trkpt lat="44.51988" lon="4.94015">
        <ele>368</ele>
        <time>2024-03-28T11:43:08Z</time>
      </trkpt>
      <trkpt lat="44.51993" lon="4.94031">
        <ele>369</ele>
        <time>2024-03-28T11:43:20Z</time>
      </trkpt>
      <trkpt lat="44.51999" lon="4.94036">
        <ele>369</ele>
        <time>2024-03-28T11:43:26Z</time>
      </trkpt>
      <trkpt lat="44.52001" lon="4.94038">
        <ele>369</ele>
        <time>2024-03-28T11:43:28Z</time>
      </trkpt>
      <trkpt lat="44.52004" lon="4.94042">
        <ele>370</ele>
        <time>2024-03-28T11:43:31Z</time>
      </trkpt>
      <trkpt lat="44.52006" lon="4.94044">
        <ele>370</ele>
        <time>2024-03-28T11:43:35Z</time>
      </trkpt>
      <trkpt lat="44.52018" lon="4.94056">
        <ele>371</ele>
        <time>2024-03-28T11:43:49Z</time>
      </trkpt>
      <trkpt lat="44.52034" lon="4.94071">
        <ele>372</ele>
        <time>2024-03-28T11:44:07Z</time>
      </trkpt>
      <trkpt lat="44.5204" lon="4.94074">
        <ele>373</ele>
        <time>2024-03-28T11:44:13Z</time>
      </trkpt>
      <trkpt lat="44.5205" lon="4.9408">
        <ele>375</ele>
        <time>2024-03-28T11:44:24Z</time>
      </trkpt>
      <trkpt lat="44.52053" lon="4.94082">
        <ele>375</ele>
        <time>2024-03-28T11:44:27Z</time>
      </trkpt>
      <trkpt lat="44.52066" lon="4.94086">
        <ele>376</ele>
        <time>2024-03-28T11:44:40Z</time>
      </trkpt>
      <trkpt lat="44.5207" lon="4.94087">
        <ele>376</ele>
        <time>2024-03-28T11:44:45Z</time>
      </trkpt>
      <trkpt lat="44.52075" lon="4.94089">
        <ele>378</ele>
        <time>2024-03-28T11:44:50Z</time>
      </trkpt>
      <trkpt lat="44.52081" lon="4.9409">
        <ele>379</ele>
        <time>2024-03-28T11:44:55Z</time>
      </trkpt>
      <trkpt lat="44.52085" lon="4.94091">
        <ele>379</ele>
        <time>2024-03-28T11:44:58Z</time>
      </trkpt>
      <trkpt lat="44.52088" lon="4.94094">
        <ele>378</ele>
        <time>2024-03-28T11:45:01Z</time>
      </trkpt>
      <trkpt lat="44.52092" lon="4.94095">
        <ele>379</ele>
        <time>2024-03-28T11:45:05Z</time>
      </trkpt>
      <trkpt lat="44.52099" lon="4.94102">
        <ele>380</ele>
        <time>2024-03-28T11:45:10Z</time>
      </trkpt>
      <trkpt lat="44.52121" lon="4.94112">
        <ele>384</ele>
        <time>2024-03-28T11:45:35Z</time>
      </trkpt>
      <trkpt lat="44.52124" lon="4.94116">
        <ele>385</ele>
        <time>2024-03-28T11:45:38Z</time>
      </trkpt>
      <trkpt lat="44.52127" lon="4.94116">
        <ele>385</ele>
        <time>2024-03-28T11:45:41Z</time>
      </trkpt>
      <trkpt lat="44.52134" lon="4.9412">
        <ele>384</ele>
        <time>2024-03-28T11:45:48Z</time>
      </trkpt>
      <trkpt lat="44.52146" lon="4.94126">
        <ele>386</ele>
        <time>2024-03-28T11:46:01Z</time>
      </trkpt>
      <trkpt lat="44.52154" lon="4.94132">
        <ele>386</ele>
        <time>2024-03-28T11:46:11Z</time>
      </trkpt>
      <trkpt lat="44.52163" lon="4.94139">
        <ele>385</ele>
        <time>2024-03-28T11:46:21Z</time>
      </trkpt>
      <trkpt lat="44.52171" lon="4.94141">
        <ele>386</ele>
        <time>2024-03-28T11:46:30Z</time>
      </trkpt>
      <trkpt lat="44.52177" lon="4.94144">
        <ele>386</ele>
        <time>2024-03-28T11:46:34Z</time>
      </trkpt>
      <trkpt lat="44.52184" lon="4.94152">
        <ele>388</ele>
        <time>2024-03-28T11:46:43Z</time>
      </trkpt>
      <trkpt lat="44.52187" lon="4.94156">
        <ele>388</ele>
        <time>2024-03-28T11:46:46Z</time>
      </trkpt>
      <trkpt lat="44.52191" lon="4.94156">
        <ele>389</ele>
        <time>2024-03-28T11:46:50Z</time>
      </trkpt>
      <trkpt lat="44.52194" lon="4.94153">
        <ele>389</ele>
        <time>2024-03-28T11:46:53Z</time>
      </trkpt>
      <trkpt lat="44.52206" lon="4.94153">
        <ele>390</ele>
        <time>2024-03-28T11:47:03Z</time>
      </trkpt>
      <trkpt lat="44.52212" lon="4.94155">
        <ele>390</ele>
        <time>2024-03-28T11:47:10Z</time>
      </trkpt>
      <trkpt lat="44.52219" lon="4.94157">
        <ele>391</ele>
        <time>2024-03-28T11:47:17Z</time>
      </trkpt>
      <trkpt lat="44.52232" lon="4.94171">
        <ele>392</ele>
        <time>2024-03-28T11:47:34Z</time>
      </trkpt>
      <trkpt lat="44.52248" lon="4.94188">
        <ele>392</ele>
        <time>2024-03-28T11:47:53Z</time>
      </trkpt>
      <trkpt lat="44.52252" lon="4.94189">
        <ele>392</ele>
        <time>2024-03-28T11:47:57Z</time>
      </trkpt>
      <trkpt lat="44.52258" lon="4.94199">
        <ele>393</ele>
        <time>2024-03-28T11:48:05Z</time>
      </trkpt>
      <trkpt lat="44.52275" lon="4.94226">
        <ele>394</ele>
        <time>2024-03-28T11:48:30Z</time>
      </trkpt>
      <trkpt lat="44.5228" lon="4.94231">
        <ele>394</ele>
        <time>2024-03-28T11:48:35Z</time>
      </trkpt>
      <trkpt lat="44.52284" lon="4.94236">
        <ele>392</ele>
        <time>2024-03-28T11:48:40Z</time>
      </trkpt>
      <trkpt lat="44.52288" lon="4.94238">
        <ele>392</ele>
        <time>2024-03-28T11:48:45Z</time>
      </trkpt>
      <trkpt lat="44.52291" lon="4.94243">
        <ele>392</ele>
        <time>2024-03-28T11:48:52Z</time>
      </trkpt>
      <trkpt lat="44.52294" lon="4.94246">
        <ele>392</ele>
        <time>2024-03-28T11:48:55Z</time>
      </trkpt>
      <trkpt lat="44.523" lon="4.94248">
        <ele>393</ele>
        <time>2024-03-28T11:49:00Z</time>
      </trkpt>
      <trkpt lat="44.52314" lon="4.94253">
        <ele>396</ele>
        <time>2024-03-28T11:49:15Z</time>
      </trkpt>
      <trkpt lat="44.52317" lon="4.94253">
        <ele>396</ele>
        <time>2024-03-28T11:49:19Z</time>
      </trkpt>
      <trkpt lat="44.52321" lon="4.94254">
        <ele>397</ele>
        <time>2024-03-28T11:49:23Z</time>
      </trkpt>
      <trkpt lat="44.52325" lon="4.94257">
        <ele>398</ele>
        <time>2024-03-28T11:49:27Z</time>
      </trkpt>
      <trkpt lat="44.52331" lon="4.94265">
        <ele>396</ele>
        <time>2024-03-28T11:49:33Z</time>
      </trkpt>
      <trkpt lat="44.52335" lon="4.94265">
        <ele>396</ele>
        <time>2024-03-28T11:49:38Z</time>
      </trkpt>
      <trkpt lat="44.52351" lon="4.94258">
        <ele>398</ele>
        <time>2024-03-28T11:49:51Z</time>
      </trkpt>
      <trkpt lat="44.52356" lon="4.94255">
        <ele>398</ele>
        <time>2024-03-28T11:49:55Z</time>
      </trkpt>
      <trkpt lat="44.52366" lon="4.94247">
        <ele>397</ele>
        <time>2024-03-28T11:50:06Z</time>
      </trkpt>
      <trkpt lat="44.5237" lon="4.94246">
        <ele>397</ele>
        <time>2024-03-28T11:50:10Z</time>
      </trkpt>
      <trkpt lat="44.52373" lon="4.94242">
        <ele>397</ele>
        <time>2024-03-28T11:50:13Z</time>
      </trkpt>
      <trkpt lat="44.52375" lon="4.94237">
        <ele>398</ele>
        <time>2024-03-28T11:50:16Z</time>
      </trkpt>
      <trkpt lat="44.5238" lon="4.94236">
        <ele>398</ele>
        <time>2024-03-28T11:50:20Z</time>
      </trkpt>
      <trkpt lat="44.52383" lon="4.94234">
        <ele>400</ele>
        <time>2024-03-28T11:50:23Z</time>
      </trkpt>
      <trkpt lat="44.52386" lon="4.94233">
        <ele>401</ele>
        <time>2024-03-28T11:50:26Z</time>
      </trkpt>
      <trkpt lat="44.52391" lon="4.94233">
        <ele>402</ele>
        <time>2024-03-28T11:50:30Z</time>
      </trkpt>
      <trkpt lat="44.52396" lon="4.94233">
        <ele>404</ele>
        <time>2024-03-28T11:50:34Z</time>
      </trkpt>
      <trkpt lat="44.52411" lon="4.94248">
        <ele>410</ele>
        <time>2024-03-28T11:50:51Z</time>
      </trkpt>
      <trkpt lat="44.52419" lon="4.94252">
        <ele>412</ele>
        <time>2024-03-28T11:51:00Z</time>
      </trkpt>
      <trkpt lat="44.5242" lon="4.94256">
        <ele>412</ele>
        <time>2024-03-28T11:51:06Z</time>
      </trkpt>
      <trkpt lat="44.5242" lon="4.9426">
        <ele>413</ele>
        <time>2024-03-28T11:51:10Z</time>
      </trkpt>
      <trkpt lat="44.52422" lon="4.94269">
        <ele>414</ele>
        <time>2024-03-28T11:51:14Z</time>
      </trkpt>
      <trkpt lat="44.52424" lon="4.94281">
        <ele>414</ele>
        <time>2024-03-28T11:51:22Z</time>
      </trkpt>
      <trkpt lat="44.52425" lon="4.94287">
        <ele>413</ele>
        <time>2024-03-28T11:51:26Z</time>
      </trkpt>
      <trkpt lat="44.52424" lon="4.94292">
        <ele>414</ele>
        <time>2024-03-28T11:51:31Z</time>
      </trkpt>
      <trkpt lat="44.52424" lon="4.94297">
        <ele>414</ele>
        <time>2024-03-28T11:51:35Z</time>
      </trkpt>
      <trkpt lat="44.52425" lon="4.94301">
        <ele>413</ele>
        <time>2024-03-28T11:51:42Z</time>
      </trkpt>
      <trkpt lat="44.52427" lon="4.94312">
        <ele>414</ele>
        <time>2024-03-28T11:51:50Z</time>
      </trkpt>
      <trkpt lat="44.52428" lon="4.94327">
        <ele>414</ele>
        <time>2024-03-28T11:52:01Z</time>
      </trkpt>
      <trkpt lat="44.52427" lon="4.94331">
        <ele>414</ele>
        <time>2024-03-28T11:52:04Z</time>
      </trkpt>
      <trkpt lat="44.52426" lon="4.94346">
        <ele>414</ele>
        <time>2024-03-28T11:52:13Z</time>
      </trkpt>
      <trkpt lat="44.52425" lon="4.94351">
        <ele>414</ele>
        <time>2024-03-28T11:52:16Z</time>
      </trkpt>
      <trkpt lat="44.52424" lon="4.94355">
        <ele>413</ele>
        <time>2024-03-28T11:52:20Z</time>
      </trkpt>
      <trkpt lat="44.52422" lon="4.94362">
        <ele>413</ele>
        <time>2024-03-28T11:52:25Z</time>
      </trkpt>
      <trkpt lat="44.52419" lon="4.94374">
        <ele>415</ele>
        <time>2024-03-28T11:52:33Z</time>
      </trkpt>
      <trkpt lat="44.52417" lon="4.94385">
        <ele>415</ele>
        <time>2024-03-28T11:52:40Z</time>
      </trkpt>
      <trkpt lat="44.52419" lon="4.94391">
        <ele>415</ele>
        <time>2024-03-28T11:52:43Z</time>
      </trkpt>
      <trkpt lat="44.52419" lon="4.94396">
        <ele>416</ele>
        <time>2024-03-28T11:52:47Z</time>
      </trkpt>
      <trkpt lat="44.5242" lon="4.94401">
        <ele>415</ele>
        <time>2024-03-28T11:52:50Z</time>
      </trkpt>
      <trkpt lat="44.52425" lon="4.94416">
        <ele>415</ele>
        <time>2024-03-28T11:53:00Z</time>
      </trkpt>
      <trkpt lat="44.52429" lon="4.94424">
        <ele>415</ele>
        <time>2024-03-28T11:53:05Z</time>
      </trkpt>
      <trkpt lat="44.5243" lon="4.94431">
        <ele>416</ele>
        <time>2024-03-28T11:53:08Z</time>
      </trkpt>
      <trkpt lat="44.52434" lon="4.94441">
        <ele>415</ele>
        <time>2024-03-28T11:53:15Z</time>
      </trkpt>
      <trkpt lat="44.52435" lon="4.94447">
        <ele>415</ele>
        <time>2024-03-28T11:53:18Z</time>
      </trkpt>
      <trkpt lat="44.52438" lon="4.94452">
        <ele>415</ele>
        <time>2024-03-28T11:53:21Z</time>
      </trkpt>
      <trkpt lat="44.52441" lon="4.94455">
        <ele>416</ele>
        <time>2024-03-28T11:53:25Z</time>
      </trkpt>
      <trkpt lat="44.52443" lon="4.94457">
        <ele>417</ele>
        <time>2024-03-28T11:53:28Z</time>
      </trkpt>
      <trkpt lat="44.52448" lon="4.94461">
        <ele>417</ele>
        <time>2024-03-28T11:53:33Z</time>
      </trkpt>
      <trkpt lat="44.5245" lon="4.94468">
        <ele>415</ele>
        <time>2024-03-28T11:53:38Z</time>
      </trkpt>
      <trkpt lat="44.5246" lon="4.94473">
        <ele>417</ele>
        <time>2024-03-28T11:53:48Z</time>
      </trkpt>
      <trkpt lat="44.52465" lon="4.94474">
        <ele>418</ele>
        <time>2024-03-28T11:53:51Z</time>
      </trkpt>
      <trkpt lat="44.52474" lon="4.94477">
        <ele>419</ele>
        <time>2024-03-28T11:53:57Z</time>
      </trkpt>
      <trkpt lat="44.52477" lon="4.94477">
        <ele>419</ele>
        <time>2024-03-28T11:54:00Z</time>
      </trkpt>
      <trkpt lat="44.52482" lon="4.94479">
        <ele>419</ele>
        <time>2024-03-28T11:54:04Z</time>
      </trkpt>
      <trkpt lat="44.52503" lon="4.94482">
        <ele>419</ele>
        <time>2024-03-28T11:54:24Z</time>
      </trkpt>
      <trkpt lat="44.52506" lon="4.94483">
        <ele>419</ele>
        <time>2024-03-28T11:54:27Z</time>
      </trkpt>
      <trkpt lat="44.52509" lon="4.94485">
        <ele>420</ele>
        <time>2024-03-28T11:54:30Z</time>
      </trkpt>
      <trkpt lat="44.52528" lon="4.94492">
        <ele>421</ele>
        <time>2024-03-28T11:54:46Z</time>
      </trkpt>
      <trkpt lat="44.52532" lon="4.94497">
        <ele>421</ele>
        <time>2024-03-28T11:54:50Z</time>
      </trkpt>
      <trkpt lat="44.52534" lon="4.945">
        <ele>421</ele>
        <time>2024-03-28T11:54:53Z</time>
      </trkpt>
      <trkpt lat="44.52539" lon="4.94503">
        <ele>422</ele>
        <time>2024-03-28T11:54:57Z</time>
      </trkpt>
      <trkpt lat="44.52539" lon="4.94509">
        <ele>422</ele>
        <time>2024-03-28T11:55:01Z</time>
      </trkpt>
      <trkpt lat="44.52541" lon="4.94515">
        <ele>423</ele>
        <time>2024-03-28T11:55:05Z</time>
      </trkpt>
      <trkpt lat="44.52545" lon="4.94526">
        <ele>427</ele>
        <time>2024-03-28T11:55:13Z</time>
      </trkpt>
      <trkpt lat="44.52546" lon="4.94531">
        <ele>428</ele>
        <time>2024-03-28T11:55:17Z</time>
      </trkpt>
      <trkpt lat="44.52546" lon="4.94536">
        <ele>428</ele>
        <time>2024-03-28T11:55:20Z</time>
      </trkpt>
      <trkpt lat="44.52546" lon="4.94548">
        <ele>429</ele>
        <time>2024-03-28T11:55:28Z</time>
      </trkpt>
      <trkpt lat="44.52545" lon="4.94554">
        <ele>428</ele>
        <time>2024-03-28T11:55:32Z</time>
      </trkpt>
      <trkpt lat="44.52547" lon="4.94561">
        <ele>427</ele>
        <time>2024-03-28T11:55:37Z</time>
      </trkpt>
      <trkpt lat="44.52548" lon="4.94567">
        <ele>427</ele>
        <time>2024-03-28T11:55:40Z</time>
      </trkpt>
      <trkpt lat="44.52549" lon="4.94585">
        <ele>429</ele>
        <time>2024-03-28T11:55:50Z</time>
      </trkpt>
      <trkpt lat="44.52551" lon="4.94591">
        <ele>429</ele>
        <time>2024-03-28T11:55:54Z</time>
      </trkpt>
      <trkpt lat="44.52555" lon="4.94603">
        <ele>430</ele>
        <time>2024-03-28T11:56:03Z</time>
      </trkpt>
      <trkpt lat="44.52557" lon="4.94609">
        <ele>431</ele>
        <time>2024-03-28T11:56:07Z</time>
      </trkpt>
      <trkpt lat="44.5256" lon="4.94613">
        <ele>431</ele>
        <time>2024-03-28T11:56:10Z</time>
      </trkpt>
      <trkpt lat="44.52563" lon="4.94629">
        <ele>433</ele>
        <time>2024-03-28T11:56:19Z</time>
      </trkpt>
      <trkpt lat="44.52563" lon="4.94637">
        <ele>434</ele>
        <time>2024-03-28T11:56:27Z</time>
      </trkpt>
      <trkpt lat="44.52561" lon="4.94636">
        <ele>432</ele>
        <time>2024-03-28T11:56:48Z</time>
      </trkpt>
      <trkpt lat="44.52563" lon="4.94634">
        <ele>431</ele>
        <time>2024-03-28T11:57:10Z</time>
      </trkpt>
      <trkpt lat="44.52566" lon="4.94634">
        <ele>431</ele>
        <time>2024-03-28T11:57:35Z</time>
      </trkpt>
      <trkpt lat="44.52567" lon="4.94632">
        <ele>430</ele>
        <time>2024-03-28T12:01:57Z</time>
      </trkpt>
      <trkpt lat="44.52568" lon="4.94621">
        <ele>430</ele>
        <time>2024-03-28T12:02:12Z</time>
      </trkpt>
      <trkpt lat="44.52567" lon="4.94606">
        <ele>429</ele>
        <time>2024-03-28T12:02:31Z</time>
      </trkpt>
      <trkpt lat="44.52565" lon="4.94603">
        <ele>427</ele>
        <time>2024-03-28T12:02:35Z</time>
      </trkpt>
      <trkpt lat="44.52566" lon="4.94592">
        <ele>426</ele>
        <time>2024-03-28T12:02:47Z</time>
      </trkpt>
      <trkpt lat="44.52567" lon="4.94587">
        <ele>426</ele>
        <time>2024-03-28T12:02:55Z</time>
      </trkpt>
      <trkpt lat="44.52565" lon="4.94582">
        <ele>426</ele>
        <time>2024-03-28T12:03:02Z</time>
      </trkpt>
      <trkpt lat="44.52566" lon="4.94576">
        <ele>426</ele>
        <time>2024-03-28T12:03:08Z</time>
      </trkpt>
      <trkpt lat="44.52566" lon="4.9457">
        <ele>424</ele>
        <time>2024-03-28T12:03:15Z</time>
      </trkpt>
      <trkpt lat="44.5257" lon="4.94566">
        <ele>422</ele>
        <time>2024-03-28T12:03:24Z</time>
      </trkpt>
      <trkpt lat="44.52569" lon="4.94561">
        <ele>422</ele>
        <time>2024-03-28T12:03:35Z</time>
      </trkpt>
      <trkpt lat="44.5257" lon="4.94555">
        <ele>422</ele>
        <time>2024-03-28T12:03:45Z</time>
      </trkpt>
      <trkpt lat="44.52571" lon="4.94549">
        <ele>420</ele>
        <time>2024-03-28T12:03:52Z</time>
      </trkpt>
      <trkpt lat="44.52576" lon="4.94538">
        <ele>420</ele>
        <time>2024-03-28T12:04:05Z</time>
      </trkpt>
      <trkpt lat="44.52578" lon="4.94534">
        <ele>419</ele>
        <time>2024-03-28T12:04:15Z</time>
      </trkpt>
      <trkpt lat="44.52581" lon="4.9453">
        <ele>418</ele>
        <time>2024-03-28T12:04:23Z</time>
      </trkpt>
      <trkpt lat="44.52582" lon="4.94525">
        <ele>418</ele>
        <time>2024-03-28T12:04:28Z</time>
      </trkpt>
      <trkpt lat="44.52582" lon="4.9452">
        <ele>417</ele>
        <time>2024-03-28T12:04:35Z</time>
      </trkpt>
      <trkpt lat="44.52584" lon="4.94516">
        <ele>416</ele>
        <time>2024-03-28T12:04:48Z</time>
      </trkpt>
      <trkpt lat="44.52586" lon="4.9451">
        <ele>415</ele>
        <time>2024-03-28T12:04:56Z</time>
      </trkpt>
      <trkpt lat="44.5259" lon="4.94506">
        <ele>413</ele>
        <time>2024-03-28T12:05:01Z</time>
      </trkpt>
      <trkpt lat="44.52591" lon="4.94499">
        <ele>411</ele>
        <time>2024-03-28T12:05:16Z</time>
      </trkpt>
      <trkpt lat="44.52593" lon="4.94493">
        <ele>411</ele>
        <time>2024-03-28T12:05:22Z</time>
      </trkpt>
      <trkpt lat="44.52597" lon="4.9449">
        <ele>410</ele>
        <time>2024-03-28T12:05:26Z</time>
      </trkpt>
      <trkpt lat="44.52595" lon="4.94486">
        <ele>410</ele>
        <time>2024-03-28T12:05:32Z</time>
      </trkpt>
      <trkpt lat="44.52598" lon="4.94476">
        <ele>408</ele>
        <time>2024-03-28T12:05:41Z</time>
      </trkpt>
      <trkpt lat="44.52598" lon="4.94468">
        <ele>407</ele>
        <time>2024-03-28T12:05:49Z</time>
      </trkpt>
      <trkpt lat="44.52596" lon="4.94463">
        <ele>406</ele>
        <time>2024-03-28T12:05:55Z</time>
      </trkpt>
      <trkpt lat="44.52595" lon="4.94456">
        <ele>405</ele>
        <time>2024-03-28T12:06:04Z</time>
      </trkpt>
      <trkpt lat="44.52595" lon="4.9445">
        <ele>404</ele>
        <time>2024-03-28T12:06:09Z</time>
      </trkpt>
      <trkpt lat="44.52595" lon="4.94445">
        <ele>403</ele>
        <time>2024-03-28T12:06:15Z</time>
      </trkpt>
      <trkpt lat="44.52594" lon="4.9444">
        <ele>404</ele>
        <time>2024-03-28T12:06:24Z</time>
      </trkpt>
      <trkpt lat="44.52592" lon="4.94436">
        <ele>404</ele>
        <time>2024-03-28T12:06:29Z</time>
      </trkpt>
      <trkpt lat="44.52591" lon="4.9443">
        <ele>403</ele>
        <time>2024-03-28T12:06:37Z</time>
      </trkpt>
      <trkpt lat="44.52593" lon="4.94432">
        <ele>401</ele>
        <time>2024-03-28T12:07:00Z</time>
      </trkpt>
      <trkpt lat="44.52596" lon="4.94437">
        <ele>399</ele>
        <time>2024-03-28T12:07:10Z</time>
      </trkpt>
      <trkpt lat="44.526" lon="4.94439">
        <ele>399</ele>
        <time>2024-03-28T12:07:16Z</time>
      </trkpt>
      <trkpt lat="44.52604" lon="4.94444">
        <ele>397</ele>
        <time>2024-03-28T12:07:23Z</time>
      </trkpt>
      <trkpt lat="44.52608" lon="4.94449">
        <ele>393</ele>
        <time>2024-03-28T12:07:37Z</time>
      </trkpt>
      <trkpt lat="44.52612" lon="4.94451">
        <ele>393</ele>
        <time>2024-03-28T12:07:42Z</time>
      </trkpt>
      <trkpt lat="44.52615" lon="4.94455">
        <ele>391</ele>
        <time>2024-03-28T12:07:47Z</time>
      </trkpt>
      <trkpt lat="44.52617" lon="4.9446">
        <ele>389</ele>
        <time>2024-03-28T12:07:53Z</time>
      </trkpt>
      <trkpt lat="44.5262" lon="4.94463">
        <ele>388</ele>
        <time>2024-03-28T12:07:58Z</time>
      </trkpt>
      <trkpt lat="44.52624" lon="4.94467">
        <ele>386</ele>
        <time>2024-03-28T12:08:05Z</time>
      </trkpt>
      <trkpt lat="44.52628" lon="4.94464">
        <ele>385</ele>
        <time>2024-03-28T12:08:11Z</time>
      </trkpt>
      <trkpt lat="44.52631" lon="4.94458">
        <ele>385</ele>
        <time>2024-03-28T12:08:17Z</time>
      </trkpt>
      <trkpt lat="44.52632" lon="4.94453">
        <ele>383</ele>
        <time>2024-03-28T12:08:22Z</time>
      </trkpt>
      <trkpt lat="44.52636" lon="4.94449">
        <ele>383</ele>
        <time>2024-03-28T12:08:25Z</time>
      </trkpt>
      <trkpt lat="44.52636" lon="4.94443">
        <ele>383</ele>
        <time>2024-03-28T12:08:32Z</time>
      </trkpt>
      <trkpt lat="44.52638" lon="4.94437">
        <ele>382</ele>
        <time>2024-03-28T12:08:38Z</time>
      </trkpt>
      <trkpt lat="44.52636" lon="4.94431">
        <ele>379</ele>
        <time>2024-03-28T12:08:46Z</time>
      </trkpt>
      <trkpt lat="44.52639" lon="4.94424">
        <ele>378</ele>
        <time>2024-03-28T12:08:53Z</time>
      </trkpt>
      <trkpt lat="44.52638" lon="4.94417">
        <ele>373</ele>
        <time>2024-03-28T12:09:11Z</time>
      </trkpt>
      <trkpt lat="44.52637" lon="4.94411">
        <ele>372</ele>
        <time>2024-03-28T12:09:18Z</time>
      </trkpt>
      <trkpt lat="44.52633" lon="4.94405">
        <ele>372</ele>
        <time>2024-03-28T12:09:25Z</time>
      </trkpt>
      <trkpt lat="44.52631" lon="4.944">
        <ele>371</ele>
        <time>2024-03-28T12:09:36Z</time>
      </trkpt>
      <trkpt lat="44.52629" lon="4.94394">
        <ele>370</ele>
        <time>2024-03-28T12:09:42Z</time>
      </trkpt>
      <trkpt lat="44.52627" lon="4.9439">
        <ele>367</ele>
        <time>2024-03-28T12:09:48Z</time>
      </trkpt>
      <trkpt lat="44.52626" lon="4.94384">
        <ele>367</ele>
        <time>2024-03-28T12:09:51Z</time>
      </trkpt>
      <trkpt lat="44.52624" lon="4.94377">
        <ele>366</ele>
        <time>2024-03-28T12:09:57Z</time>
      </trkpt>
      <trkpt lat="44.52624" lon="4.94371">
        <ele>365</ele>
        <time>2024-03-28T12:10:02Z</time>
      </trkpt>
      <trkpt lat="44.52617" lon="4.94364">
        <ele>361</ele>
        <time>2024-03-28T12:10:13Z</time>
      </trkpt>
      <trkpt lat="44.52614" lon="4.94357">
        <ele>361</ele>
        <time>2024-03-28T12:10:19Z</time>
      </trkpt>
      <trkpt lat="44.52607" lon="4.94352">
        <ele>361</ele>
        <time>2024-03-28T12:10:30Z</time>
      </trkpt>
      <trkpt lat="44.52604" lon="4.94347">
        <ele>361</ele>
        <time>2024-03-28T12:10:36Z</time>
      </trkpt>
      <trkpt lat="44.52602" lon="4.94341">
        <ele>360</ele>
        <time>2024-03-28T12:10:42Z</time>
      </trkpt>
      <trkpt lat="44.52602" lon="4.94336">
        <ele>360</ele>
        <time>2024-03-28T12:10:47Z</time>
      </trkpt>
      <trkpt lat="44.52605" lon="4.94332">
        <ele>360</ele>
        <time>2024-03-28T12:10:51Z</time>
      </trkpt>
      <trkpt lat="44.52606" lon="4.94326">
        <ele>360</ele>
        <time>2024-03-28T12:10:58Z</time>
      </trkpt>
      <trkpt lat="44.52609" lon="4.94319">
        <ele>360</ele>
        <time>2024-03-28T12:11:04Z</time>
      </trkpt>
      <trkpt lat="44.5261" lon="4.94313">
        <ele>359</ele>
        <time>2024-03-28T12:11:10Z</time>
      </trkpt>
      <trkpt lat="44.52612" lon="4.94308">
        <ele>357</ele>
        <time>2024-03-28T12:11:17Z</time>
      </trkpt>
      <trkpt lat="44.52612" lon="4.943">
        <ele>356</ele>
        <time>2024-03-28T12:11:25Z</time>
      </trkpt>
      <trkpt lat="44.52611" lon="4.94295">
        <ele>355</ele>
        <time>2024-03-28T12:11:32Z</time>
      </trkpt>
      <trkpt lat="44.52611" lon="4.94288">
        <ele>354</ele>
        <time>2024-03-28T12:11:40Z</time>
      </trkpt>
      <trkpt lat="44.52614" lon="4.94283">
        <ele>354</ele>
        <time>2024-03-28T12:11:46Z</time>
      </trkpt>
      <trkpt lat="44.52614" lon="4.94278">
        <ele>352</ele>
        <time>2024-03-28T12:11:51Z</time>
      </trkpt>
      <trkpt lat="44.52612" lon="4.94272">
        <ele>352</ele>
        <time>2024-03-28T12:11:58Z</time>
      </trkpt>
      <trkpt lat="44.52611" lon="4.94267">
        <ele>352</ele>
        <time>2024-03-28T12:12:02Z</time>
      </trkpt>
      <trkpt lat="44.52614" lon="4.94261">
        <ele>351</ele>
        <time>2024-03-28T12:12:08Z</time>
      </trkpt>
      <trkpt lat="44.52617" lon="4.9425">
        <ele>348</ele>
        <time>2024-03-28T12:12:17Z</time>
      </trkpt>
      <trkpt lat="44.52617" lon="4.94245">
        <ele>347</ele>
        <time>2024-03-28T12:12:21Z</time>
      </trkpt>
      <trkpt lat="44.52619" lon="4.94238">
        <ele>346</ele>
        <time>2024-03-28T12:12:30Z</time>
      </trkpt>
      <trkpt lat="44.52623" lon="4.94236">
        <ele>345</ele>
        <time>2024-03-28T12:12:35Z</time>
      </trkpt>
      <trkpt lat="44.52625" lon="4.94231">
        <ele>344</ele>
        <time>2024-03-28T12:12:41Z</time>
      </trkpt>
      <trkpt lat="44.52658" lon="4.94205">
        <ele>344</ele>
        <time>2024-03-28T12:13:12Z</time>
      </trkpt>
      <trkpt lat="44.52661" lon="4.94205">
        <ele>344</ele>
        <time>2024-03-28T12:13:16Z</time>
      </trkpt>
      <trkpt lat="44.52667" lon="4.94201">
        <ele>345</ele>
        <time>2024-03-28T12:13:20Z</time>
      </trkpt>
      <trkpt lat="44.52671" lon="4.94197">
        <ele>346</ele>
        <time>2024-03-28T12:13:25Z</time>
      </trkpt>
      <trkpt lat="44.52673" lon="4.94194">
        <ele>346</ele>
        <time>2024-03-28T12:13:28Z</time>
      </trkpt>
      <trkpt lat="44.52674" lon="4.94187">
        <ele>345</ele>
        <time>2024-03-28T12:13:31Z</time>
      </trkpt>
      <trkpt lat="44.52675" lon="4.9418">
        <ele>345</ele>
        <time>2024-03-28T12:13:35Z</time>
      </trkpt>
      <trkpt lat="44.52677" lon="4.94174">
        <ele>345</ele>
        <time>2024-03-28T12:13:40Z</time>
      </trkpt>
      <trkpt lat="44.52683" lon="4.94162">
        <ele>344</ele>
        <time>2024-03-28T12:13:49Z</time>
      </trkpt>
      <trkpt lat="44.52689" lon="4.94155">
        <ele>344</ele>
        <time>2024-03-28T12:13:56Z</time>
      </trkpt>
      <trkpt lat="44.52693" lon="4.94151">
        <ele>344</ele>
        <time>2024-03-28T12:14:01Z</time>
      </trkpt>
      <trkpt lat="44.52698" lon="4.94147">
        <ele>342</ele>
        <time>2024-03-28T12:14:06Z</time>
      </trkpt>
      <trkpt lat="44.52704" lon="4.94145">
        <ele>342</ele>
        <time>2024-03-28T12:14:10Z</time>
      </trkpt>
      <trkpt lat="44.52708" lon="4.94143">
        <ele>342</ele>
        <time>2024-03-28T12:14:15Z</time>
      </trkpt>
      <trkpt lat="44.5271" lon="4.94139">
        <ele>342</ele>
        <time>2024-03-28T12:14:20Z</time>
      </trkpt>
      <trkpt lat="44.52712" lon="4.94129">
        <ele>341</ele>
        <time>2024-03-28T12:14:35Z</time>
      </trkpt>
      <trkpt lat="44.52712" lon="4.94123">
        <ele>340</ele>
        <time>2024-03-28T12:14:42Z</time>
      </trkpt>
      <trkpt lat="44.52711" lon="4.94111">
        <ele>339</ele>
        <time>2024-03-28T12:14:53Z</time>
      </trkpt>
      <trkpt lat="44.52713" lon="4.94107">
        <ele>338</ele>
        <time>2024-03-28T12:14:56Z</time>
      </trkpt>
      <trkpt lat="44.52718" lon="4.94097">
        <ele>340</ele>
        <time>2024-03-28T12:15:06Z</time>
      </trkpt>
      <trkpt lat="44.52724" lon="4.94085">
        <ele>341</ele>
        <time>2024-03-28T12:15:17Z</time>
      </trkpt>
      <trkpt lat="44.52727" lon="4.9408">
        <ele>342</ele>
        <time>2024-03-28T12:15:21Z</time>
      </trkpt>
      <trkpt lat="44.52742" lon="4.94067">
        <ele>342</ele>
        <time>2024-03-28T12:15:38Z</time>
      </trkpt>
      <trkpt lat="44.52745" lon="4.94064">
        <ele>341</ele>
        <time>2024-03-28T12:15:43Z</time>
      </trkpt>
      <trkpt lat="44.52749" lon="4.94062">
        <ele>340</ele>
        <time>2024-03-28T12:15:48Z</time>
      </trkpt>
      <trkpt lat="44.52752" lon="4.94059">
        <ele>339</ele>
        <time>2024-03-28T12:15:53Z</time>
      </trkpt>
      <trkpt lat="44.52756" lon="4.94054">
        <ele>339</ele>
        <time>2024-03-28T12:15:59Z</time>
      </trkpt>
      <trkpt lat="44.5276" lon="4.94053">
        <ele>338</ele>
        <time>2024-03-28T12:16:03Z</time>
      </trkpt>
      <trkpt lat="44.52764" lon="4.94048">
        <ele>337</ele>
        <time>2024-03-28T12:16:10Z</time>
      </trkpt>
      <trkpt lat="44.52767" lon="4.94043">
        <ele>336</ele>
        <time>2024-03-28T12:16:13Z</time>
      </trkpt>
      <trkpt lat="44.52771" lon="4.9404">
        <ele>336</ele>
        <time>2024-03-28T12:16:18Z</time>
      </trkpt>
      <trkpt lat="44.52787" lon="4.94036">
        <ele>337</ele>
        <time>2024-03-28T12:16:34Z</time>
      </trkpt>
      <trkpt lat="44.52799" lon="4.94037">
        <ele>336</ele>
        <time>2024-03-28T12:16:45Z</time>
      </trkpt>
      <trkpt lat="44.52804" lon="4.94033">
        <ele>335</ele>
        <time>2024-03-28T12:16:50Z</time>
      </trkpt>
      <trkpt lat="44.52814" lon="4.94031">
        <ele>335</ele>
        <time>2024-03-28T12:17:00Z</time>
      </trkpt>
      <trkpt lat="44.52827" lon="4.94023">
        <ele>334</ele>
        <time>2024-03-28T12:17:15Z</time>
      </trkpt>
      <trkpt lat="44.52832" lon="4.9402">
        <ele>334</ele>
        <time>2024-03-28T12:17:20Z</time>
      </trkpt>
      <trkpt lat="44.52834" lon="4.94016">
        <ele>334</ele>
        <time>2024-03-28T12:17:25Z</time>
      </trkpt>
      <trkpt lat="44.52846" lon="4.94009">
        <ele>329</ele>
        <time>2024-03-28T12:17:42Z</time>
      </trkpt>
      <trkpt lat="44.52856" lon="4.94004">
        <ele>327</ele>
        <time>2024-03-28T12:17:53Z</time>
      </trkpt>
      <trkpt lat="44.52866" lon="4.94001">
        <ele>324</ele>
        <time>2024-03-28T12:18:05Z</time>
      </trkpt>
      <trkpt lat="44.5287" lon="4.94">
        <ele>324</ele>
        <time>2024-03-28T12:18:09Z</time>
      </trkpt>
      <trkpt lat="44.52874" lon="4.94001">
        <ele>323</ele>
        <time>2024-03-28T12:18:16Z</time>
      </trkpt>
      <trkpt lat="44.52878" lon="4.93998">
        <ele>322</ele>
        <time>2024-03-28T12:18:20Z</time>
      </trkpt>
      <trkpt lat="44.52881" lon="4.93997">
        <ele>322</ele>
        <time>2024-03-28T12:18:25Z</time>
      </trkpt>
      <trkpt lat="44.52888" lon="4.94002">
        <ele>319</ele>
        <time>2024-03-28T12:18:36Z</time>
      </trkpt>
      <trkpt lat="44.52892" lon="4.94006">
        <ele>318</ele>
        <time>2024-03-28T12:18:40Z</time>
      </trkpt>
      <trkpt lat="44.52902" lon="4.94004">
        <ele>317</ele>
        <time>2024-03-28T12:18:48Z</time>
      </trkpt>
      <trkpt lat="44.52909" lon="4.94006">
        <ele>318</ele>
        <time>2024-03-28T12:18:55Z</time>
      </trkpt>
      <trkpt lat="44.52916" lon="4.94006">
        <ele>320</ele>
        <time>2024-03-28T12:19:02Z</time>
      </trkpt>
      <trkpt lat="44.5292" lon="4.94005">
        <ele>321</ele>
        <time>2024-03-28T12:19:08Z</time>
      </trkpt>
      <trkpt lat="44.52923" lon="4.94002">
        <ele>320</ele>
        <time>2024-03-28T12:19:11Z</time>
      </trkpt>
      <trkpt lat="44.52927" lon="4.93998">
        <ele>319</ele>
        <time>2024-03-28T12:19:15Z</time>
      </trkpt>
      <trkpt lat="44.52929" lon="4.93992">
        <ele>318</ele>
        <time>2024-03-28T12:19:20Z</time>
      </trkpt>
      <trkpt lat="44.52935" lon="4.93981">
        <ele>316</ele>
        <time>2024-03-28T12:19:31Z</time>
      </trkpt>
      <trkpt lat="44.52943" lon="4.93978">
        <ele>313</ele>
        <time>2024-03-28T12:19:41Z</time>
      </trkpt>
      <trkpt lat="44.52952" lon="4.93976">
        <ele>315</ele>
        <time>2024-03-28T12:19:50Z</time>
      </trkpt>
      <trkpt lat="44.52956" lon="4.93976">
        <ele>314</ele>
        <time>2024-03-28T12:19:54Z</time>
      </trkpt>
      <trkpt lat="44.52965" lon="4.93976">
        <ele>314</ele>
        <time>2024-03-28T12:20:03Z</time>
      </trkpt>
      <trkpt lat="44.5297" lon="4.93976">
        <ele>314</ele>
        <time>2024-03-28T12:20:07Z</time>
      </trkpt>
      <trkpt lat="44.52974" lon="4.93974">
        <ele>315</ele>
        <time>2024-03-28T12:20:11Z</time>
      </trkpt>
      <trkpt lat="44.52983" lon="4.93975">
        <ele>313</ele>
        <time>2024-03-28T12:20:18Z</time>
      </trkpt>
      <trkpt lat="44.52988" lon="4.93975">
        <ele>314</ele>
        <time>2024-03-28T12:20:22Z</time>
      </trkpt>
      <trkpt lat="44.52994" lon="4.93974">
        <ele>315</ele>
        <time>2024-03-28T12:20:31Z</time>
      </trkpt>
      <trkpt lat="44.52998" lon="4.93971">
        <ele>316</ele>
        <time>2024-03-28T12:20:37Z</time>
      </trkpt>
      <trkpt lat="44.53008" lon="4.93968">
        <ele>316</ele>
        <time>2024-03-28T12:20:49Z</time>
      </trkpt>
      <trkpt lat="44.53014" lon="4.93968">
        <ele>315</ele>
        <time>2024-03-28T12:20:55Z</time>
      </trkpt>
      <trkpt lat="44.53027" lon="4.9396">
        <ele>314</ele>
        <time>2024-03-28T12:21:10Z</time>
      </trkpt>
      <trkpt lat="44.53036" lon="4.93947">
        <ele>311</ele>
        <time>2024-03-28T12:21:21Z</time>
      </trkpt>
      <trkpt lat="44.53038" lon="4.93942">
        <ele>311</ele>
        <time>2024-03-28T12:21:25Z</time>
      </trkpt>
      <trkpt lat="44.53042" lon="4.9394">
        <ele>309</ele>
        <time>2024-03-28T12:21:30Z</time>
      </trkpt>
      <trkpt lat="44.53051" lon="4.93936">
        <ele>307</ele>
        <time>2024-03-28T12:21:38Z</time>
      </trkpt>
      <trkpt lat="44.53059" lon="4.93921">
        <ele>308</ele>
        <time>2024-03-28T12:21:51Z</time>
      </trkpt>
      <trkpt lat="44.5306" lon="4.93916">
        <ele>308</ele>
        <time>2024-03-28T12:21:56Z</time>
      </trkpt>
      <trkpt lat="44.53062" lon="4.93912">
        <ele>308</ele>
        <time>2024-03-28T12:22:00Z</time>
      </trkpt>
      <trkpt lat="44.53066" lon="4.93906">
        <ele>306</ele>
        <time>2024-03-28T12:22:09Z</time>
      </trkpt>
      <trkpt lat="44.5307" lon="4.93902">
        <ele>305</ele>
        <time>2024-03-28T12:22:13Z</time>
      </trkpt>
      <trkpt lat="44.53076" lon="4.93902">
        <ele>305</ele>
        <time>2024-03-28T12:22:23Z</time>
      </trkpt>
      <trkpt lat="44.5308" lon="4.939">
        <ele>304</ele>
        <time>2024-03-28T12:22:27Z</time>
      </trkpt>
      <trkpt lat="44.53092" lon="4.93892">
        <ele>304</ele>
        <time>2024-03-28T12:22:40Z</time>
      </trkpt>
      <trkpt lat="44.53099" lon="4.9389">
        <ele>303</ele>
        <time>2024-03-28T12:22:49Z</time>
      </trkpt>
      <trkpt lat="44.53102" lon="4.93887">
        <ele>302</ele>
        <time>2024-03-28T12:22:53Z</time>
      </trkpt>
      <trkpt lat="44.53106" lon="4.93886">
        <ele>302</ele>
        <time>2024-03-28T12:22:57Z</time>
      </trkpt>
      <trkpt lat="44.53114" lon="4.93879">
        <ele>302</ele>
        <time>2024-03-28T12:23:04Z</time>
      </trkpt>
      <trkpt lat="44.53121" lon="4.93875">
        <ele>301</ele>
        <time>2024-03-28T12:23:11Z</time>
      </trkpt>
      <trkpt lat="44.53125" lon="4.93873">
        <ele>299</ele>
        <time>2024-03-28T12:23:16Z</time>
      </trkpt>
      <trkpt lat="44.53129" lon="4.93872">
        <ele>298</ele>
        <time>2024-03-28T12:23:20Z</time>
      </trkpt>
      <trkpt lat="44.53133" lon="4.93869">
        <ele>297</ele>
        <time>2024-03-28T12:23:25Z</time>
      </trkpt>
      <trkpt lat="44.5314" lon="4.93865">
        <ele>296</ele>
        <time>2024-03-28T12:23:32Z</time>
      </trkpt>
      <trkpt lat="44.53147" lon="4.93859">
        <ele>295</ele>
        <time>2024-03-28T12:23:39Z</time>
      </trkpt>
      <trkpt lat="44.5315" lon="4.93857">
        <ele>295</ele>
        <time>2024-03-28T12:23:43Z</time>
      </trkpt>
      <trkpt lat="44.53153" lon="4.93852">
        <ele>296</ele>
        <time>2024-03-28T12:23:46Z</time>
      </trkpt>
      <trkpt lat="44.53178" lon="4.93831">
        <ele>288</ele>
        <time>2024-03-28T12:24:23Z</time>
      </trkpt>
      <trkpt lat="44.53184" lon="4.93826">
        <ele>288</ele>
        <time>2024-03-28T12:24:31Z</time>
      </trkpt>
      <trkpt lat="44.53189" lon="4.93819">
        <ele>289</ele>
        <time>2024-03-28T12:24:39Z</time>
      </trkpt>
      <trkpt lat="44.53192" lon="4.93816">
        <ele>288</ele>
        <time>2024-03-28T12:24:43Z</time>
      </trkpt>
      <trkpt lat="44.53204" lon="4.93807">
        <ele>285</ele>
        <time>2024-03-28T12:24:57Z</time>
      </trkpt>
      <trkpt lat="44.53208" lon="4.93811">
        <ele>285</ele>
        <time>2024-03-28T12:25:01Z</time>
      </trkpt>
      <trkpt lat="44.53213" lon="4.93807">
        <ele>285</ele>
        <time>2024-03-28T12:25:05Z</time>
      </trkpt>
      <trkpt lat="44.53215" lon="4.93802">
        <ele>284</ele>
        <time>2024-03-28T12:25:08Z</time>
      </trkpt>
      <trkpt lat="44.53218" lon="4.93799">
        <ele>283</ele>
        <time>2024-03-28T12:25:14Z</time>
      </trkpt>
      <trkpt lat="44.53218" lon="4.93794">
        <ele>281</ele>
        <time>2024-03-28T12:25:22Z</time>
      </trkpt>
      <trkpt lat="44.53219" lon="4.93788">
        <ele>279</ele>
        <time>2024-03-28T12:25:27Z</time>
      </trkpt>
      <trkpt lat="44.53223" lon="4.93777">
        <ele>276</ele>
        <time>2024-03-28T12:25:34Z</time>
      </trkpt>
      <trkpt lat="44.53225" lon="4.93769">
        <ele>276</ele>
        <time>2024-03-28T12:25:40Z</time>
      </trkpt>
      <trkpt lat="44.53229" lon="4.93765">
        <ele>274</ele>
        <time>2024-03-28T12:25:45Z</time>
      </trkpt>
      <trkpt lat="44.53237" lon="4.93754">
        <ele>272</ele>
        <time>2024-03-28T12:25:55Z</time>
      </trkpt>
      <trkpt lat="44.53239" lon="4.9375">
        <ele>272</ele>
        <time>2024-03-28T12:26:01Z</time>
      </trkpt>
      <trkpt lat="44.53248" lon="4.93735">
        <ele>275</ele>
        <time>2024-03-28T12:26:15Z</time>
      </trkpt>
      <trkpt lat="44.53249" lon="4.9373">
        <ele>274</ele>
        <time>2024-03-28T12:26:18Z</time>
      </trkpt>
      <trkpt lat="44.53252" lon="4.93727">
        <ele>274</ele>
        <time>2024-03-28T12:26:21Z</time>
      </trkpt>
      <trkpt lat="44.53256" lon="4.93722">
        <ele>272</ele>
        <time>2024-03-28T12:26:29Z</time>
      </trkpt>
      <trkpt lat="44.53262" lon="4.93726">
        <ele>271</ele>
        <time>2024-03-28T12:26:42Z</time>
      </trkpt>
      <trkpt lat="44.5327" lon="4.93729">
        <ele>271</ele>
        <time>2024-03-28T12:26:50Z</time>
      </trkpt>
      <trkpt lat="44.5328" lon="4.93735">
        <ele>271</ele>
        <time>2024-03-28T12:27:01Z</time>
      </trkpt>
      <trkpt lat="44.53288" lon="4.93738">
        <ele>268</ele>
        <time>2024-03-28T12:27:07Z</time>
      </trkpt>
      <trkpt lat="44.53291" lon="4.93741">
        <ele>268</ele>
        <time>2024-03-28T12:27:10Z</time>
      </trkpt>
      <trkpt lat="44.53302" lon="4.93743">
        <ele>265</ele>
        <time>2024-03-28T12:27:21Z</time>
      </trkpt>
      <trkpt lat="44.53311" lon="4.93741">
        <ele>264</ele>
        <time>2024-03-28T12:27:28Z</time>
      </trkpt>
      <trkpt lat="44.53318" lon="4.93746">
        <ele>262</ele>
        <time>2024-03-28T12:27:35Z</time>
      </trkpt>
      <trkpt lat="44.5332" lon="4.93748">
        <ele>261</ele>
        <time>2024-03-28T12:27:38Z</time>
      </trkpt>
      <trkpt lat="44.53324" lon="4.9375">
        <ele>262</ele>
        <time>2024-03-28T12:27:43Z</time>
      </trkpt>
      <trkpt lat="44.53335" lon="4.93753">
        <ele>262</ele>
        <time>2024-03-28T12:27:53Z</time>
      </trkpt>
      <trkpt lat="44.53343" lon="4.93752">
        <ele>263</ele>
        <time>2024-03-28T12:27:59Z</time>
      </trkpt>
      <trkpt lat="44.53353" lon="4.93753">
        <ele>264</ele>
        <time>2024-03-28T12:28:07Z</time>
      </trkpt>
      <trkpt lat="44.5336" lon="4.93751">
        <ele>263</ele>
        <time>2024-03-28T12:28:13Z</time>
      </trkpt>
      <trkpt lat="44.53366" lon="4.93753">
        <ele>263</ele>
        <time>2024-03-28T12:28:20Z</time>
      </trkpt>
      <trkpt lat="44.53374" lon="4.93754">
        <ele>262</ele>
        <time>2024-03-28T12:28:26Z</time>
      </trkpt>
      <trkpt lat="44.53378" lon="4.93753">
        <ele>260</ele>
        <time>2024-03-28T12:28:30Z</time>
      </trkpt>
      <trkpt lat="44.53385" lon="4.93753">
        <ele>259</ele>
        <time>2024-03-28T12:28:36Z</time>
      </trkpt>
      <trkpt lat="44.53388" lon="4.93752">
        <ele>258</ele>
        <time>2024-03-28T12:28:40Z</time>
      </trkpt>
      <trkpt lat="44.53392" lon="4.93754">
        <ele>256</ele>
        <time>2024-03-28T12:28:44Z</time>
      </trkpt>
      <trkpt lat="44.53396" lon="4.93756">
        <ele>256</ele>
        <time>2024-03-28T12:28:47Z</time>
      </trkpt>
      <trkpt lat="44.534" lon="4.93759">
        <ele>256</ele>
        <time>2024-03-28T12:28:50Z</time>
      </trkpt>
      <trkpt lat="44.53403" lon="4.93759">
        <ele>256</ele>
        <time>2024-03-28T12:28:53Z</time>
      </trkpt>
      <trkpt lat="44.53411" lon="4.93762">
        <ele>257</ele>
        <time>2024-03-28T12:29:00Z</time>
      </trkpt>
      <trkpt lat="44.53415" lon="4.93761">
        <ele>257</ele>
        <time>2024-03-28T12:29:04Z</time>
      </trkpt>
      <trkpt lat="44.53431" lon="4.93769">
        <ele>256</ele>
        <time>2024-03-28T12:29:21Z</time>
      </trkpt>
      <trkpt lat="44.53436" lon="4.93773">
        <ele>256</ele>
        <time>2024-03-28T12:29:26Z</time>
      </trkpt>
      <trkpt lat="44.53447" lon="4.93776">
        <ele>258</ele>
        <time>2024-03-28T12:29:36Z</time>
      </trkpt>
      <trkpt lat="44.53451" lon="4.93777">
        <ele>256</ele>
        <time>2024-03-28T12:29:41Z</time>
      </trkpt>
      <trkpt lat="44.53456" lon="4.93776">
        <ele>255</ele>
        <time>2024-03-28T12:29:46Z</time>
      </trkpt>
      <trkpt lat="44.53469" lon="4.93773">
        <ele>253</ele>
        <time>2024-03-28T12:29:55Z</time>
      </trkpt>
      <trkpt lat="44.53473" lon="4.93771">
        <ele>252</ele>
        <time>2024-03-28T12:30:01Z</time>
      </trkpt>
      <trkpt lat="44.53478" lon="4.9377">
        <ele>251</ele>
        <time>2024-03-28T12:30:05Z</time>
      </trkpt>
      <trkpt lat="44.5349" lon="4.93772">
        <ele>251</ele>
        <time>2024-03-28T12:30:14Z</time>
      </trkpt>
      <trkpt lat="44.53499" lon="4.93773">
        <ele>251</ele>
        <time>2024-03-28T12:30:22Z</time>
      </trkpt>
      <trkpt lat="44.53503" lon="4.93771">
        <ele>252</ele>
        <time>2024-03-28T12:30:25Z</time>
      </trkpt>
      <trkpt lat="44.53507" lon="4.93774">
        <ele>251</ele>
        <time>2024-03-28T12:30:29Z</time>
      </trkpt>
      <trkpt lat="44.53511" lon="4.93777">
        <ele>249</ele>
        <time>2024-03-28T12:30:32Z</time>
      </trkpt>
      <trkpt lat="44.53516" lon="4.93774">
        <ele>249</ele>
        <time>2024-03-28T12:30:35Z</time>
      </trkpt>
      <trkpt lat="44.53527" lon="4.93774">
        <ele>249</ele>
        <time>2024-03-28T12:30:42Z</time>
      </trkpt>
      <trkpt lat="44.53534" lon="4.93773">
        <ele>249</ele>
        <time>2024-03-28T12:30:50Z</time>
      </trkpt>
      <trkpt lat="44.53544" lon="4.9377">
        <ele>246</ele>
        <time>2024-03-28T12:31:00Z</time>
      </trkpt>
      <trkpt lat="44.53547" lon="4.93767">
        <ele>245</ele>
        <time>2024-03-28T12:31:02Z</time>
      </trkpt>
      <trkpt lat="44.53552" lon="4.93768">
        <ele>244</ele>
        <time>2024-03-28T12:31:07Z</time>
      </trkpt>
      <trkpt lat="44.53561" lon="4.93764">
        <ele>244</ele>
        <time>2024-03-28T12:31:12Z</time>
      </trkpt>
      <trkpt lat="44.53564" lon="4.93765">
        <ele>244</ele>
        <time>2024-03-28T12:31:15Z</time>
      </trkpt>
      <trkpt lat="44.53569" lon="4.93762">
        <ele>243</ele>
        <time>2024-03-28T12:31:19Z</time>
      </trkpt>
      <trkpt lat="44.5358" lon="4.93753">
        <ele>240</ele>
        <time>2024-03-28T12:31:28Z</time>
      </trkpt>
      <trkpt lat="44.53583" lon="4.93751">
        <ele>241</ele>
        <time>2024-03-28T12:31:31Z</time>
      </trkpt>
      <trkpt lat="44.53587" lon="4.93752">
        <ele>241</ele>
        <time>2024-03-28T12:31:35Z</time>
      </trkpt>
      <trkpt lat="44.53591" lon="4.93752">
        <ele>240</ele>
        <time>2024-03-28T12:31:39Z</time>
      </trkpt>
      <trkpt lat="44.53594" lon="4.93756">
        <ele>239</ele>
        <time>2024-03-28T12:31:43Z</time>
      </trkpt>
      <trkpt lat="44.53598" lon="4.93756">
        <ele>239</ele>
        <time>2024-03-28T12:31:46Z</time>
      </trkpt>
      <trkpt lat="44.53603" lon="4.93758">
        <ele>238</ele>
        <time>2024-03-28T12:31:49Z</time>
      </trkpt>
      <trkpt lat="44.53605" lon="4.93762">
        <ele>238</ele>
        <time>2024-03-28T12:31:53Z</time>
      </trkpt>
      <trkpt lat="44.53609" lon="4.93766">
        <ele>237</ele>
        <time>2024-03-28T12:31:57Z</time>
      </trkpt>
      <trkpt lat="44.53617" lon="4.93772">
        <ele>236</ele>
        <time>2024-03-28T12:32:05Z</time>
      </trkpt>
      <trkpt lat="44.53625" lon="4.93773">
        <ele>237</ele>
        <time>2024-03-28T12:32:11Z</time>
      </trkpt>
      <trkpt lat="44.53634" lon="4.9378">
        <ele>238</ele>
        <time>2024-03-28T12:32:19Z</time>
      </trkpt>
      <trkpt lat="44.53644" lon="4.9378">
        <ele>239</ele>
        <time>2024-03-28T12:32:28Z</time>
      </trkpt>
      <trkpt lat="44.53652" lon="4.9378">
        <ele>239</ele>
        <time>2024-03-28T12:32:34Z</time>
      </trkpt>
      <trkpt lat="44.53665" lon="4.93783">
        <ele>236</ele>
        <time>2024-03-28T12:32:45Z</time>
      </trkpt>
      <trkpt lat="44.53669" lon="4.93784">
        <ele>236</ele>
        <time>2024-03-28T12:32:48Z</time>
      </trkpt>
      <trkpt lat="44.53673" lon="4.93783">
        <ele>237</ele>
        <time>2024-03-28T12:32:51Z</time>
      </trkpt>
      <trkpt lat="44.53677" lon="4.93785">
        <ele>236</ele>
        <time>2024-03-28T12:32:55Z</time>
      </trkpt>
      <trkpt lat="44.5369" lon="4.93787">
        <ele>235</ele>
        <time>2024-03-28T12:33:05Z</time>
      </trkpt>
      <trkpt lat="44.53697" lon="4.93789">
        <ele>234</ele>
        <time>2024-03-28T12:33:11Z</time>
      </trkpt>
      <trkpt lat="44.53704" lon="4.93796">
        <ele>233</ele>
        <time>2024-03-28T12:33:18Z</time>
      </trkpt>
      <trkpt lat="44.53722" lon="4.93795">
        <ele>233</ele>
        <time>2024-03-28T12:33:32Z</time>
      </trkpt>
      <trkpt lat="44.53743" lon="4.93784">
        <ele>230</ele>
        <time>2024-03-28T12:33:47Z</time>
      </trkpt>
      <trkpt lat="44.53747" lon="4.93781">
        <ele>230</ele>
        <time>2024-03-28T12:33:51Z</time>
      </trkpt>
      <trkpt lat="44.5377" lon="4.93774">
        <ele>228</ele>
        <time>2024-03-28T12:34:09Z</time>
      </trkpt>
      <trkpt lat="44.53781" lon="4.9377">
        <ele>231</ele>
        <time>2024-03-28T12:34:18Z</time>
      </trkpt>
      <trkpt lat="44.53801" lon="4.93775">
        <ele>232</ele>
        <time>2024-03-28T12:34:35Z</time>
      </trkpt>
      <trkpt lat="44.53805" lon="4.93778">
        <ele>232</ele>
        <time>2024-03-28T12:34:38Z</time>
      </trkpt>
      <trkpt lat="44.53809" lon="4.93778">
        <ele>232</ele>
        <time>2024-03-28T12:34:41Z</time>
      </trkpt>
      <trkpt lat="44.53814" lon="4.93778">
        <ele>232</ele>
        <time>2024-03-28T12:34:45Z</time>
      </trkpt>
      <trkpt lat="44.53827" lon="4.93783">
        <ele>232</ele>
        <time>2024-03-28T12:34:56Z</time>
      </trkpt>
      <trkpt lat="44.53832" lon="4.93785">
        <ele>232</ele>
        <time>2024-03-28T12:35:01Z</time>
      </trkpt>
      <trkpt lat="44.53836" lon="4.93784">
        <ele>231</ele>
        <time>2024-03-28T12:35:04Z</time>
      </trkpt>
      <trkpt lat="44.53847" lon="4.93789">
        <ele>231</ele>
        <time>2024-03-28T12:35:13Z</time>
      </trkpt>
      <trkpt lat="44.53851" lon="4.93789">
        <ele>230</ele>
        <time>2024-03-28T12:35:16Z</time>
      </trkpt>
      <trkpt lat="44.5386" lon="4.93793">
        <ele>229</ele>
        <time>2024-03-28T12:35:26Z</time>
      </trkpt>
      <trkpt lat="44.53865" lon="4.93791">
        <ele>229</ele>
        <time>2024-03-28T12:35:30Z</time>
      </trkpt>
      <trkpt lat="44.5387" lon="4.93794">
        <ele>228</ele>
        <time>2024-03-28T12:35:36Z</time>
      </trkpt>
      <trkpt lat="44.53893" lon="4.93803">
        <ele>229</ele>
        <time>2024-03-28T12:35:54Z</time>
      </trkpt>
      <trkpt lat="44.53898" lon="4.9381">
        <ele>230</ele>
        <time>2024-03-28T12:36:00Z</time>
      </trkpt>
      <trkpt lat="44.53904" lon="4.93812">
        <ele>230</ele>
        <time>2024-03-28T12:36:05Z</time>
      </trkpt>
      <trkpt lat="44.53916" lon="4.93812">
        <ele>229</ele>
        <time>2024-03-28T12:36:13Z</time>
      </trkpt>
      <trkpt lat="44.53922" lon="4.93814">
        <ele>227</ele>
        <time>2024-03-28T12:36:18Z</time>
      </trkpt>
      <trkpt lat="44.53925" lon="4.93815">
        <ele>227</ele>
        <time>2024-03-28T12:36:20Z</time>
      </trkpt>
      <trkpt lat="44.53939" lon="4.93818">
        <ele>228</ele>
        <time>2024-03-28T12:36:30Z</time>
      </trkpt>
      <trkpt lat="44.53946" lon="4.93819">
        <ele>227</ele>
        <time>2024-03-28T12:36:35Z</time>
      </trkpt>
      <trkpt lat="44.53949" lon="4.9382">
        <ele>227</ele>
        <time>2024-03-28T12:36:37Z</time>
      </trkpt>
      <trkpt lat="44.53957" lon="4.9382">
        <ele>226</ele>
        <time>2024-03-28T12:36:43Z</time>
      </trkpt>
      <trkpt lat="44.53965" lon="4.93825">
        <ele>225</ele>
        <time>2024-03-28T12:36:50Z</time>
      </trkpt>
      <trkpt lat="44.53972" lon="4.93829">
        <ele>226</ele>
        <time>2024-03-28T12:36:56Z</time>
      </trkpt>
      <trkpt lat="44.53995" lon="4.93835">
        <ele>224</ele>
        <time>2024-03-28T12:37:13Z</time>
      </trkpt>
      <trkpt lat="44.54002" lon="4.93838">
        <ele>223</ele>
        <time>2024-03-28T12:37:18Z</time>
      </trkpt>
      <trkpt lat="44.54008" lon="4.9384">
        <ele>224</ele>
        <time>2024-03-28T12:37:23Z</time>
      </trkpt>
      <trkpt lat="44.54016" lon="4.93844">
        <ele>225</ele>
        <time>2024-03-28T12:37:30Z</time>
      </trkpt>
      <trkpt lat="44.5402" lon="4.93843">
        <ele>225</ele>
        <time>2024-03-28T12:37:32Z</time>
      </trkpt>
      <trkpt lat="44.54023" lon="4.93846">
        <ele>225</ele>
        <time>2024-03-28T12:37:35Z</time>
      </trkpt>
      <trkpt lat="44.54033" lon="4.9385">
        <ele>224</ele>
        <time>2024-03-28T12:37:42Z</time>
      </trkpt>
      <trkpt lat="44.54053" lon="4.93855">
        <ele>223</ele>
        <time>2024-03-28T12:37:59Z</time>
      </trkpt>
      <trkpt lat="44.54059" lon="4.93857">
        <ele>223</ele>
        <time>2024-03-28T12:38:04Z</time>
      </trkpt>
      <trkpt lat="44.54062" lon="4.93857">
        <ele>222</ele>
        <time>2024-03-28T12:38:06Z</time>
      </trkpt>
      <trkpt lat="44.54069" lon="4.93853">
        <ele>222</ele>
        <time>2024-03-28T12:38:12Z</time>
      </trkpt>
      <trkpt lat="44.54078" lon="4.93849">
        <ele>222</ele>
        <time>2024-03-28T12:38:22Z</time>
      </trkpt>
      <trkpt lat="44.54081" lon="4.93845">
        <ele>221</ele>
        <time>2024-03-28T12:38:25Z</time>
      </trkpt>
      <trkpt lat="44.54098" lon="4.93839">
        <ele>221</ele>
        <time>2024-03-28T12:38:39Z</time>
      </trkpt>
      <trkpt lat="44.54108" lon="4.9383">
        <ele>219</ele>
        <time>2024-03-28T12:38:48Z</time>
      </trkpt>
      <trkpt lat="44.54114" lon="4.93826">
        <ele>217</ele>
        <time>2024-03-28T12:38:55Z</time>
      </trkpt>
      <trkpt lat="44.54118" lon="4.93826">
        <ele>217</ele>
        <time>2024-03-28T12:38:57Z</time>
      </trkpt>
      <trkpt lat="44.54122" lon="4.93825">
        <ele>217</ele>
        <time>2024-03-28T12:39:00Z</time>
      </trkpt>
      <trkpt lat="44.54144" lon="4.93814">
        <ele>215</ele>
        <time>2024-03-28T12:39:18Z</time>
      </trkpt>
      <trkpt lat="44.54148" lon="4.93814">
        <ele>213</ele>
        <time>2024-03-28T12:39:21Z</time>
      </trkpt>
      <trkpt lat="44.54154" lon="4.93811">
        <ele>213</ele>
        <time>2024-03-28T12:39:26Z</time>
      </trkpt>
      <trkpt lat="44.54184" lon="4.93806">
        <ele>215</ele>
        <time>2024-03-28T12:39:53Z</time>
      </trkpt>
      <trkpt lat="44.54187" lon="4.93803">
        <ele>214</ele>
        <time>2024-03-28T12:39:55Z</time>
      </trkpt>
      <trkpt lat="44.54198" lon="4.93794">
        <ele>217</ele>
        <time>2024-03-28T12:40:05Z</time>
      </trkpt>
      <trkpt lat="44.54201" lon="4.93786">
        <ele>217</ele>
        <time>2024-03-28T12:40:09Z</time>
      </trkpt>
      <trkpt lat="44.54204" lon="4.93775">
        <ele>220</ele>
        <time>2024-03-28T12:40:16Z</time>
      </trkpt>
      <trkpt lat="44.54205" lon="4.93756">
        <ele>221</ele>
        <time>2024-03-28T12:40:26Z</time>
      </trkpt>
      <trkpt lat="44.54212" lon="4.93721">
        <ele>219</ele>
        <time>2024-03-28T12:40:46Z</time>
      </trkpt>
      <trkpt lat="44.54212" lon="4.93714">
        <ele>220</ele>
        <time>2024-03-28T12:40:50Z</time>
      </trkpt>
      <trkpt lat="44.54212" lon="4.93694">
        <ele>217</ele>
        <time>2024-03-28T12:41:02Z</time>
      </trkpt>
      <trkpt lat="44.54217" lon="4.93675">
        <ele>218</ele>
        <time>2024-03-28T12:41:14Z</time>
      </trkpt>
      <trkpt lat="44.54218" lon="4.93672">
        <ele>219</ele>
        <time>2024-03-28T12:41:16Z</time>
      </trkpt>
      <trkpt lat="44.54219" lon="4.93668">
        <ele>219</ele>
        <time>2024-03-28T12:41:19Z</time>
      </trkpt>
      <trkpt lat="44.54222" lon="4.93658">
        <ele>218</ele>
        <time>2024-03-28T12:41:25Z</time>
      </trkpt>
      <trkpt lat="44.54229" lon="4.93643">
        <ele>219</ele>
        <time>2024-03-28T12:41:35Z</time>
      </trkpt>
      <trkpt lat="44.54234" lon="4.93638">
        <ele>218</ele>
        <time>2024-03-28T12:41:40Z</time>
      </trkpt>
      <trkpt lat="44.54238" lon="4.93629">
        <ele>217</ele>
        <time>2024-03-28T12:41:46Z</time>
      </trkpt>
      <trkpt lat="44.54244" lon="4.93617">
        <ele>218</ele>
        <time>2024-03-28T12:41:55Z</time>
      </trkpt>
      <trkpt lat="44.54256" lon="4.93598">
        <ele>217</ele>
        <time>2024-03-28T12:42:09Z</time>
      </trkpt>
      <trkpt lat="44.54275" lon="4.93552">
        <ele>214</ele>
        <time>2024-03-28T12:42:39Z</time>
      </trkpt>
      <trkpt lat="44.54277" lon="4.93547">
        <ele>215</ele>
        <time>2024-03-28T12:42:42Z</time>
      </trkpt>
      <trkpt lat="44.54282" lon="4.9354">
        <ele>216</ele>
        <time>2024-03-28T12:42:48Z</time>
      </trkpt>
      <trkpt lat="44.54284" lon="4.93535">
        <ele>217</ele>
        <time>2024-03-28T12:42:51Z</time>
      </trkpt>
      <trkpt lat="44.54287" lon="4.93527">
        <ele>217</ele>
        <time>2024-03-28T12:42:55Z</time>
      </trkpt>
      <trkpt lat="44.54291" lon="4.93523">
        <ele>215</ele>
        <time>2024-03-28T12:42:59Z</time>
      </trkpt>
      <trkpt lat="44.54293" lon="4.93517">
        <ele>213</ele>
        <time>2024-03-28T12:43:02Z</time>
      </trkpt>
      <trkpt lat="44.54297" lon="4.93514">
        <ele>214</ele>
        <time>2024-03-28T12:43:05Z</time>
      </trkpt>
      <trkpt lat="44.54301" lon="4.93508">
        <ele>215</ele>
        <time>2024-03-28T12:43:10Z</time>
      </trkpt>
      <trkpt lat="44.54309" lon="4.9349">
        <ele>215</ele>
        <time>2024-03-28T12:43:22Z</time>
      </trkpt>
      <trkpt lat="44.54324" lon="4.93479">
        <ele>214</ele>
        <time>2024-03-28T12:43:39Z</time>
      </trkpt>
      <trkpt lat="44.54338" lon="4.93482">
        <ele>215</ele>
        <time>2024-03-28T12:43:51Z</time>
      </trkpt>
      <trkpt lat="44.54342" lon="4.93482">
        <ele>215</ele>
        <time>2024-03-28T12:43:55Z</time>
      </trkpt>
      <trkpt lat="44.54348" lon="4.93484">
        <ele>214</ele>
        <time>2024-03-28T12:44:01Z</time>
      </trkpt>
      <trkpt lat="44.54353" lon="4.93484">
        <ele>215</ele>
        <time>2024-03-28T12:44:05Z</time>
      </trkpt>
      <trkpt lat="44.5436" lon="4.93482">
        <ele>216</ele>
        <time>2024-03-28T12:44:11Z</time>
      </trkpt>
      <trkpt lat="44.54365" lon="4.9348">
        <ele>215</ele>
        <time>2024-03-28T12:44:15Z</time>
      </trkpt>
      <trkpt lat="44.54367" lon="4.93484">
        <ele>214</ele>
        <time>2024-03-28T12:44:18Z</time>
      </trkpt>
      <trkpt lat="44.5437" lon="4.93484">
        <ele>214</ele>
        <time>2024-03-28T12:44:21Z</time>
      </trkpt>
      <trkpt lat="44.54378" lon="4.93486">
        <ele>216</ele>
        <time>2024-03-28T12:44:28Z</time>
      </trkpt>
      <trkpt lat="44.54384" lon="4.93489">
        <ele>218</ele>
        <time>2024-03-28T12:44:35Z</time>
      </trkpt>
      <trkpt lat="44.54387" lon="4.93491">
        <ele>218</ele>
        <time>2024-03-28T12:44:40Z</time>
      </trkpt>
      <trkpt lat="44.54391" lon="4.9349">
        <ele>218</ele>
        <time>2024-03-28T12:45:05Z</time>
      </trkpt>
      <trkpt lat="44.54395" lon="4.93488">
        <ele>218</ele>
        <time>2024-03-28T12:45:08Z</time>
      </trkpt>
      <trkpt lat="44.54398" lon="4.93487">
        <ele>217</ele>
        <time>2024-03-28T12:45:11Z</time>
      </trkpt>
      <trkpt lat="44.5441" lon="4.9349">
        <ele>217</ele>
        <time>2024-03-28T12:45:23Z</time>
      </trkpt>
      <trkpt lat="44.54417" lon="4.93497">
        <ele>218</ele>
        <time>2024-03-28T12:45:31Z</time>
      </trkpt>
      <trkpt lat="44.54422" lon="4.93499">
        <ele>218</ele>
        <time>2024-03-28T12:45:35Z</time>
      </trkpt>
      <trkpt lat="44.54427" lon="4.93496">
        <ele>219</ele>
        <time>2024-03-28T12:45:39Z</time>
      </trkpt>
      <trkpt lat="44.54435" lon="4.93495">
        <ele>219</ele>
        <time>2024-03-28T12:45:45Z</time>
      </trkpt>
      <trkpt lat="44.54441" lon="4.93497">
        <ele>220</ele>
        <time>2024-03-28T12:45:51Z</time>
      </trkpt>
      <trkpt lat="44.54445" lon="4.93497">
        <ele>221</ele>
        <time>2024-03-28T12:45:54Z</time>
      </trkpt>
      <trkpt lat="44.54464" lon="4.93498">
        <ele>223</ele>
        <time>2024-03-28T12:46:10Z</time>
      </trkpt>
      <trkpt lat="44.54467" lon="4.93498">
        <ele>223</ele>
        <time>2024-03-28T12:46:13Z</time>
      </trkpt>
      <trkpt lat="44.54469" lon="4.93495">
        <ele>222</ele>
        <time>2024-03-28T12:46:15Z</time>
      </trkpt>
      <trkpt lat="44.54471" lon="4.93483">
        <ele>219</ele>
        <time>2024-03-28T12:46:21Z</time>
      </trkpt>
      <trkpt lat="44.5447" lon="4.93474">
        <ele>217</ele>
        <time>2024-03-28T12:46:27Z</time>
      </trkpt>
      <trkpt lat="44.5447" lon="4.93463">
        <ele>217</ele>
        <time>2024-03-28T12:46:34Z</time>
      </trkpt>
      <trkpt lat="44.54472" lon="4.93455">
        <ele>217</ele>
        <time>2024-03-28T12:46:38Z</time>
      </trkpt>
      <trkpt lat="44.54471" lon="4.93448">
        <ele>216</ele>
        <time>2024-03-28T12:46:42Z</time>
      </trkpt>
      <trkpt lat="44.54472" lon="4.93442">
        <ele>215</ele>
        <time>2024-03-28T12:46:46Z</time>
      </trkpt>
      <trkpt lat="44.54473" lon="4.93436">
        <ele>215</ele>
        <time>2024-03-28T12:46:49Z</time>
      </trkpt>
      <trkpt lat="44.54473" lon="4.93406">
        <ele>216</ele>
        <time>2024-03-28T12:47:07Z</time>
      </trkpt>
      <trkpt lat="44.54473" lon="4.93402">
        <ele>216</ele>
        <time>2024-03-28T12:47:10Z</time>
      </trkpt>
      <trkpt lat="44.54473" lon="4.93391">
        <ele>216</ele>
        <time>2024-03-28T12:47:16Z</time>
      </trkpt>
      <trkpt lat="44.54473" lon="4.93385">
        <ele>216</ele>
        <time>2024-03-28T12:47:20Z</time>
      </trkpt>
      <trkpt lat="44.54479" lon="4.9337">
        <ele>215</ele>
        <time>2024-03-28T12:47:28Z</time>
      </trkpt>
      <trkpt lat="44.54482" lon="4.93353">
        <ele>215</ele>
        <time>2024-03-28T12:47:37Z</time>
      </trkpt>
      <trkpt lat="44.54482" lon="4.93344">
        <ele>216</ele>
        <time>2024-03-28T12:47:42Z</time>
      </trkpt>
      <trkpt lat="44.54482" lon="4.93339">
        <ele>216</ele>
        <time>2024-03-28T12:47:45Z</time>
      </trkpt>
      <trkpt lat="44.5448" lon="4.93336">
        <ele>216</ele>
        <time>2024-03-28T12:47:48Z</time>
      </trkpt>
      <trkpt lat="44.54478" lon="4.93332">
        <ele>215</ele>
        <time>2024-03-28T12:47:51Z</time>
      </trkpt>
      <trkpt lat="44.54477" lon="4.93329">
        <ele>215</ele>
        <time>2024-03-28T12:47:53Z</time>
      </trkpt>
      <trkpt lat="44.54477" lon="4.93325">
        <ele>214</ele>
        <time>2024-03-28T12:48:00Z</time>
      </trkpt>
      <trkpt lat="44.5448" lon="4.93331">
        <ele>213</ele>
        <time>2024-03-28T12:48:10Z</time>
      </trkpt>
      <trkpt lat="44.54483" lon="4.93334">
        <ele>213</ele>
        <time>2024-03-28T12:48:13Z</time>
      </trkpt>
      <trkpt lat="44.54483" lon="4.93341">
        <ele>214</ele>
        <time>2024-03-28T12:48:22Z</time>
      </trkpt>
    </trkseg>
  </trk>
</gpx>